<?xml version="1.0" encoding="UTF-8" standalone="no" ?>
<gpx xmlns="http://www.topografix.com/GPX/1/1" xmlns:xsi="http://www.w3.org/2001/XMLSchema-instance" xsi:schemaLocation="http://www.topografix.com/GPX/1/1 http://www.topografix.com/GPX/1/1/gpx.xsd" version="1.1" creator="VisuGPX - https://www.visugpx.com">
  <metadata>
    <name>2020-12-13-M.Baussetti val Corsaglia</name>
  </metadata>
  <trk>
    <name><![CDATA[2020-12-13 14:42:14]]></name>
    <trkseg>
      <trkpt lat="44.24174" lon="7.84053">
        <ele>839.37</ele>
        <time>2020-12-13T07:26:31Z</time>
      </trkpt>
      <trkpt lat="44.24171" lon="7.84063">
        <ele>832.16</ele>
        <time>2020-12-13T07:26:48Z</time>
      </trkpt>
      <trkpt lat="44.24172" lon="7.84064">
        <ele>832.64</ele>
        <time>2020-12-13T07:26:59Z</time>
      </trkpt>
      <trkpt lat="44.24169" lon="7.84062">
        <ele>833.12</ele>
        <time>2020-12-13T07:27:12Z</time>
      </trkpt>
      <trkpt lat="44.24169" lon="7.84063">
        <ele>830.72</ele>
        <time>2020-12-13T07:27:30Z</time>
      </trkpt>
      <trkpt lat="44.24155" lon="7.84077">
        <ele>829.27</ele>
        <time>2020-12-13T07:28:01Z</time>
      </trkpt>
      <trkpt lat="44.24147" lon="7.84089">
        <ele>830.24</ele>
        <time>2020-12-13T07:28:24Z</time>
      </trkpt>
      <trkpt lat="44.24154" lon="7.84085">
        <ele>825.91</ele>
        <time>2020-12-13T07:28:53Z</time>
      </trkpt>
      <trkpt lat="44.24148" lon="7.84098">
        <ele>814.85</ele>
        <time>2020-12-13T07:29:14Z</time>
      </trkpt>
      <trkpt lat="44.24146" lon="7.8409">
        <ele>814.37</ele>
        <time>2020-12-13T07:29:31Z</time>
      </trkpt>
      <trkpt lat="44.24152" lon="7.8409">
        <ele>812.93</ele>
        <time>2020-12-13T07:29:53Z</time>
      </trkpt>
      <trkpt lat="44.24169" lon="7.84064">
        <ele>823.03</ele>
        <time>2020-12-13T07:30:13Z</time>
      </trkpt>
      <trkpt lat="44.24158" lon="7.84075">
        <ele>821.58</ele>
        <time>2020-12-13T07:30:44Z</time>
      </trkpt>
      <trkpt lat="44.24157" lon="7.84079">
        <ele>816.3</ele>
        <time>2020-12-13T07:31:14Z</time>
      </trkpt>
      <trkpt lat="44.24162" lon="7.84075">
        <ele>817.74</ele>
        <time>2020-12-13T07:31:51Z</time>
      </trkpt>
      <trkpt lat="44.24162" lon="7.84074">
        <ele>821.58</ele>
        <time>2020-12-13T07:32:09Z</time>
      </trkpt>
      <trkpt lat="44.24165" lon="7.84073">
        <ele>821.1</ele>
        <time>2020-12-13T07:32:28Z</time>
      </trkpt>
      <trkpt lat="44.24161" lon="7.84074">
        <ele>823.99</ele>
        <time>2020-12-13T07:33:01Z</time>
      </trkpt>
      <trkpt lat="44.24158" lon="7.84079">
        <ele>829.27</ele>
        <time>2020-12-13T07:33:33Z</time>
      </trkpt>
      <trkpt lat="44.2416" lon="7.84077">
        <ele>831.2</ele>
        <time>2020-12-13T07:34:00Z</time>
      </trkpt>
      <trkpt lat="44.24162" lon="7.84074">
        <ele>834.56</ele>
        <time>2020-12-13T07:34:35Z</time>
      </trkpt>
      <trkpt lat="44.24158" lon="7.84076">
        <ele>833.12</ele>
        <time>2020-12-13T07:34:56Z</time>
      </trkpt>
      <trkpt lat="44.24164" lon="7.84072">
        <ele>832.16</ele>
        <time>2020-12-13T07:35:21Z</time>
      </trkpt>
      <trkpt lat="44.24162" lon="7.84078">
        <ele>832.64</ele>
        <time>2020-12-13T07:35:42Z</time>
      </trkpt>
      <trkpt lat="44.24159" lon="7.84076">
        <ele>835.52</ele>
        <time>2020-12-13T07:36:06Z</time>
      </trkpt>
      <trkpt lat="44.24164" lon="7.84072">
        <ele>836.96</ele>
        <time>2020-12-13T07:36:28Z</time>
      </trkpt>
      <trkpt lat="44.24168" lon="7.84067">
        <ele>831.68</ele>
        <time>2020-12-13T07:36:39Z</time>
      </trkpt>
      <trkpt lat="44.24169" lon="7.84068">
        <ele>828.79</ele>
        <time>2020-12-13T07:36:51Z</time>
      </trkpt>
      <trkpt lat="44.24171" lon="7.84066">
        <ele>827.83</ele>
        <time>2020-12-13T07:37:02Z</time>
      </trkpt>
      <trkpt lat="44.24169" lon="7.84066">
        <ele>827.35</ele>
        <time>2020-12-13T07:37:07Z</time>
      </trkpt>
      <trkpt lat="44.24151" lon="7.84053">
        <ele>826.87</ele>
        <time>2020-12-13T07:37:24Z</time>
      </trkpt>
      <trkpt lat="44.24135" lon="7.84034">
        <ele>827.83</ele>
        <time>2020-12-13T07:37:40Z</time>
      </trkpt>
      <trkpt lat="44.2412" lon="7.84018">
        <ele>830.72</ele>
        <time>2020-12-13T07:37:58Z</time>
      </trkpt>
      <trkpt lat="44.24116" lon="7.84023">
        <ele>831.2</ele>
        <time>2020-12-13T07:38:11Z</time>
      </trkpt>
      <trkpt lat="44.24113" lon="7.84029">
        <ele>829.76</ele>
        <time>2020-12-13T07:38:23Z</time>
      </trkpt>
      <trkpt lat="44.24113" lon="7.84031">
        <ele>830.24</ele>
        <time>2020-12-13T07:38:40Z</time>
      </trkpt>
      <trkpt lat="44.24115" lon="7.84029">
        <ele>832.64</ele>
        <time>2020-12-13T07:39:02Z</time>
      </trkpt>
      <trkpt lat="44.24115" lon="7.8403">
        <ele>831.68</ele>
        <time>2020-12-13T07:39:21Z</time>
      </trkpt>
      <trkpt lat="44.24115" lon="7.84028">
        <ele>830.72</ele>
        <time>2020-12-13T07:39:32Z</time>
      </trkpt>
      <trkpt lat="44.24113" lon="7.84032">
        <ele>831.2</ele>
        <time>2020-12-13T07:39:50Z</time>
      </trkpt>
      <trkpt lat="44.24113" lon="7.84031">
        <ele>831.68</ele>
        <time>2020-12-13T07:40:09Z</time>
      </trkpt>
      <trkpt lat="44.24112" lon="7.84026">
        <ele>831.2</ele>
        <time>2020-12-13T07:40:19Z</time>
      </trkpt>
      <trkpt lat="44.24112" lon="7.84027">
        <ele>830.24</ele>
        <time>2020-12-13T07:40:35Z</time>
      </trkpt>
      <trkpt lat="44.24113" lon="7.84029">
        <ele>830.24</ele>
        <time>2020-12-13T07:40:48Z</time>
      </trkpt>
      <trkpt lat="44.24113" lon="7.8403">
        <ele>831.68</ele>
        <time>2020-12-13T07:41:03Z</time>
      </trkpt>
      <trkpt lat="44.24112" lon="7.84031">
        <ele>831.2</ele>
        <time>2020-12-13T07:41:21Z</time>
      </trkpt>
      <trkpt lat="44.24114" lon="7.84034">
        <ele>831.2</ele>
        <time>2020-12-13T07:41:34Z</time>
      </trkpt>
      <trkpt lat="44.24114" lon="7.84036">
        <ele>829.27</ele>
        <time>2020-12-13T07:41:52Z</time>
      </trkpt>
      <trkpt lat="44.24114" lon="7.84035">
        <ele>830.72</ele>
        <time>2020-12-13T07:42:10Z</time>
      </trkpt>
      <trkpt lat="44.24113" lon="7.84033">
        <ele>830.72</ele>
        <time>2020-12-13T07:42:27Z</time>
      </trkpt>
      <trkpt lat="44.24114" lon="7.84032">
        <ele>832.64</ele>
        <time>2020-12-13T07:42:43Z</time>
      </trkpt>
      <trkpt lat="44.24113" lon="7.8403">
        <ele>832.64</ele>
        <time>2020-12-13T07:42:59Z</time>
      </trkpt>
      <trkpt lat="44.24114" lon="7.84031">
        <ele>835.04</ele>
        <time>2020-12-13T07:43:15Z</time>
      </trkpt>
      <trkpt lat="44.24113" lon="7.8403">
        <ele>835.52</ele>
        <time>2020-12-13T07:43:33Z</time>
      </trkpt>
      <trkpt lat="44.24112" lon="7.84032">
        <ele>834.08</ele>
        <time>2020-12-13T07:43:56Z</time>
      </trkpt>
      <trkpt lat="44.24113" lon="7.84034">
        <ele>834.08</ele>
        <time>2020-12-13T07:44:08Z</time>
      </trkpt>
      <trkpt lat="44.24114" lon="7.84037">
        <ele>834.08</ele>
        <time>2020-12-13T07:44:11Z</time>
      </trkpt>
      <trkpt lat="44.24117" lon="7.84041">
        <ele>834.08</ele>
        <time>2020-12-13T07:44:15Z</time>
      </trkpt>
      <trkpt lat="44.24127" lon="7.84051">
        <ele>835.52</ele>
        <time>2020-12-13T07:44:29Z</time>
      </trkpt>
      <trkpt lat="44.24135" lon="7.84063">
        <ele>835.52</ele>
        <time>2020-12-13T07:44:42Z</time>
      </trkpt>
      <trkpt lat="44.24142" lon="7.84075">
        <ele>836.96</ele>
        <time>2020-12-13T07:44:55Z</time>
      </trkpt>
      <trkpt lat="44.2415" lon="7.84093">
        <ele>836.96</ele>
        <time>2020-12-13T07:45:11Z</time>
      </trkpt>
      <trkpt lat="44.24156" lon="7.84107">
        <ele>837.45</ele>
        <time>2020-12-13T07:45:24Z</time>
      </trkpt>
      <trkpt lat="44.24161" lon="7.84118">
        <ele>837.93</ele>
        <time>2020-12-13T07:45:36Z</time>
      </trkpt>
      <trkpt lat="44.24166" lon="7.84134">
        <ele>839.85</ele>
        <time>2020-12-13T07:45:50Z</time>
      </trkpt>
      <trkpt lat="44.24169" lon="7.84142">
        <ele>838.89</ele>
        <time>2020-12-13T07:45:58Z</time>
      </trkpt>
      <trkpt lat="44.24172" lon="7.84155">
        <ele>840.33</ele>
        <time>2020-12-13T07:46:11Z</time>
      </trkpt>
      <trkpt lat="44.24173" lon="7.84168">
        <ele>839.85</ele>
        <time>2020-12-13T07:46:23Z</time>
      </trkpt>
      <trkpt lat="44.24173" lon="7.84184">
        <ele>840.33</ele>
        <time>2020-12-13T07:46:37Z</time>
      </trkpt>
      <trkpt lat="44.24172" lon="7.8419">
        <ele>840.33</ele>
        <time>2020-12-13T07:46:50Z</time>
      </trkpt>
      <trkpt lat="44.24171" lon="7.84198">
        <ele>840.33</ele>
        <time>2020-12-13T07:47:03Z</time>
      </trkpt>
      <trkpt lat="44.24171" lon="7.84213">
        <ele>840.33</ele>
        <time>2020-12-13T07:47:17Z</time>
      </trkpt>
      <trkpt lat="44.2417" lon="7.84227">
        <ele>841.77</ele>
        <time>2020-12-13T07:47:30Z</time>
      </trkpt>
      <trkpt lat="44.24168" lon="7.84242">
        <ele>845.14</ele>
        <time>2020-12-13T07:47:44Z</time>
      </trkpt>
      <trkpt lat="44.24164" lon="7.84253">
        <ele>848.98</ele>
        <time>2020-12-13T07:47:57Z</time>
      </trkpt>
      <trkpt lat="44.24161" lon="7.84259">
        <ele>848.5</ele>
        <time>2020-12-13T07:48:02Z</time>
      </trkpt>
      <trkpt lat="44.24156" lon="7.84266">
        <ele>847.06</ele>
        <time>2020-12-13T07:48:09Z</time>
      </trkpt>
      <trkpt lat="44.24146" lon="7.84279">
        <ele>847.06</ele>
        <time>2020-12-13T07:48:24Z</time>
      </trkpt>
      <trkpt lat="44.24138" lon="7.84287">
        <ele>847.06</ele>
        <time>2020-12-13T07:48:36Z</time>
      </trkpt>
      <trkpt lat="44.24127" lon="7.84298">
        <ele>848.98</ele>
        <time>2020-12-13T07:48:51Z</time>
      </trkpt>
      <trkpt lat="44.24117" lon="7.84306">
        <ele>850.42</ele>
        <time>2020-12-13T07:49:04Z</time>
      </trkpt>
      <trkpt lat="44.24108" lon="7.84314">
        <ele>851.87</ele>
        <time>2020-12-13T07:49:17Z</time>
      </trkpt>
      <trkpt lat="44.24097" lon="7.84321">
        <ele>853.31</ele>
        <time>2020-12-13T07:49:31Z</time>
      </trkpt>
      <trkpt lat="44.24095" lon="7.84323">
        <ele>853.31</ele>
        <time>2020-12-13T07:49:35Z</time>
      </trkpt>
      <trkpt lat="44.24083" lon="7.8433">
        <ele>854.75</ele>
        <time>2020-12-13T07:49:49Z</time>
      </trkpt>
      <trkpt lat="44.24073" lon="7.84338">
        <ele>856.67</ele>
        <time>2020-12-13T07:50:03Z</time>
      </trkpt>
      <trkpt lat="44.24068" lon="7.84343">
        <ele>859.08</ele>
        <time>2020-12-13T07:50:16Z</time>
      </trkpt>
      <trkpt lat="44.24064" lon="7.84347">
        <ele>859.08</ele>
        <time>2020-12-13T07:50:32Z</time>
      </trkpt>
      <trkpt lat="44.24058" lon="7.84354">
        <ele>859.08</ele>
        <time>2020-12-13T07:50:44Z</time>
      </trkpt>
      <trkpt lat="44.24052" lon="7.84357">
        <ele>859.08</ele>
        <time>2020-12-13T07:50:55Z</time>
      </trkpt>
      <trkpt lat="44.24048" lon="7.8436">
        <ele>860.04</ele>
        <time>2020-12-13T07:51:07Z</time>
      </trkpt>
      <trkpt lat="44.24048" lon="7.84362">
        <ele>859.56</ele>
        <time>2020-12-13T07:51:19Z</time>
      </trkpt>
      <trkpt lat="44.24049" lon="7.84361">
        <ele>860.04</ele>
        <time>2020-12-13T07:51:38Z</time>
      </trkpt>
      <trkpt lat="44.24049" lon="7.8436">
        <ele>861</ele>
        <time>2020-12-13T07:51:53Z</time>
      </trkpt>
      <trkpt lat="44.2405" lon="7.84359">
        <ele>861.96</ele>
        <time>2020-12-13T07:52:10Z</time>
      </trkpt>
      <trkpt lat="44.24051" lon="7.84358">
        <ele>861</ele>
        <time>2020-12-13T07:52:23Z</time>
      </trkpt>
      <trkpt lat="44.2405" lon="7.84361">
        <ele>860.52</ele>
        <time>2020-12-13T07:52:35Z</time>
      </trkpt>
      <trkpt lat="44.24049" lon="7.84361">
        <ele>860.04</ele>
        <time>2020-12-13T07:52:46Z</time>
      </trkpt>
      <trkpt lat="44.2405" lon="7.84359">
        <ele>861.96</ele>
        <time>2020-12-13T07:52:59Z</time>
      </trkpt>
      <trkpt lat="44.2404" lon="7.84368">
        <ele>860.04</ele>
        <time>2020-12-13T07:53:11Z</time>
      </trkpt>
      <trkpt lat="44.24029" lon="7.84378">
        <ele>859.08</ele>
        <time>2020-12-13T07:53:25Z</time>
      </trkpt>
      <trkpt lat="44.24023" lon="7.84382">
        <ele>859.56</ele>
        <time>2020-12-13T07:53:37Z</time>
      </trkpt>
      <trkpt lat="44.24021" lon="7.84384">
        <ele>861.48</ele>
        <time>2020-12-13T07:53:52Z</time>
      </trkpt>
      <trkpt lat="44.24016" lon="7.84386">
        <ele>863.88</ele>
        <time>2020-12-13T07:54:03Z</time>
      </trkpt>
      <trkpt lat="44.24009" lon="7.84392">
        <ele>864.84</ele>
        <time>2020-12-13T07:54:19Z</time>
      </trkpt>
      <trkpt lat="44.24002" lon="7.84396">
        <ele>868.69</ele>
        <time>2020-12-13T07:54:32Z</time>
      </trkpt>
      <trkpt lat="44.23995" lon="7.84401">
        <ele>870.13</ele>
        <time>2020-12-13T07:54:40Z</time>
      </trkpt>
      <trkpt lat="44.23986" lon="7.84408">
        <ele>871.57</ele>
        <time>2020-12-13T07:54:51Z</time>
      </trkpt>
      <trkpt lat="44.23975" lon="7.84416">
        <ele>874.94</ele>
        <time>2020-12-13T07:55:06Z</time>
      </trkpt>
      <trkpt lat="44.2397" lon="7.84417">
        <ele>875.9</ele>
        <time>2020-12-13T07:55:19Z</time>
      </trkpt>
      <trkpt lat="44.23962" lon="7.84421">
        <ele>876.86</ele>
        <time>2020-12-13T07:55:34Z</time>
      </trkpt>
      <trkpt lat="44.23944" lon="7.84424">
        <ele>880.22</ele>
        <time>2020-12-13T07:55:50Z</time>
      </trkpt>
      <trkpt lat="44.23925" lon="7.8443">
        <ele>882.15</ele>
        <time>2020-12-13T07:56:08Z</time>
      </trkpt>
      <trkpt lat="44.23915" lon="7.8444">
        <ele>882.15</ele>
        <time>2020-12-13T07:56:22Z</time>
      </trkpt>
      <trkpt lat="44.23902" lon="7.84469">
        <ele>887.43</ele>
        <time>2020-12-13T07:56:43Z</time>
      </trkpt>
      <trkpt lat="44.23894" lon="7.8448">
        <ele>894.64</ele>
        <time>2020-12-13T07:56:59Z</time>
      </trkpt>
      <trkpt lat="44.23889" lon="7.84486">
        <ele>896.57</ele>
        <time>2020-12-13T07:57:15Z</time>
      </trkpt>
      <trkpt lat="44.23887" lon="7.84487">
        <ele>899.45</ele>
        <time>2020-12-13T07:57:31Z</time>
      </trkpt>
      <trkpt lat="44.23886" lon="7.84488">
        <ele>898.49</ele>
        <time>2020-12-13T07:57:44Z</time>
      </trkpt>
      <trkpt lat="44.23883" lon="7.8449">
        <ele>901.85</ele>
        <time>2020-12-13T07:57:57Z</time>
      </trkpt>
      <trkpt lat="44.23876" lon="7.84504">
        <ele>895.12</ele>
        <time>2020-12-13T07:58:11Z</time>
      </trkpt>
      <trkpt lat="44.23874" lon="7.84508">
        <ele>894.64</ele>
        <time>2020-12-13T07:58:16Z</time>
      </trkpt>
      <trkpt lat="44.23867" lon="7.84522">
        <ele>892.72</ele>
        <time>2020-12-13T07:58:29Z</time>
      </trkpt>
      <trkpt lat="44.23863" lon="7.84538">
        <ele>893.68</ele>
        <time>2020-12-13T07:58:42Z</time>
      </trkpt>
      <trkpt lat="44.23861" lon="7.84553">
        <ele>896.09</ele>
        <time>2020-12-13T07:58:56Z</time>
      </trkpt>
      <trkpt lat="44.23859" lon="7.84562">
        <ele>897.05</ele>
        <time>2020-12-13T07:59:05Z</time>
      </trkpt>
      <trkpt lat="44.23855" lon="7.84573">
        <ele>900.41</ele>
        <time>2020-12-13T07:59:17Z</time>
      </trkpt>
      <trkpt lat="44.23852" lon="7.84581">
        <ele>901.85</ele>
        <time>2020-12-13T07:59:24Z</time>
      </trkpt>
      <trkpt lat="44.23845" lon="7.84595">
        <ele>903.78</ele>
        <time>2020-12-13T07:59:39Z</time>
      </trkpt>
      <trkpt lat="44.2384" lon="7.8461">
        <ele>902.33</ele>
        <time>2020-12-13T07:59:53Z</time>
      </trkpt>
      <trkpt lat="44.23834" lon="7.84623">
        <ele>903.3</ele>
        <time>2020-12-13T08:00:07Z</time>
      </trkpt>
      <trkpt lat="44.2383" lon="7.84635">
        <ele>903.3</ele>
        <time>2020-12-13T08:00:20Z</time>
      </trkpt>
      <trkpt lat="44.23832" lon="7.84636">
        <ele>906.18</ele>
        <time>2020-12-13T08:00:32Z</time>
      </trkpt>
      <trkpt lat="44.23841" lon="7.84632">
        <ele>907.14</ele>
        <time>2020-12-13T08:00:47Z</time>
      </trkpt>
      <trkpt lat="44.23846" lon="7.84627">
        <ele>906.66</ele>
        <time>2020-12-13T08:00:58Z</time>
      </trkpt>
      <trkpt lat="44.23854" lon="7.8462">
        <ele>905.7</ele>
        <time>2020-12-13T08:01:11Z</time>
      </trkpt>
      <trkpt lat="44.23861" lon="7.84613">
        <ele>905.7</ele>
        <time>2020-12-13T08:01:25Z</time>
      </trkpt>
      <trkpt lat="44.23861" lon="7.84612">
        <ele>906.18</ele>
        <time>2020-12-13T08:01:27Z</time>
      </trkpt>
      <trkpt lat="44.23871" lon="7.84602">
        <ele>906.18</ele>
        <time>2020-12-13T08:01:42Z</time>
      </trkpt>
      <trkpt lat="44.23879" lon="7.84597">
        <ele>906.18</ele>
        <time>2020-12-13T08:01:51Z</time>
      </trkpt>
      <trkpt lat="44.23888" lon="7.84588">
        <ele>907.62</ele>
        <time>2020-12-13T08:02:06Z</time>
      </trkpt>
      <trkpt lat="44.23902" lon="7.84579">
        <ele>909.54</ele>
        <time>2020-12-13T08:02:19Z</time>
      </trkpt>
      <trkpt lat="44.23907" lon="7.84568">
        <ele>910.99</ele>
        <time>2020-12-13T08:02:32Z</time>
      </trkpt>
      <trkpt lat="44.23909" lon="7.84556">
        <ele>913.39</ele>
        <time>2020-12-13T08:02:43Z</time>
      </trkpt>
      <trkpt lat="44.23911" lon="7.8455">
        <ele>915.31</ele>
        <time>2020-12-13T08:02:50Z</time>
      </trkpt>
      <trkpt lat="44.23915" lon="7.84549">
        <ele>915.31</ele>
        <time>2020-12-13T08:02:57Z</time>
      </trkpt>
      <trkpt lat="44.23919" lon="7.84554">
        <ele>916.75</ele>
        <time>2020-12-13T08:03:03Z</time>
      </trkpt>
      <trkpt lat="44.23917" lon="7.84564">
        <ele>914.83</ele>
        <time>2020-12-13T08:03:13Z</time>
      </trkpt>
      <trkpt lat="44.23916" lon="7.84578">
        <ele>913.87</ele>
        <time>2020-12-13T08:03:27Z</time>
      </trkpt>
      <trkpt lat="44.23918" lon="7.84594">
        <ele>914.35</ele>
        <time>2020-12-13T08:03:41Z</time>
      </trkpt>
      <trkpt lat="44.23918" lon="7.84608">
        <ele>914.83</ele>
        <time>2020-12-13T08:03:55Z</time>
      </trkpt>
      <trkpt lat="44.23915" lon="7.8462">
        <ele>917.72</ele>
        <time>2020-12-13T08:04:09Z</time>
      </trkpt>
      <trkpt lat="44.23908" lon="7.84627">
        <ele>919.16</ele>
        <time>2020-12-13T08:04:21Z</time>
      </trkpt>
      <trkpt lat="44.23912" lon="7.8464">
        <ele>920.6</ele>
        <time>2020-12-13T08:04:35Z</time>
      </trkpt>
      <trkpt lat="44.23923" lon="7.84634">
        <ele>922.52</ele>
        <time>2020-12-13T08:04:48Z</time>
      </trkpt>
      <trkpt lat="44.23929" lon="7.84622">
        <ele>923</ele>
        <time>2020-12-13T08:05:03Z</time>
      </trkpt>
      <trkpt lat="44.23934" lon="7.84609">
        <ele>923.96</ele>
        <time>2020-12-13T08:05:16Z</time>
      </trkpt>
      <trkpt lat="44.23936" lon="7.84603">
        <ele>923.48</ele>
        <time>2020-12-13T08:05:21Z</time>
      </trkpt>
      <trkpt lat="44.23938" lon="7.84598">
        <ele>925.41</ele>
        <time>2020-12-13T08:05:25Z</time>
      </trkpt>
      <trkpt lat="44.23945" lon="7.84605">
        <ele>927.33</ele>
        <time>2020-12-13T08:05:40Z</time>
      </trkpt>
      <trkpt lat="44.23941" lon="7.84616">
        <ele>925.41</ele>
        <time>2020-12-13T08:05:53Z</time>
      </trkpt>
      <trkpt lat="44.23938" lon="7.84635">
        <ele>929.25</ele>
        <time>2020-12-13T08:06:10Z</time>
      </trkpt>
      <trkpt lat="44.23932" lon="7.84649">
        <ele>934.06</ele>
        <time>2020-12-13T08:06:27Z</time>
      </trkpt>
      <trkpt lat="44.23926" lon="7.84663">
        <ele>934.54</ele>
        <time>2020-12-13T08:06:42Z</time>
      </trkpt>
      <trkpt lat="44.23918" lon="7.84674">
        <ele>937.42</ele>
        <time>2020-12-13T08:06:58Z</time>
      </trkpt>
      <trkpt lat="44.23917" lon="7.84675">
        <ele>937.9</ele>
        <time>2020-12-13T08:06:59Z</time>
      </trkpt>
      <trkpt lat="44.23909" lon="7.84682">
        <ele>940.31</ele>
        <time>2020-12-13T08:07:13Z</time>
      </trkpt>
      <trkpt lat="44.23901" lon="7.84691">
        <ele>941.75</ele>
        <time>2020-12-13T08:07:26Z</time>
      </trkpt>
      <trkpt lat="44.239" lon="7.84691">
        <ele>941.75</ele>
        <time>2020-12-13T08:07:27Z</time>
      </trkpt>
      <trkpt lat="44.23892" lon="7.84696">
        <ele>944.63</ele>
        <time>2020-12-13T08:07:41Z</time>
      </trkpt>
      <trkpt lat="44.23881" lon="7.847">
        <ele>946.56</ele>
        <time>2020-12-13T08:07:56Z</time>
      </trkpt>
      <trkpt lat="44.23872" lon="7.84703">
        <ele>948.48</ele>
        <time>2020-12-13T08:08:09Z</time>
      </trkpt>
      <trkpt lat="44.23865" lon="7.84709">
        <ele>950.4</ele>
        <time>2020-12-13T08:08:23Z</time>
      </trkpt>
      <trkpt lat="44.23873" lon="7.84719">
        <ele>950.4</ele>
        <time>2020-12-13T08:08:36Z</time>
      </trkpt>
      <trkpt lat="44.23882" lon="7.84719">
        <ele>949.92</ele>
        <time>2020-12-13T08:08:49Z</time>
      </trkpt>
      <trkpt lat="44.23892" lon="7.84721">
        <ele>951.36</ele>
        <time>2020-12-13T08:09:03Z</time>
      </trkpt>
      <trkpt lat="44.23902" lon="7.84728">
        <ele>953.77</ele>
        <time>2020-12-13T08:09:16Z</time>
      </trkpt>
      <trkpt lat="44.23903" lon="7.84729">
        <ele>953.77</ele>
        <time>2020-12-13T08:09:17Z</time>
      </trkpt>
      <trkpt lat="44.23915" lon="7.84735">
        <ele>958.09</ele>
        <time>2020-12-13T08:09:32Z</time>
      </trkpt>
      <trkpt lat="44.23925" lon="7.84741">
        <ele>960.98</ele>
        <time>2020-12-13T08:09:46Z</time>
      </trkpt>
      <trkpt lat="44.23936" lon="7.84749">
        <ele>963.38</ele>
        <time>2020-12-13T08:10:01Z</time>
      </trkpt>
      <trkpt lat="44.23937" lon="7.84752">
        <ele>964.34</ele>
        <time>2020-12-13T08:10:05Z</time>
      </trkpt>
      <trkpt lat="44.23936" lon="7.8476">
        <ele>964.82</ele>
        <time>2020-12-13T08:10:16Z</time>
      </trkpt>
      <trkpt lat="44.23926" lon="7.84768">
        <ele>965.3</ele>
        <time>2020-12-13T08:10:29Z</time>
      </trkpt>
      <trkpt lat="44.23915" lon="7.84772">
        <ele>966.74</ele>
        <time>2020-12-13T08:10:44Z</time>
      </trkpt>
      <trkpt lat="44.23909" lon="7.84771">
        <ele>967.22</ele>
        <time>2020-12-13T08:10:51Z</time>
      </trkpt>
      <trkpt lat="44.23899" lon="7.8477">
        <ele>969.15</ele>
        <time>2020-12-13T08:11:03Z</time>
      </trkpt>
      <trkpt lat="44.23889" lon="7.84769">
        <ele>970.59</ele>
        <time>2020-12-13T08:11:14Z</time>
      </trkpt>
      <trkpt lat="44.23878" lon="7.84764">
        <ele>972.03</ele>
        <time>2020-12-13T08:11:28Z</time>
      </trkpt>
      <trkpt lat="44.23875" lon="7.84765">
        <ele>972.99</ele>
        <time>2020-12-13T08:11:32Z</time>
      </trkpt>
      <trkpt lat="44.23867" lon="7.8477">
        <ele>973.95</ele>
        <time>2020-12-13T08:11:46Z</time>
      </trkpt>
      <trkpt lat="44.23863" lon="7.84776">
        <ele>973.47</ele>
        <time>2020-12-13T08:11:58Z</time>
      </trkpt>
      <trkpt lat="44.23856" lon="7.84781">
        <ele>975.39</ele>
        <time>2020-12-13T08:12:11Z</time>
      </trkpt>
      <trkpt lat="44.23854" lon="7.84782">
        <ele>974.91</ele>
        <time>2020-12-13T08:12:15Z</time>
      </trkpt>
      <trkpt lat="44.23851" lon="7.84793">
        <ele>975.39</ele>
        <time>2020-12-13T08:12:28Z</time>
      </trkpt>
      <trkpt lat="44.23859" lon="7.84795">
        <ele>974.43</ele>
        <time>2020-12-13T08:12:40Z</time>
      </trkpt>
      <trkpt lat="44.23865" lon="7.84793">
        <ele>975.88</ele>
        <time>2020-12-13T08:12:48Z</time>
      </trkpt>
      <trkpt lat="44.23869" lon="7.84794">
        <ele>976.84</ele>
        <time>2020-12-13T08:12:53Z</time>
      </trkpt>
      <trkpt lat="44.23872" lon="7.84802">
        <ele>980.68</ele>
        <time>2020-12-13T08:13:06Z</time>
      </trkpt>
      <trkpt lat="44.23869" lon="7.84805">
        <ele>980.68</ele>
        <time>2020-12-13T08:13:11Z</time>
      </trkpt>
      <trkpt lat="44.23859" lon="7.84813">
        <ele>982.12</ele>
        <time>2020-12-13T08:13:26Z</time>
      </trkpt>
      <trkpt lat="44.23853" lon="7.84818">
        <ele>986.93</ele>
        <time>2020-12-13T08:13:42Z</time>
      </trkpt>
      <trkpt lat="44.23847" lon="7.84824">
        <ele>989.33</ele>
        <time>2020-12-13T08:14:01Z</time>
      </trkpt>
      <trkpt lat="44.23842" lon="7.84826">
        <ele>989.33</ele>
        <time>2020-12-13T08:14:08Z</time>
      </trkpt>
      <trkpt lat="44.23835" lon="7.84829">
        <ele>989.81</ele>
        <time>2020-12-13T08:14:17Z</time>
      </trkpt>
      <trkpt lat="44.23823" lon="7.84834">
        <ele>990.78</ele>
        <time>2020-12-13T08:14:31Z</time>
      </trkpt>
      <trkpt lat="44.23819" lon="7.84836">
        <ele>990.3</ele>
        <time>2020-12-13T08:14:37Z</time>
      </trkpt>
      <trkpt lat="44.23814" lon="7.84846">
        <ele>991.26</ele>
        <time>2020-12-13T08:14:47Z</time>
      </trkpt>
      <trkpt lat="44.23806" lon="7.8486">
        <ele>991.26</ele>
        <time>2020-12-13T08:15:02Z</time>
      </trkpt>
      <trkpt lat="44.23798" lon="7.84872">
        <ele>992.7</ele>
        <time>2020-12-13T08:15:16Z</time>
      </trkpt>
      <trkpt lat="44.23789" lon="7.84877">
        <ele>993.18</ele>
        <time>2020-12-13T08:15:28Z</time>
      </trkpt>
      <trkpt lat="44.23786" lon="7.84879">
        <ele>995.1</ele>
        <time>2020-12-13T08:15:34Z</time>
      </trkpt>
      <trkpt lat="44.23782" lon="7.8488">
        <ele>996.06</ele>
        <time>2020-12-13T08:15:39Z</time>
      </trkpt>
      <trkpt lat="44.23771" lon="7.84886">
        <ele>997.99</ele>
        <time>2020-12-13T08:15:56Z</time>
      </trkpt>
      <trkpt lat="44.23764" lon="7.84893">
        <ele>998.95</ele>
        <time>2020-12-13T08:16:09Z</time>
      </trkpt>
      <trkpt lat="44.23754" lon="7.84901">
        <ele>1001.35</ele>
        <time>2020-12-13T08:16:25Z</time>
      </trkpt>
      <trkpt lat="44.23745" lon="7.84909">
        <ele>1003.75</ele>
        <time>2020-12-13T08:16:40Z</time>
      </trkpt>
      <trkpt lat="44.23735" lon="7.84914">
        <ele>1003.75</ele>
        <time>2020-12-13T08:16:54Z</time>
      </trkpt>
      <trkpt lat="44.23726" lon="7.84918">
        <ele>1005.2</ele>
        <time>2020-12-13T08:17:06Z</time>
      </trkpt>
      <trkpt lat="44.23714" lon="7.84921">
        <ele>1007.12</ele>
        <time>2020-12-13T08:17:21Z</time>
      </trkpt>
      <trkpt lat="44.23705" lon="7.84922">
        <ele>1009.52</ele>
        <time>2020-12-13T08:17:34Z</time>
      </trkpt>
      <trkpt lat="44.23696" lon="7.84923">
        <ele>1011.44</ele>
        <time>2020-12-13T08:17:47Z</time>
      </trkpt>
      <trkpt lat="44.23692" lon="7.84924">
        <ele>1012.41</ele>
        <time>2020-12-13T08:17:52Z</time>
      </trkpt>
      <trkpt lat="44.23683" lon="7.84929">
        <ele>1014.33</ele>
        <time>2020-12-13T08:18:05Z</time>
      </trkpt>
      <trkpt lat="44.23677" lon="7.84933">
        <ele>1016.25</ele>
        <time>2020-12-13T08:18:19Z</time>
      </trkpt>
      <trkpt lat="44.23673" lon="7.84933">
        <ele>1016.25</ele>
        <time>2020-12-13T08:18:30Z</time>
      </trkpt>
      <trkpt lat="44.23669" lon="7.84938">
        <ele>1016.25</ele>
        <time>2020-12-13T08:18:41Z</time>
      </trkpt>
      <trkpt lat="44.23668" lon="7.84936">
        <ele>1014.33</ele>
        <time>2020-12-13T08:18:58Z</time>
      </trkpt>
      <trkpt lat="44.23665" lon="7.84939">
        <ele>1013.37</ele>
        <time>2020-12-13T08:19:34Z</time>
      </trkpt>
      <trkpt lat="44.23668" lon="7.84934">
        <ele>1014.81</ele>
        <time>2020-12-13T08:20:02Z</time>
      </trkpt>
      <trkpt lat="44.23668" lon="7.84932">
        <ele>1021.54</ele>
        <time>2020-12-13T08:20:30Z</time>
      </trkpt>
      <trkpt lat="44.23666" lon="7.84933">
        <ele>1022.5</ele>
        <time>2020-12-13T08:20:51Z</time>
      </trkpt>
      <trkpt lat="44.23659" lon="7.84934">
        <ele>1021.54</ele>
        <time>2020-12-13T08:21:06Z</time>
      </trkpt>
      <trkpt lat="44.2365" lon="7.84934">
        <ele>1022.02</ele>
        <time>2020-12-13T08:21:18Z</time>
      </trkpt>
      <trkpt lat="44.23641" lon="7.84938">
        <ele>1020.1</ele>
        <time>2020-12-13T08:21:31Z</time>
      </trkpt>
      <trkpt lat="44.23635" lon="7.84949">
        <ele>1019.13</ele>
        <time>2020-12-13T08:21:41Z</time>
      </trkpt>
      <trkpt lat="44.23634" lon="7.84964">
        <ele>1018.17</ele>
        <time>2020-12-13T08:21:53Z</time>
      </trkpt>
      <trkpt lat="44.23634" lon="7.84976">
        <ele>1018.65</ele>
        <time>2020-12-13T08:22:03Z</time>
      </trkpt>
      <trkpt lat="44.23632" lon="7.84986">
        <ele>1020.58</ele>
        <time>2020-12-13T08:22:11Z</time>
      </trkpt>
      <trkpt lat="44.2363" lon="7.85002">
        <ele>1021.06</ele>
        <time>2020-12-13T08:22:26Z</time>
      </trkpt>
      <trkpt lat="44.23627" lon="7.85013">
        <ele>1020.58</ele>
        <time>2020-12-13T08:22:37Z</time>
      </trkpt>
      <trkpt lat="44.23624" lon="7.85024">
        <ele>1021.54</ele>
        <time>2020-12-13T08:22:48Z</time>
      </trkpt>
      <trkpt lat="44.23622" lon="7.8503">
        <ele>1022.5</ele>
        <time>2020-12-13T08:23:00Z</time>
      </trkpt>
      <trkpt lat="44.23619" lon="7.85041">
        <ele>1023.94</ele>
        <time>2020-12-13T08:23:14Z</time>
      </trkpt>
      <trkpt lat="44.23614" lon="7.85055">
        <ele>1025.38</ele>
        <time>2020-12-13T08:23:29Z</time>
      </trkpt>
      <trkpt lat="44.2361" lon="7.85068">
        <ele>1029.23</ele>
        <time>2020-12-13T08:23:43Z</time>
      </trkpt>
      <trkpt lat="44.2361" lon="7.85069">
        <ele>1029.23</ele>
        <time>2020-12-13T08:23:44Z</time>
      </trkpt>
      <trkpt lat="44.23607" lon="7.85077">
        <ele>1029.71</ele>
        <time>2020-12-13T08:23:56Z</time>
      </trkpt>
      <trkpt lat="44.23606" lon="7.85083">
        <ele>1029.71</ele>
        <time>2020-12-13T08:24:02Z</time>
      </trkpt>
      <trkpt lat="44.23602" lon="7.85095">
        <ele>1031.63</ele>
        <time>2020-12-13T08:24:16Z</time>
      </trkpt>
      <trkpt lat="44.23602" lon="7.85098">
        <ele>1032.59</ele>
        <time>2020-12-13T08:24:18Z</time>
      </trkpt>
      <trkpt lat="44.23598" lon="7.85114">
        <ele>1033.07</ele>
        <time>2020-12-13T08:24:32Z</time>
      </trkpt>
      <trkpt lat="44.23595" lon="7.85129">
        <ele>1034.04</ele>
        <time>2020-12-13T08:24:45Z</time>
      </trkpt>
      <trkpt lat="44.23594" lon="7.85136">
        <ele>1035.48</ele>
        <time>2020-12-13T08:24:51Z</time>
      </trkpt>
      <trkpt lat="44.23588" lon="7.85152">
        <ele>1037.4</ele>
        <time>2020-12-13T08:25:05Z</time>
      </trkpt>
      <trkpt lat="44.23586" lon="7.85158">
        <ele>1036.92</ele>
        <time>2020-12-13T08:25:18Z</time>
      </trkpt>
      <trkpt lat="44.23577" lon="7.85172">
        <ele>1035.96</ele>
        <time>2020-12-13T08:25:33Z</time>
      </trkpt>
      <trkpt lat="44.23574" lon="7.85176">
        <ele>1036.44</ele>
        <time>2020-12-13T08:25:46Z</time>
      </trkpt>
      <trkpt lat="44.2357" lon="7.8518">
        <ele>1035</ele>
        <time>2020-12-13T08:26:09Z</time>
      </trkpt>
      <trkpt lat="44.23561" lon="7.85197">
        <ele>1033.55</ele>
        <time>2020-12-13T08:26:23Z</time>
      </trkpt>
      <trkpt lat="44.23557" lon="7.85216">
        <ele>1032.11</ele>
        <time>2020-12-13T08:26:37Z</time>
      </trkpt>
      <trkpt lat="44.23556" lon="7.85223">
        <ele>1031.63</ele>
        <time>2020-12-13T08:26:42Z</time>
      </trkpt>
      <trkpt lat="44.23557" lon="7.8523">
        <ele>1031.15</ele>
        <time>2020-12-13T08:26:47Z</time>
      </trkpt>
      <trkpt lat="44.2356" lon="7.85251">
        <ele>1030.19</ele>
        <time>2020-12-13T08:27:03Z</time>
      </trkpt>
      <trkpt lat="44.23558" lon="7.85266">
        <ele>1030.19</ele>
        <time>2020-12-13T08:27:15Z</time>
      </trkpt>
      <trkpt lat="44.23557" lon="7.85272">
        <ele>1029.23</ele>
        <time>2020-12-13T08:27:19Z</time>
      </trkpt>
      <trkpt lat="44.23556" lon="7.8528">
        <ele>1029.71</ele>
        <time>2020-12-13T08:27:26Z</time>
      </trkpt>
      <trkpt lat="44.2355" lon="7.85297">
        <ele>1031.15</ele>
        <time>2020-12-13T08:27:40Z</time>
      </trkpt>
      <trkpt lat="44.23542" lon="7.85311">
        <ele>1031.15</ele>
        <time>2020-12-13T08:27:52Z</time>
      </trkpt>
      <trkpt lat="44.23534" lon="7.85326">
        <ele>1029.71</ele>
        <time>2020-12-13T08:28:06Z</time>
      </trkpt>
      <trkpt lat="44.23521" lon="7.85344">
        <ele>1030.67</ele>
        <time>2020-12-13T08:28:22Z</time>
      </trkpt>
      <trkpt lat="44.2351" lon="7.85358">
        <ele>1029.23</ele>
        <time>2020-12-13T08:28:35Z</time>
      </trkpt>
      <trkpt lat="44.23499" lon="7.85375">
        <ele>1028.27</ele>
        <time>2020-12-13T08:28:51Z</time>
      </trkpt>
      <trkpt lat="44.23496" lon="7.8538">
        <ele>1028.75</ele>
        <time>2020-12-13T08:28:56Z</time>
      </trkpt>
      <trkpt lat="44.23485" lon="7.85391">
        <ele>1031.15</ele>
        <time>2020-12-13T08:29:10Z</time>
      </trkpt>
      <trkpt lat="44.23482" lon="7.85393">
        <ele>1030.67</ele>
        <time>2020-12-13T08:29:13Z</time>
      </trkpt>
      <trkpt lat="44.23468" lon="7.8541">
        <ele>1028.75</ele>
        <time>2020-12-13T08:29:28Z</time>
      </trkpt>
      <trkpt lat="44.23456" lon="7.85425">
        <ele>1026.34</ele>
        <time>2020-12-13T08:29:44Z</time>
      </trkpt>
      <trkpt lat="44.23452" lon="7.85431">
        <ele>1025.86</ele>
        <time>2020-12-13T08:29:52Z</time>
      </trkpt>
      <trkpt lat="44.23443" lon="7.85441">
        <ele>1026.83</ele>
        <time>2020-12-13T08:30:06Z</time>
      </trkpt>
      <trkpt lat="44.23438" lon="7.8545">
        <ele>1027.79</ele>
        <time>2020-12-13T08:30:14Z</time>
      </trkpt>
      <trkpt lat="44.23432" lon="7.85464">
        <ele>1029.23</ele>
        <time>2020-12-13T08:30:27Z</time>
      </trkpt>
      <trkpt lat="44.23425" lon="7.85476">
        <ele>1028.75</ele>
        <time>2020-12-13T08:30:40Z</time>
      </trkpt>
      <trkpt lat="44.2342" lon="7.85482">
        <ele>1029.23</ele>
        <time>2020-12-13T08:30:47Z</time>
      </trkpt>
      <trkpt lat="44.23413" lon="7.85491">
        <ele>1028.27</ele>
        <time>2020-12-13T08:30:56Z</time>
      </trkpt>
      <trkpt lat="44.23407" lon="7.85498">
        <ele>1027.31</ele>
        <time>2020-12-13T08:31:02Z</time>
      </trkpt>
      <trkpt lat="44.23403" lon="7.85503">
        <ele>1027.31</ele>
        <time>2020-12-13T08:31:07Z</time>
      </trkpt>
      <trkpt lat="44.23395" lon="7.85521">
        <ele>1024.9</ele>
        <time>2020-12-13T08:31:20Z</time>
      </trkpt>
      <trkpt lat="44.23388" lon="7.85546">
        <ele>1027.79</ele>
        <time>2020-12-13T08:31:34Z</time>
      </trkpt>
      <trkpt lat="44.23382" lon="7.85563">
        <ele>1030.19</ele>
        <time>2020-12-13T08:31:44Z</time>
      </trkpt>
      <trkpt lat="44.23381" lon="7.85571">
        <ele>1031.63</ele>
        <time>2020-12-13T08:31:49Z</time>
      </trkpt>
      <trkpt lat="44.23375" lon="7.85579">
        <ele>1032.59</ele>
        <time>2020-12-13T08:31:57Z</time>
      </trkpt>
      <trkpt lat="44.23364" lon="7.85586">
        <ele>1034.04</ele>
        <time>2020-12-13T08:32:11Z</time>
      </trkpt>
      <trkpt lat="44.23357" lon="7.85598">
        <ele>1038.84</ele>
        <time>2020-12-13T08:32:26Z</time>
      </trkpt>
      <trkpt lat="44.23351" lon="7.85608">
        <ele>1041.25</ele>
        <time>2020-12-13T08:32:42Z</time>
      </trkpt>
      <trkpt lat="44.23344" lon="7.85612">
        <ele>1043.17</ele>
        <time>2020-12-13T08:32:50Z</time>
      </trkpt>
      <trkpt lat="44.23334" lon="7.85625">
        <ele>1048.94</ele>
        <time>2020-12-13T08:33:06Z</time>
      </trkpt>
      <trkpt lat="44.23331" lon="7.85635">
        <ele>1052.3</ele>
        <time>2020-12-13T08:33:17Z</time>
      </trkpt>
      <trkpt lat="44.23323" lon="7.85649">
        <ele>1051.82</ele>
        <time>2020-12-13T08:33:34Z</time>
      </trkpt>
      <trkpt lat="44.23315" lon="7.85656">
        <ele>1051.82</ele>
        <time>2020-12-13T08:33:52Z</time>
      </trkpt>
      <trkpt lat="44.23304" lon="7.85663">
        <ele>1053.74</ele>
        <time>2020-12-13T08:34:09Z</time>
      </trkpt>
      <trkpt lat="44.23292" lon="7.8567">
        <ele>1060.47</ele>
        <time>2020-12-13T08:34:27Z</time>
      </trkpt>
      <trkpt lat="44.2329" lon="7.8568">
        <ele>1064.32</ele>
        <time>2020-12-13T08:34:41Z</time>
      </trkpt>
      <trkpt lat="44.23291" lon="7.85682">
        <ele>1066.24</ele>
        <time>2020-12-13T08:34:57Z</time>
      </trkpt>
      <trkpt lat="44.23293" lon="7.85681">
        <ele>1059.99</ele>
        <time>2020-12-13T08:35:11Z</time>
      </trkpt>
      <trkpt lat="44.23284" lon="7.85684">
        <ele>1059.03</ele>
        <time>2020-12-13T08:35:24Z</time>
      </trkpt>
      <trkpt lat="44.23273" lon="7.85688">
        <ele>1057.59</ele>
        <time>2020-12-13T08:35:42Z</time>
      </trkpt>
      <trkpt lat="44.23263" lon="7.85685">
        <ele>1059.03</ele>
        <time>2020-12-13T08:35:55Z</time>
      </trkpt>
      <trkpt lat="44.23254" lon="7.85696">
        <ele>1061.43</ele>
        <time>2020-12-13T08:36:10Z</time>
      </trkpt>
      <trkpt lat="44.23248" lon="7.85704">
        <ele>1064.32</ele>
        <time>2020-12-13T08:36:27Z</time>
      </trkpt>
      <trkpt lat="44.23242" lon="7.85716">
        <ele>1068.64</ele>
        <time>2020-12-13T08:36:44Z</time>
      </trkpt>
      <trkpt lat="44.23234" lon="7.8573">
        <ele>1075.85</ele>
        <time>2020-12-13T08:37:00Z</time>
      </trkpt>
      <trkpt lat="44.23229" lon="7.85742">
        <ele>1075.85</ele>
        <time>2020-12-13T08:37:23Z</time>
      </trkpt>
      <trkpt lat="44.23225" lon="7.85755">
        <ele>1078.26</ele>
        <time>2020-12-13T08:37:41Z</time>
      </trkpt>
      <trkpt lat="44.23223" lon="7.85767">
        <ele>1081.62</ele>
        <time>2020-12-13T08:37:57Z</time>
      </trkpt>
      <trkpt lat="44.23218" lon="7.85786">
        <ele>1084.02</ele>
        <time>2020-12-13T08:38:18Z</time>
      </trkpt>
      <trkpt lat="44.23215" lon="7.85802">
        <ele>1084.5</ele>
        <time>2020-12-13T08:38:34Z</time>
      </trkpt>
      <trkpt lat="44.23212" lon="7.85815">
        <ele>1085.95</ele>
        <time>2020-12-13T08:38:50Z</time>
      </trkpt>
      <trkpt lat="44.23206" lon="7.85832">
        <ele>1093.16</ele>
        <time>2020-12-13T08:39:09Z</time>
      </trkpt>
      <trkpt lat="44.23198" lon="7.85846">
        <ele>1096.52</ele>
        <time>2020-12-13T08:39:26Z</time>
      </trkpt>
      <trkpt lat="44.23195" lon="7.85851">
        <ele>1098.44</ele>
        <time>2020-12-13T08:39:33Z</time>
      </trkpt>
      <trkpt lat="44.2319" lon="7.85865">
        <ele>1105.17</ele>
        <time>2020-12-13T08:39:49Z</time>
      </trkpt>
      <trkpt lat="44.23181" lon="7.8588">
        <ele>1108.06</ele>
        <time>2020-12-13T08:40:05Z</time>
      </trkpt>
      <trkpt lat="44.23173" lon="7.85894">
        <ele>1109.02</ele>
        <time>2020-12-13T08:40:23Z</time>
      </trkpt>
      <trkpt lat="44.23167" lon="7.85906">
        <ele>1111.9</ele>
        <time>2020-12-13T08:40:41Z</time>
      </trkpt>
      <trkpt lat="44.2316" lon="7.8592">
        <ele>1115.27</ele>
        <time>2020-12-13T08:40:57Z</time>
      </trkpt>
      <trkpt lat="44.23151" lon="7.8593">
        <ele>1116.71</ele>
        <time>2020-12-13T08:41:14Z</time>
      </trkpt>
      <trkpt lat="44.23156" lon="7.85942">
        <ele>1114.79</ele>
        <time>2020-12-13T08:41:29Z</time>
      </trkpt>
      <trkpt lat="44.23167" lon="7.85933">
        <ele>1113.34</ele>
        <time>2020-12-13T08:41:43Z</time>
      </trkpt>
      <trkpt lat="44.23177" lon="7.85927">
        <ele>1115.75</ele>
        <time>2020-12-13T08:41:58Z</time>
      </trkpt>
      <trkpt lat="44.23181" lon="7.85924">
        <ele>1117.19</ele>
        <time>2020-12-13T08:42:15Z</time>
      </trkpt>
      <trkpt lat="44.23187" lon="7.85926">
        <ele>1118.63</ele>
        <time>2020-12-13T08:42:24Z</time>
      </trkpt>
      <trkpt lat="44.23199" lon="7.85923">
        <ele>1120.07</ele>
        <time>2020-12-13T08:42:37Z</time>
      </trkpt>
      <trkpt lat="44.23205" lon="7.85927">
        <ele>1118.15</ele>
        <time>2020-12-13T08:42:53Z</time>
      </trkpt>
      <trkpt lat="44.23194" lon="7.85934">
        <ele>1118.63</ele>
        <time>2020-12-13T08:43:05Z</time>
      </trkpt>
      <trkpt lat="44.23181" lon="7.85942">
        <ele>1121.03</ele>
        <time>2020-12-13T08:43:21Z</time>
      </trkpt>
      <trkpt lat="44.23173" lon="7.85952">
        <ele>1122</ele>
        <time>2020-12-13T08:43:35Z</time>
      </trkpt>
      <trkpt lat="44.23167" lon="7.85965">
        <ele>1123.92</ele>
        <time>2020-12-13T08:43:51Z</time>
      </trkpt>
      <trkpt lat="44.23161" lon="7.85979">
        <ele>1124.88</ele>
        <time>2020-12-13T08:44:08Z</time>
      </trkpt>
      <trkpt lat="44.23156" lon="7.85988">
        <ele>1124.88</ele>
        <time>2020-12-13T08:44:20Z</time>
      </trkpt>
      <trkpt lat="44.23148" lon="7.85998">
        <ele>1126.32</ele>
        <time>2020-12-13T08:44:37Z</time>
      </trkpt>
      <trkpt lat="44.23142" lon="7.86012">
        <ele>1128.73</ele>
        <time>2020-12-13T08:44:52Z</time>
      </trkpt>
      <trkpt lat="44.2314" lon="7.86027">
        <ele>1128.24</ele>
        <time>2020-12-13T08:45:07Z</time>
      </trkpt>
      <trkpt lat="44.23132" lon="7.86042">
        <ele>1132.09</ele>
        <time>2020-12-13T08:45:24Z</time>
      </trkpt>
      <trkpt lat="44.23128" lon="7.86055">
        <ele>1135.45</ele>
        <time>2020-12-13T08:45:39Z</time>
      </trkpt>
      <trkpt lat="44.23121" lon="7.86069">
        <ele>1136.9</ele>
        <time>2020-12-13T08:45:55Z</time>
      </trkpt>
      <trkpt lat="44.23112" lon="7.86077">
        <ele>1139.3</ele>
        <time>2020-12-13T08:46:09Z</time>
      </trkpt>
      <trkpt lat="44.23106" lon="7.86091">
        <ele>1140.26</ele>
        <time>2020-12-13T08:46:24Z</time>
      </trkpt>
      <trkpt lat="44.23098" lon="7.86108">
        <ele>1139.3</ele>
        <time>2020-12-13T08:46:39Z</time>
      </trkpt>
      <trkpt lat="44.23083" lon="7.8612">
        <ele>1139.3</ele>
        <time>2020-12-13T08:46:54Z</time>
      </trkpt>
      <trkpt lat="44.23074" lon="7.86133">
        <ele>1139.3</ele>
        <time>2020-12-13T08:47:07Z</time>
      </trkpt>
      <trkpt lat="44.23071" lon="7.86141">
        <ele>1139.78</ele>
        <time>2020-12-13T08:47:13Z</time>
      </trkpt>
      <trkpt lat="44.2307" lon="7.86159">
        <ele>1140.74</ele>
        <time>2020-12-13T08:47:27Z</time>
      </trkpt>
      <trkpt lat="44.2307" lon="7.86173">
        <ele>1143.14</ele>
        <time>2020-12-13T08:47:40Z</time>
      </trkpt>
      <trkpt lat="44.23071" lon="7.86187">
        <ele>1145.07</ele>
        <time>2020-12-13T08:47:54Z</time>
      </trkpt>
      <trkpt lat="44.23074" lon="7.862">
        <ele>1146.99</ele>
        <time>2020-12-13T08:48:07Z</time>
      </trkpt>
      <trkpt lat="44.23075" lon="7.86214">
        <ele>1150.35</ele>
        <time>2020-12-13T08:48:22Z</time>
      </trkpt>
      <trkpt lat="44.23073" lon="7.86225">
        <ele>1152.28</ele>
        <time>2020-12-13T08:48:34Z</time>
      </trkpt>
      <trkpt lat="44.2307" lon="7.86228">
        <ele>1152.76</ele>
        <time>2020-12-13T08:48:40Z</time>
      </trkpt>
      <trkpt lat="44.23058" lon="7.86227">
        <ele>1156.12</ele>
        <time>2020-12-13T08:48:56Z</time>
      </trkpt>
      <trkpt lat="44.23048" lon="7.86237">
        <ele>1158.05</ele>
        <time>2020-12-13T08:49:13Z</time>
      </trkpt>
      <trkpt lat="44.23047" lon="7.86242">
        <ele>1159.01</ele>
        <time>2020-12-13T08:49:18Z</time>
      </trkpt>
      <trkpt lat="44.23041" lon="7.86257">
        <ele>1162.85</ele>
        <time>2020-12-13T08:49:33Z</time>
      </trkpt>
      <trkpt lat="44.23039" lon="7.86257">
        <ele>1163.33</ele>
        <time>2020-12-13T08:49:37Z</time>
      </trkpt>
      <trkpt lat="44.23034" lon="7.86246">
        <ele>1165.74</ele>
        <time>2020-12-13T08:49:52Z</time>
      </trkpt>
      <trkpt lat="44.23025" lon="7.86253">
        <ele>1168.14</ele>
        <time>2020-12-13T08:50:06Z</time>
      </trkpt>
      <trkpt lat="44.23017" lon="7.86249">
        <ele>1171.98</ele>
        <time>2020-12-13T08:50:25Z</time>
      </trkpt>
      <trkpt lat="44.2301" lon="7.86248">
        <ele>1170.06</ele>
        <time>2020-12-13T08:50:41Z</time>
      </trkpt>
      <trkpt lat="44.23012" lon="7.86249">
        <ele>1175.83</ele>
        <time>2020-12-13T08:51:07Z</time>
      </trkpt>
      <trkpt lat="44.23009" lon="7.86251">
        <ele>1179.19</ele>
        <time>2020-12-13T08:51:26Z</time>
      </trkpt>
      <trkpt lat="44.2301" lon="7.8626">
        <ele>1177.27</ele>
        <time>2020-12-13T08:51:39Z</time>
      </trkpt>
      <trkpt lat="44.23018" lon="7.86262">
        <ele>1178.71</ele>
        <time>2020-12-13T08:52:06Z</time>
      </trkpt>
      <trkpt lat="44.23016" lon="7.86266">
        <ele>1181.12</ele>
        <time>2020-12-13T08:52:33Z</time>
      </trkpt>
      <trkpt lat="44.23011" lon="7.86266">
        <ele>1185.44</ele>
        <time>2020-12-13T08:53:03Z</time>
      </trkpt>
      <trkpt lat="44.23009" lon="7.86266">
        <ele>1189.77</ele>
        <time>2020-12-13T08:53:33Z</time>
      </trkpt>
      <trkpt lat="44.23004" lon="7.86264">
        <ele>1186.4</ele>
        <time>2020-12-13T08:53:52Z</time>
      </trkpt>
      <trkpt lat="44.23013" lon="7.86278">
        <ele>1178.71</ele>
        <time>2020-12-13T08:54:09Z</time>
      </trkpt>
      <trkpt lat="44.2302" lon="7.86292">
        <ele>1172.95</ele>
        <time>2020-12-13T08:54:26Z</time>
      </trkpt>
      <trkpt lat="44.23016" lon="7.86302">
        <ele>1173.91</ele>
        <time>2020-12-13T08:54:42Z</time>
      </trkpt>
      <trkpt lat="44.23016" lon="7.86315">
        <ele>1177.75</ele>
        <time>2020-12-13T08:54:57Z</time>
      </trkpt>
      <trkpt lat="44.23014" lon="7.86323">
        <ele>1180.64</ele>
        <time>2020-12-13T08:55:14Z</time>
      </trkpt>
      <trkpt lat="44.23013" lon="7.8633">
        <ele>1183.04</ele>
        <time>2020-12-13T08:55:29Z</time>
      </trkpt>
      <trkpt lat="44.23011" lon="7.86346">
        <ele>1187.37</ele>
        <time>2020-12-13T08:55:45Z</time>
      </trkpt>
      <trkpt lat="44.23008" lon="7.8636">
        <ele>1190.73</ele>
        <time>2020-12-13T08:56:02Z</time>
      </trkpt>
      <trkpt lat="44.23004" lon="7.86374">
        <ele>1192.17</ele>
        <time>2020-12-13T08:56:19Z</time>
      </trkpt>
      <trkpt lat="44.22996" lon="7.86384">
        <ele>1197.94</ele>
        <time>2020-12-13T08:56:37Z</time>
      </trkpt>
      <trkpt lat="44.22989" lon="7.86393">
        <ele>1197.46</ele>
        <time>2020-12-13T08:56:52Z</time>
      </trkpt>
      <trkpt lat="44.2298" lon="7.8639">
        <ele>1199.86</ele>
        <time>2020-12-13T08:57:10Z</time>
      </trkpt>
      <trkpt lat="44.22977" lon="7.86394">
        <ele>1201.3</ele>
        <time>2020-12-13T08:57:24Z</time>
      </trkpt>
      <trkpt lat="44.22974" lon="7.86408">
        <ele>1205.63</ele>
        <time>2020-12-13T08:57:42Z</time>
      </trkpt>
      <trkpt lat="44.22971" lon="7.86399">
        <ele>1206.11</ele>
        <time>2020-12-13T08:57:53Z</time>
      </trkpt>
      <trkpt lat="44.22966" lon="7.86394">
        <ele>1210.44</ele>
        <time>2020-12-13T08:58:08Z</time>
      </trkpt>
      <trkpt lat="44.22965" lon="7.86405">
        <ele>1211.4</ele>
        <time>2020-12-13T08:58:22Z</time>
      </trkpt>
      <trkpt lat="44.22963" lon="7.86416">
        <ele>1212.36</ele>
        <time>2020-12-13T08:58:37Z</time>
      </trkpt>
      <trkpt lat="44.2296" lon="7.86418">
        <ele>1210.92</ele>
        <time>2020-12-13T08:58:53Z</time>
      </trkpt>
      <trkpt lat="44.22959" lon="7.86404">
        <ele>1210.44</ele>
        <time>2020-12-13T08:59:06Z</time>
      </trkpt>
      <trkpt lat="44.22955" lon="7.86407">
        <ele>1212.84</ele>
        <time>2020-12-13T08:59:21Z</time>
      </trkpt>
      <trkpt lat="44.22948" lon="7.86416">
        <ele>1217.17</ele>
        <time>2020-12-13T08:59:37Z</time>
      </trkpt>
      <trkpt lat="44.22943" lon="7.86427">
        <ele>1220.53</ele>
        <time>2020-12-13T08:59:51Z</time>
      </trkpt>
      <trkpt lat="44.22938" lon="7.86435">
        <ele>1222.93</ele>
        <time>2020-12-13T09:00:05Z</time>
      </trkpt>
      <trkpt lat="44.22934" lon="7.86442">
        <ele>1225.34</ele>
        <time>2020-12-13T09:00:21Z</time>
      </trkpt>
      <trkpt lat="44.22929" lon="7.86452">
        <ele>1227.74</ele>
        <time>2020-12-13T09:00:37Z</time>
      </trkpt>
      <trkpt lat="44.22923" lon="7.86462">
        <ele>1229.18</ele>
        <time>2020-12-13T09:00:54Z</time>
      </trkpt>
      <trkpt lat="44.22917" lon="7.86476">
        <ele>1233.99</ele>
        <time>2020-12-13T09:01:14Z</time>
      </trkpt>
      <trkpt lat="44.22916" lon="7.8647">
        <ele>1233.99</ele>
        <time>2020-12-13T09:01:27Z</time>
      </trkpt>
      <trkpt lat="44.22914" lon="7.86457">
        <ele>1236.87</ele>
        <time>2020-12-13T09:01:43Z</time>
      </trkpt>
      <trkpt lat="44.22907" lon="7.86448">
        <ele>1238.32</ele>
        <time>2020-12-13T09:01:59Z</time>
      </trkpt>
      <trkpt lat="44.22902" lon="7.86455">
        <ele>1237.83</ele>
        <time>2020-12-13T09:02:12Z</time>
      </trkpt>
      <trkpt lat="44.229" lon="7.86469">
        <ele>1241.2</ele>
        <time>2020-12-13T09:02:28Z</time>
      </trkpt>
      <trkpt lat="44.22899" lon="7.86467">
        <ele>1242.64</ele>
        <time>2020-12-13T09:02:47Z</time>
      </trkpt>
      <trkpt lat="44.22896" lon="7.86456">
        <ele>1244.08</ele>
        <time>2020-12-13T09:03:02Z</time>
      </trkpt>
      <trkpt lat="44.22894" lon="7.86461">
        <ele>1245.04</ele>
        <time>2020-12-13T09:03:15Z</time>
      </trkpt>
      <trkpt lat="44.22889" lon="7.86472">
        <ele>1249.37</ele>
        <time>2020-12-13T09:03:29Z</time>
      </trkpt>
      <trkpt lat="44.22886" lon="7.8648">
        <ele>1254.18</ele>
        <time>2020-12-13T09:03:45Z</time>
      </trkpt>
      <trkpt lat="44.22881" lon="7.86492">
        <ele>1257.06</ele>
        <time>2020-12-13T09:04:04Z</time>
      </trkpt>
      <trkpt lat="44.22878" lon="7.86501">
        <ele>1258.02</ele>
        <time>2020-12-13T09:04:20Z</time>
      </trkpt>
      <trkpt lat="44.22874" lon="7.86512">
        <ele>1259.94</ele>
        <time>2020-12-13T09:04:37Z</time>
      </trkpt>
      <trkpt lat="44.22871" lon="7.8652">
        <ele>1262.83</ele>
        <time>2020-12-13T09:04:53Z</time>
      </trkpt>
      <trkpt lat="44.22867" lon="7.86528">
        <ele>1266.19</ele>
        <time>2020-12-13T09:05:08Z</time>
      </trkpt>
      <trkpt lat="44.22865" lon="7.86541">
        <ele>1267.64</ele>
        <time>2020-12-13T09:05:22Z</time>
      </trkpt>
      <trkpt lat="44.22864" lon="7.86555">
        <ele>1270.04</ele>
        <time>2020-12-13T09:05:35Z</time>
      </trkpt>
      <trkpt lat="44.22863" lon="7.86563">
        <ele>1270.04</ele>
        <time>2020-12-13T09:05:49Z</time>
      </trkpt>
      <trkpt lat="44.22862" lon="7.86577">
        <ele>1268.6</ele>
        <time>2020-12-13T09:06:02Z</time>
      </trkpt>
      <trkpt lat="44.22859" lon="7.8659">
        <ele>1269.56</ele>
        <time>2020-12-13T09:06:15Z</time>
      </trkpt>
      <trkpt lat="44.22854" lon="7.86601">
        <ele>1271</ele>
        <time>2020-12-13T09:06:30Z</time>
      </trkpt>
      <trkpt lat="44.22848" lon="7.86613">
        <ele>1272.44</ele>
        <time>2020-12-13T09:06:45Z</time>
      </trkpt>
      <trkpt lat="44.22844" lon="7.86626">
        <ele>1275.33</ele>
        <time>2020-12-13T09:07:01Z</time>
      </trkpt>
      <trkpt lat="44.2284" lon="7.86639">
        <ele>1277.25</ele>
        <time>2020-12-13T09:07:18Z</time>
      </trkpt>
      <trkpt lat="44.22836" lon="7.86654">
        <ele>1280.13</ele>
        <time>2020-12-13T09:07:32Z</time>
      </trkpt>
      <trkpt lat="44.22832" lon="7.86668">
        <ele>1282.54</ele>
        <time>2020-12-13T09:07:47Z</time>
      </trkpt>
      <trkpt lat="44.22826" lon="7.8668">
        <ele>1284.46</ele>
        <time>2020-12-13T09:08:01Z</time>
      </trkpt>
      <trkpt lat="44.22823" lon="7.86693">
        <ele>1283.98</ele>
        <time>2020-12-13T09:08:15Z</time>
      </trkpt>
      <trkpt lat="44.22817" lon="7.86704">
        <ele>1280.13</ele>
        <time>2020-12-13T09:08:31Z</time>
      </trkpt>
      <trkpt lat="44.22814" lon="7.86717">
        <ele>1280.13</ele>
        <time>2020-12-13T09:08:48Z</time>
      </trkpt>
      <trkpt lat="44.22808" lon="7.86727">
        <ele>1283.5</ele>
        <time>2020-12-13T09:09:02Z</time>
      </trkpt>
      <trkpt lat="44.22796" lon="7.86727">
        <ele>1292.15</ele>
        <time>2020-12-13T09:09:20Z</time>
      </trkpt>
      <trkpt lat="44.22791" lon="7.86735">
        <ele>1295.03</ele>
        <time>2020-12-13T09:09:35Z</time>
      </trkpt>
      <trkpt lat="44.22787" lon="7.8674">
        <ele>1297.44</ele>
        <time>2020-12-13T09:09:49Z</time>
      </trkpt>
      <trkpt lat="44.22779" lon="7.86737">
        <ele>1300.8</ele>
        <time>2020-12-13T09:10:04Z</time>
      </trkpt>
      <trkpt lat="44.2277" lon="7.86735">
        <ele>1302.72</ele>
        <time>2020-12-13T09:10:19Z</time>
      </trkpt>
      <trkpt lat="44.22767" lon="7.86743">
        <ele>1304.65</ele>
        <time>2020-12-13T09:10:32Z</time>
      </trkpt>
      <trkpt lat="44.2276" lon="7.86749">
        <ele>1308.01</ele>
        <time>2020-12-13T09:10:48Z</time>
      </trkpt>
      <trkpt lat="44.22757" lon="7.86744">
        <ele>1307.05</ele>
        <time>2020-12-13T09:11:02Z</time>
      </trkpt>
      <trkpt lat="44.22758" lon="7.86733">
        <ele>1308.97</ele>
        <time>2020-12-13T09:11:16Z</time>
      </trkpt>
      <trkpt lat="44.22759" lon="7.86732">
        <ele>1308.97</ele>
        <time>2020-12-13T09:11:18Z</time>
      </trkpt>
      <trkpt lat="44.22764" lon="7.86719">
        <ele>1309.93</ele>
        <time>2020-12-13T09:11:33Z</time>
      </trkpt>
      <trkpt lat="44.22767" lon="7.86707">
        <ele>1311.38</ele>
        <time>2020-12-13T09:11:50Z</time>
      </trkpt>
      <trkpt lat="44.22766" lon="7.86696">
        <ele>1313.3</ele>
        <time>2020-12-13T09:12:07Z</time>
      </trkpt>
      <trkpt lat="44.22762" lon="7.86682">
        <ele>1314.26</ele>
        <time>2020-12-13T09:12:21Z</time>
      </trkpt>
      <trkpt lat="44.22759" lon="7.86675">
        <ele>1314.26</ele>
        <time>2020-12-13T09:12:32Z</time>
      </trkpt>
      <trkpt lat="44.22754" lon="7.8667">
        <ele>1313.78</ele>
        <time>2020-12-13T09:12:44Z</time>
      </trkpt>
      <trkpt lat="44.22752" lon="7.86656">
        <ele>1316.66</ele>
        <time>2020-12-13T09:13:02Z</time>
      </trkpt>
      <trkpt lat="44.22749" lon="7.8664">
        <ele>1322.91</ele>
        <time>2020-12-13T09:13:21Z</time>
      </trkpt>
      <trkpt lat="44.22749" lon="7.86634">
        <ele>1327.72</ele>
        <time>2020-12-13T09:13:36Z</time>
      </trkpt>
      <trkpt lat="44.22747" lon="7.86626">
        <ele>1326.76</ele>
        <time>2020-12-13T09:13:50Z</time>
      </trkpt>
      <trkpt lat="44.22746" lon="7.8662">
        <ele>1329.16</ele>
        <time>2020-12-13T09:14:05Z</time>
      </trkpt>
      <trkpt lat="44.22746" lon="7.86611">
        <ele>1330.6</ele>
        <time>2020-12-13T09:14:20Z</time>
      </trkpt>
      <trkpt lat="44.22743" lon="7.86602">
        <ele>1333.49</ele>
        <time>2020-12-13T09:14:35Z</time>
      </trkpt>
      <trkpt lat="44.2274" lon="7.86591">
        <ele>1337.33</ele>
        <time>2020-12-13T09:14:52Z</time>
      </trkpt>
      <trkpt lat="44.22742" lon="7.86579">
        <ele>1341.66</ele>
        <time>2020-12-13T09:15:07Z</time>
      </trkpt>
      <trkpt lat="44.22743" lon="7.86566">
        <ele>1345.98</ele>
        <time>2020-12-13T09:15:25Z</time>
      </trkpt>
      <trkpt lat="44.22743" lon="7.86558">
        <ele>1348.39</ele>
        <time>2020-12-13T09:15:37Z</time>
      </trkpt>
      <trkpt lat="44.22748" lon="7.86547">
        <ele>1348.87</ele>
        <time>2020-12-13T09:15:54Z</time>
      </trkpt>
      <trkpt lat="44.22748" lon="7.86547">
        <ele>1348.39</ele>
        <time>2020-12-13T09:15:55Z</time>
      </trkpt>
      <trkpt lat="44.22755" lon="7.86535">
        <ele>1344.06</ele>
        <time>2020-12-13T09:16:10Z</time>
      </trkpt>
      <trkpt lat="44.22759" lon="7.86522">
        <ele>1338.29</ele>
        <time>2020-12-13T09:16:26Z</time>
      </trkpt>
      <trkpt lat="44.22754" lon="7.86516">
        <ele>1337.81</ele>
        <time>2020-12-13T09:16:38Z</time>
      </trkpt>
      <trkpt lat="44.22745" lon="7.86514">
        <ele>1343.1</ele>
        <time>2020-12-13T09:16:56Z</time>
      </trkpt>
      <trkpt lat="44.22738" lon="7.86512">
        <ele>1348.87</ele>
        <time>2020-12-13T09:17:10Z</time>
      </trkpt>
      <trkpt lat="44.22732" lon="7.86512">
        <ele>1348.87</ele>
        <time>2020-12-13T09:17:22Z</time>
      </trkpt>
      <trkpt lat="44.22727" lon="7.86512">
        <ele>1351.27</ele>
        <time>2020-12-13T09:17:38Z</time>
      </trkpt>
      <trkpt lat="44.22726" lon="7.86523">
        <ele>1354.15</ele>
        <time>2020-12-13T09:17:54Z</time>
      </trkpt>
      <trkpt lat="44.22719" lon="7.86527">
        <ele>1357.52</ele>
        <time>2020-12-13T09:18:11Z</time>
      </trkpt>
      <trkpt lat="44.22713" lon="7.86527">
        <ele>1360.4</ele>
        <time>2020-12-13T09:18:24Z</time>
      </trkpt>
      <trkpt lat="44.22705" lon="7.86528">
        <ele>1362.81</ele>
        <time>2020-12-13T09:18:41Z</time>
      </trkpt>
      <trkpt lat="44.22699" lon="7.86528">
        <ele>1363.77</ele>
        <time>2020-12-13T09:18:57Z</time>
      </trkpt>
      <trkpt lat="44.22691" lon="7.86525">
        <ele>1365.21</ele>
        <time>2020-12-13T09:19:12Z</time>
      </trkpt>
      <trkpt lat="44.22691" lon="7.86532">
        <ele>1365.69</ele>
        <time>2020-12-13T09:19:23Z</time>
      </trkpt>
      <trkpt lat="44.22691" lon="7.86544">
        <ele>1369.54</ele>
        <time>2020-12-13T09:19:38Z</time>
      </trkpt>
      <trkpt lat="44.22689" lon="7.8655">
        <ele>1369.54</ele>
        <time>2020-12-13T09:19:51Z</time>
      </trkpt>
      <trkpt lat="44.22687" lon="7.86552">
        <ele>1370.98</ele>
        <time>2020-12-13T09:20:08Z</time>
      </trkpt>
      <trkpt lat="44.22682" lon="7.86546">
        <ele>1371.94</ele>
        <time>2020-12-13T09:20:23Z</time>
      </trkpt>
      <trkpt lat="44.22674" lon="7.86542">
        <ele>1374.82</ele>
        <time>2020-12-13T09:20:40Z</time>
      </trkpt>
      <trkpt lat="44.22669" lon="7.86543">
        <ele>1375.3</ele>
        <time>2020-12-13T09:20:52Z</time>
      </trkpt>
      <trkpt lat="44.22663" lon="7.86545">
        <ele>1377.23</ele>
        <time>2020-12-13T09:21:05Z</time>
      </trkpt>
      <trkpt lat="44.22657" lon="7.86545">
        <ele>1380.59</ele>
        <time>2020-12-13T09:21:20Z</time>
      </trkpt>
      <trkpt lat="44.22649" lon="7.86544">
        <ele>1382.99</ele>
        <time>2020-12-13T09:21:35Z</time>
      </trkpt>
      <trkpt lat="44.22655" lon="7.86558">
        <ele>1385.4</ele>
        <time>2020-12-13T09:21:52Z</time>
      </trkpt>
      <trkpt lat="44.22652" lon="7.86566">
        <ele>1382.03</ele>
        <time>2020-12-13T09:22:06Z</time>
      </trkpt>
      <trkpt lat="44.22647" lon="7.86564">
        <ele>1381.55</ele>
        <time>2020-12-13T09:22:19Z</time>
      </trkpt>
      <trkpt lat="44.22646" lon="7.86572">
        <ele>1383.96</ele>
        <time>2020-12-13T09:22:33Z</time>
      </trkpt>
      <trkpt lat="44.22639" lon="7.86567">
        <ele>1386.36</ele>
        <time>2020-12-13T09:22:48Z</time>
      </trkpt>
      <trkpt lat="44.2263" lon="7.8656">
        <ele>1390.68</ele>
        <time>2020-12-13T09:23:06Z</time>
      </trkpt>
      <trkpt lat="44.22629" lon="7.8656">
        <ele>1390.2</ele>
        <time>2020-12-13T09:23:24Z</time>
      </trkpt>
      <trkpt lat="44.22628" lon="7.86567">
        <ele>1393.09</ele>
        <time>2020-12-13T09:23:45Z</time>
      </trkpt>
      <trkpt lat="44.2263" lon="7.86575">
        <ele>1393.57</ele>
        <time>2020-12-13T09:24:01Z</time>
      </trkpt>
      <trkpt lat="44.2263" lon="7.86582">
        <ele>1394.05</ele>
        <time>2020-12-13T09:24:15Z</time>
      </trkpt>
      <trkpt lat="44.22626" lon="7.8658">
        <ele>1392.61</ele>
        <time>2020-12-13T09:24:26Z</time>
      </trkpt>
      <trkpt lat="44.22629" lon="7.86577">
        <ele>1393.57</ele>
        <time>2020-12-13T09:24:43Z</time>
      </trkpt>
      <trkpt lat="44.22627" lon="7.86575">
        <ele>1398.86</ele>
        <time>2020-12-13T09:25:05Z</time>
      </trkpt>
      <trkpt lat="44.22627" lon="7.86573">
        <ele>1408.47</ele>
        <time>2020-12-13T09:25:31Z</time>
      </trkpt>
      <trkpt lat="44.22624" lon="7.86566">
        <ele>1409.43</ele>
        <time>2020-12-13T09:25:45Z</time>
      </trkpt>
      <trkpt lat="44.22615" lon="7.86556">
        <ele>1408.47</ele>
        <time>2020-12-13T09:26:01Z</time>
      </trkpt>
      <trkpt lat="44.22608" lon="7.86545">
        <ele>1408.95</ele>
        <time>2020-12-13T09:26:16Z</time>
      </trkpt>
      <trkpt lat="44.22595" lon="7.86536">
        <ele>1408.47</ele>
        <time>2020-12-13T09:26:32Z</time>
      </trkpt>
      <trkpt lat="44.22595" lon="7.86534">
        <ele>1406.55</ele>
        <time>2020-12-13T09:26:46Z</time>
      </trkpt>
      <trkpt lat="44.22592" lon="7.86533">
        <ele>1406.07</ele>
        <time>2020-12-13T09:27:04Z</time>
      </trkpt>
      <trkpt lat="44.2259" lon="7.8653">
        <ele>1409.43</ele>
        <time>2020-12-13T09:27:19Z</time>
      </trkpt>
      <trkpt lat="44.22588" lon="7.86528">
        <ele>1411.35</ele>
        <time>2020-12-13T09:27:32Z</time>
      </trkpt>
      <trkpt lat="44.22591" lon="7.86527">
        <ele>1414.72</ele>
        <time>2020-12-13T09:27:52Z</time>
      </trkpt>
      <trkpt lat="44.2259" lon="7.86525">
        <ele>1417.12</ele>
        <time>2020-12-13T09:28:10Z</time>
      </trkpt>
      <trkpt lat="44.22587" lon="7.8652">
        <ele>1418.08</ele>
        <time>2020-12-13T09:28:24Z</time>
      </trkpt>
      <trkpt lat="44.22585" lon="7.86517">
        <ele>1415.68</ele>
        <time>2020-12-13T09:28:42Z</time>
      </trkpt>
      <trkpt lat="44.22582" lon="7.86519">
        <ele>1414.72</ele>
        <time>2020-12-13T09:28:54Z</time>
      </trkpt>
      <trkpt lat="44.22573" lon="7.86512">
        <ele>1414.24</ele>
        <time>2020-12-13T09:29:08Z</time>
      </trkpt>
      <trkpt lat="44.22566" lon="7.86501">
        <ele>1413.28</ele>
        <time>2020-12-13T09:29:22Z</time>
      </trkpt>
      <trkpt lat="44.22557" lon="7.86492">
        <ele>1413.28</ele>
        <time>2020-12-13T09:29:35Z</time>
      </trkpt>
      <trkpt lat="44.22545" lon="7.86484">
        <ele>1412.31</ele>
        <time>2020-12-13T09:29:51Z</time>
      </trkpt>
      <trkpt lat="44.22534" lon="7.86476">
        <ele>1414.24</ele>
        <time>2020-12-13T09:30:05Z</time>
      </trkpt>
      <trkpt lat="44.2253" lon="7.86474">
        <ele>1414.24</ele>
        <time>2020-12-13T09:30:11Z</time>
      </trkpt>
      <trkpt lat="44.22519" lon="7.86467">
        <ele>1416.16</ele>
        <time>2020-12-13T09:30:25Z</time>
      </trkpt>
      <trkpt lat="44.22509" lon="7.86466">
        <ele>1416.64</ele>
        <time>2020-12-13T09:30:38Z</time>
      </trkpt>
      <trkpt lat="44.22505" lon="7.86466">
        <ele>1416.64</ele>
        <time>2020-12-13T09:30:43Z</time>
      </trkpt>
      <trkpt lat="44.22493" lon="7.8646">
        <ele>1419.04</ele>
        <time>2020-12-13T09:30:57Z</time>
      </trkpt>
      <trkpt lat="44.2249" lon="7.86451">
        <ele>1419.52</ele>
        <time>2020-12-13T09:31:05Z</time>
      </trkpt>
      <trkpt lat="44.22494" lon="7.8643">
        <ele>1420</ele>
        <time>2020-12-13T09:31:18Z</time>
      </trkpt>
      <trkpt lat="44.22504" lon="7.86412">
        <ele>1420</ele>
        <time>2020-12-13T09:31:33Z</time>
      </trkpt>
      <trkpt lat="44.22507" lon="7.86395">
        <ele>1418.56</ele>
        <time>2020-12-13T09:31:48Z</time>
      </trkpt>
      <trkpt lat="44.22512" lon="7.86375">
        <ele>1414.24</ele>
        <time>2020-12-13T09:32:04Z</time>
      </trkpt>
      <trkpt lat="44.22516" lon="7.86357">
        <ele>1415.68</ele>
        <time>2020-12-13T09:32:19Z</time>
      </trkpt>
      <trkpt lat="44.22522" lon="7.8634">
        <ele>1421.45</ele>
        <time>2020-12-13T09:32:32Z</time>
      </trkpt>
      <trkpt lat="44.2253" lon="7.86325">
        <ele>1423.85</ele>
        <time>2020-12-13T09:32:47Z</time>
      </trkpt>
      <trkpt lat="44.22526" lon="7.86305">
        <ele>1421.93</ele>
        <time>2020-12-13T09:33:04Z</time>
      </trkpt>
      <trkpt lat="44.22521" lon="7.86291">
        <ele>1421.93</ele>
        <time>2020-12-13T09:33:14Z</time>
      </trkpt>
      <trkpt lat="44.22519" lon="7.86286">
        <ele>1420.97</ele>
        <time>2020-12-13T09:33:18Z</time>
      </trkpt>
      <trkpt lat="44.22515" lon="7.86274">
        <ele>1421.93</ele>
        <time>2020-12-13T09:33:29Z</time>
      </trkpt>
      <trkpt lat="44.22508" lon="7.86259">
        <ele>1422.41</ele>
        <time>2020-12-13T09:33:42Z</time>
      </trkpt>
      <trkpt lat="44.22505" lon="7.86252">
        <ele>1423.37</ele>
        <time>2020-12-13T09:33:48Z</time>
      </trkpt>
      <trkpt lat="44.22498" lon="7.86238">
        <ele>1422.89</ele>
        <time>2020-12-13T09:34:02Z</time>
      </trkpt>
      <trkpt lat="44.22493" lon="7.86223">
        <ele>1419.04</ele>
        <time>2020-12-13T09:34:17Z</time>
      </trkpt>
      <trkpt lat="44.22484" lon="7.86209">
        <ele>1421.45</ele>
        <time>2020-12-13T09:34:31Z</time>
      </trkpt>
      <trkpt lat="44.22483" lon="7.86204">
        <ele>1420.49</ele>
        <time>2020-12-13T09:34:35Z</time>
      </trkpt>
      <trkpt lat="44.22478" lon="7.8619">
        <ele>1417.12</ele>
        <time>2020-12-13T09:34:49Z</time>
      </trkpt>
      <trkpt lat="44.22472" lon="7.86179">
        <ele>1417.12</ele>
        <time>2020-12-13T09:35:02Z</time>
      </trkpt>
      <trkpt lat="44.22464" lon="7.86167">
        <ele>1415.2</ele>
        <time>2020-12-13T09:35:17Z</time>
      </trkpt>
      <trkpt lat="44.22461" lon="7.86155">
        <ele>1417.12</ele>
        <time>2020-12-13T09:35:29Z</time>
      </trkpt>
      <trkpt lat="44.22458" lon="7.86137">
        <ele>1420.49</ele>
        <time>2020-12-13T09:35:43Z</time>
      </trkpt>
      <trkpt lat="44.22458" lon="7.86116">
        <ele>1422.89</ele>
        <time>2020-12-13T09:35:59Z</time>
      </trkpt>
      <trkpt lat="44.22458" lon="7.86099">
        <ele>1423.85</ele>
        <time>2020-12-13T09:36:13Z</time>
      </trkpt>
      <trkpt lat="44.22469" lon="7.86083">
        <ele>1423.85</ele>
        <time>2020-12-13T09:36:29Z</time>
      </trkpt>
      <trkpt lat="44.22477" lon="7.86064">
        <ele>1423.37</ele>
        <time>2020-12-13T09:36:45Z</time>
      </trkpt>
      <trkpt lat="44.22483" lon="7.8605">
        <ele>1422.89</ele>
        <time>2020-12-13T09:36:59Z</time>
      </trkpt>
      <trkpt lat="44.22484" lon="7.86035">
        <ele>1424.33</ele>
        <time>2020-12-13T09:37:13Z</time>
      </trkpt>
      <trkpt lat="44.22486" lon="7.86013">
        <ele>1424.81</ele>
        <time>2020-12-13T09:37:28Z</time>
      </trkpt>
      <trkpt lat="44.22491" lon="7.85993">
        <ele>1429.14</ele>
        <time>2020-12-13T09:37:43Z</time>
      </trkpt>
      <trkpt lat="44.22489" lon="7.85974">
        <ele>1431.06</ele>
        <time>2020-12-13T09:37:58Z</time>
      </trkpt>
      <trkpt lat="44.22485" lon="7.85961">
        <ele>1432.5</ele>
        <time>2020-12-13T09:38:10Z</time>
      </trkpt>
      <trkpt lat="44.22479" lon="7.85946">
        <ele>1432.98</ele>
        <time>2020-12-13T09:38:22Z</time>
      </trkpt>
      <trkpt lat="44.22469" lon="7.85932">
        <ele>1433.46</ele>
        <time>2020-12-13T09:38:37Z</time>
      </trkpt>
      <trkpt lat="44.22467" lon="7.85929">
        <ele>1433.94</ele>
        <time>2020-12-13T09:38:41Z</time>
      </trkpt>
      <trkpt lat="44.22457" lon="7.8592">
        <ele>1434.91</ele>
        <time>2020-12-13T09:38:55Z</time>
      </trkpt>
      <trkpt lat="44.22455" lon="7.85918">
        <ele>1434.91</ele>
        <time>2020-12-13T09:38:57Z</time>
      </trkpt>
      <trkpt lat="44.22448" lon="7.85911">
        <ele>1434.91</ele>
        <time>2020-12-13T09:39:08Z</time>
      </trkpt>
      <trkpt lat="44.22435" lon="7.85902">
        <ele>1434.91</ele>
        <time>2020-12-13T09:39:24Z</time>
      </trkpt>
      <trkpt lat="44.22425" lon="7.85891">
        <ele>1435.39</ele>
        <time>2020-12-13T09:39:40Z</time>
      </trkpt>
      <trkpt lat="44.22425" lon="7.85889">
        <ele>1435.39</ele>
        <time>2020-12-13T09:39:42Z</time>
      </trkpt>
      <trkpt lat="44.22419" lon="7.85875">
        <ele>1437.31</ele>
        <time>2020-12-13T09:39:56Z</time>
      </trkpt>
      <trkpt lat="44.22412" lon="7.85862">
        <ele>1438.27</ele>
        <time>2020-12-13T09:40:10Z</time>
      </trkpt>
      <trkpt lat="44.22402" lon="7.85853">
        <ele>1439.71</ele>
        <time>2020-12-13T09:40:23Z</time>
      </trkpt>
      <trkpt lat="44.22391" lon="7.85847">
        <ele>1440.67</ele>
        <time>2020-12-13T09:40:37Z</time>
      </trkpt>
      <trkpt lat="44.22379" lon="7.85841">
        <ele>1442.11</ele>
        <time>2020-12-13T09:40:53Z</time>
      </trkpt>
      <trkpt lat="44.22371" lon="7.85828">
        <ele>1442.6</ele>
        <time>2020-12-13T09:41:08Z</time>
      </trkpt>
      <trkpt lat="44.22364" lon="7.85818">
        <ele>1444.04</ele>
        <time>2020-12-13T09:41:22Z</time>
      </trkpt>
      <trkpt lat="44.22365" lon="7.85814">
        <ele>1444.04</ele>
        <time>2020-12-13T09:41:25Z</time>
      </trkpt>
      <trkpt lat="44.22366" lon="7.85808">
        <ele>1444.04</ele>
        <time>2020-12-13T09:41:30Z</time>
      </trkpt>
      <trkpt lat="44.22367" lon="7.85791">
        <ele>1445.96</ele>
        <time>2020-12-13T09:41:44Z</time>
      </trkpt>
      <trkpt lat="44.22367" lon="7.85775">
        <ele>1445.96</ele>
        <time>2020-12-13T09:41:56Z</time>
      </trkpt>
      <trkpt lat="44.22366" lon="7.8577">
        <ele>1446.92</ele>
        <time>2020-12-13T09:42:00Z</time>
      </trkpt>
      <trkpt lat="44.22366" lon="7.85767">
        <ele>1446.92</ele>
        <time>2020-12-13T09:42:02Z</time>
      </trkpt>
      <trkpt lat="44.22365" lon="7.85764">
        <ele>1447.88</ele>
        <time>2020-12-13T09:42:05Z</time>
      </trkpt>
      <trkpt lat="44.22364" lon="7.85763">
        <ele>1448.36</ele>
        <time>2020-12-13T09:42:19Z</time>
      </trkpt>
      <trkpt lat="44.22365" lon="7.85755">
        <ele>1447.88</ele>
        <time>2020-12-13T09:42:32Z</time>
      </trkpt>
      <trkpt lat="44.22363" lon="7.85746">
        <ele>1448.36</ele>
        <time>2020-12-13T09:42:39Z</time>
      </trkpt>
      <trkpt lat="44.2236" lon="7.85727">
        <ele>1449.32</ele>
        <time>2020-12-13T09:42:54Z</time>
      </trkpt>
      <trkpt lat="44.22362" lon="7.85719">
        <ele>1451.25</ele>
        <time>2020-12-13T09:43:01Z</time>
      </trkpt>
      <trkpt lat="44.22362" lon="7.85715">
        <ele>1451.25</ele>
        <time>2020-12-13T09:43:05Z</time>
      </trkpt>
      <trkpt lat="44.22359" lon="7.85699">
        <ele>1451.25</ele>
        <time>2020-12-13T09:43:17Z</time>
      </trkpt>
      <trkpt lat="44.22361" lon="7.85695">
        <ele>1451.73</ele>
        <time>2020-12-13T09:43:20Z</time>
      </trkpt>
      <trkpt lat="44.22361" lon="7.85691">
        <ele>1452.21</ele>
        <time>2020-12-13T09:43:24Z</time>
      </trkpt>
      <trkpt lat="44.22364" lon="7.8568">
        <ele>1453.65</ele>
        <time>2020-12-13T09:43:33Z</time>
      </trkpt>
      <trkpt lat="44.22365" lon="7.8566">
        <ele>1455.09</ele>
        <time>2020-12-13T09:43:48Z</time>
      </trkpt>
      <trkpt lat="44.2237" lon="7.85645">
        <ele>1454.61</ele>
        <time>2020-12-13T09:44:01Z</time>
      </trkpt>
      <trkpt lat="44.22379" lon="7.8563">
        <ele>1457.5</ele>
        <time>2020-12-13T09:44:17Z</time>
      </trkpt>
      <trkpt lat="44.22384" lon="7.85615">
        <ele>1456.53</ele>
        <time>2020-12-13T09:44:32Z</time>
      </trkpt>
      <trkpt lat="44.2239" lon="7.85598">
        <ele>1456.53</ele>
        <time>2020-12-13T09:44:47Z</time>
      </trkpt>
      <trkpt lat="44.22393" lon="7.85582">
        <ele>1457.98</ele>
        <time>2020-12-13T09:45:02Z</time>
      </trkpt>
      <trkpt lat="44.22396" lon="7.85565">
        <ele>1460.38</ele>
        <time>2020-12-13T09:45:16Z</time>
      </trkpt>
      <trkpt lat="44.22398" lon="7.8555">
        <ele>1460.38</ele>
        <time>2020-12-13T09:45:28Z</time>
      </trkpt>
      <trkpt lat="44.22398" lon="7.85536">
        <ele>1461.34</ele>
        <time>2020-12-13T09:45:41Z</time>
      </trkpt>
      <trkpt lat="44.22396" lon="7.8552">
        <ele>1462.3</ele>
        <time>2020-12-13T09:45:53Z</time>
      </trkpt>
      <trkpt lat="44.22397" lon="7.85504">
        <ele>1463.26</ele>
        <time>2020-12-13T09:46:06Z</time>
      </trkpt>
      <trkpt lat="44.22398" lon="7.85497">
        <ele>1463.74</ele>
        <time>2020-12-13T09:46:12Z</time>
      </trkpt>
      <trkpt lat="44.22396" lon="7.85485">
        <ele>1463.74</ele>
        <time>2020-12-13T09:46:23Z</time>
      </trkpt>
      <trkpt lat="44.22396" lon="7.85478">
        <ele>1463.74</ele>
        <time>2020-12-13T09:46:29Z</time>
      </trkpt>
      <trkpt lat="44.22396" lon="7.85471">
        <ele>1464.71</ele>
        <time>2020-12-13T09:46:35Z</time>
      </trkpt>
      <trkpt lat="44.22397" lon="7.85452">
        <ele>1465.67</ele>
        <time>2020-12-13T09:46:50Z</time>
      </trkpt>
      <trkpt lat="44.22399" lon="7.85438">
        <ele>1466.63</ele>
        <time>2020-12-13T09:47:02Z</time>
      </trkpt>
      <trkpt lat="44.22399" lon="7.85433">
        <ele>1466.63</ele>
        <time>2020-12-13T09:47:07Z</time>
      </trkpt>
      <trkpt lat="44.22401" lon="7.85419">
        <ele>1467.11</ele>
        <time>2020-12-13T09:47:20Z</time>
      </trkpt>
      <trkpt lat="44.22402" lon="7.85403">
        <ele>1468.55</ele>
        <time>2020-12-13T09:47:33Z</time>
      </trkpt>
      <trkpt lat="44.22402" lon="7.85395">
        <ele>1469.51</ele>
        <time>2020-12-13T09:47:40Z</time>
      </trkpt>
      <trkpt lat="44.22403" lon="7.85378">
        <ele>1470.95</ele>
        <time>2020-12-13T09:47:54Z</time>
      </trkpt>
      <trkpt lat="44.22402" lon="7.85364">
        <ele>1471.44</ele>
        <time>2020-12-13T09:48:07Z</time>
      </trkpt>
      <trkpt lat="44.22401" lon="7.85348">
        <ele>1471.92</ele>
        <time>2020-12-13T09:48:21Z</time>
      </trkpt>
      <trkpt lat="44.224" lon="7.85332">
        <ele>1473.36</ele>
        <time>2020-12-13T09:48:36Z</time>
      </trkpt>
      <trkpt lat="44.22391" lon="7.85319">
        <ele>1473.36</ele>
        <time>2020-12-13T09:48:50Z</time>
      </trkpt>
      <trkpt lat="44.22384" lon="7.85305">
        <ele>1472.88</ele>
        <time>2020-12-13T09:49:06Z</time>
      </trkpt>
      <trkpt lat="44.22376" lon="7.85294">
        <ele>1471.44</ele>
        <time>2020-12-13T09:49:21Z</time>
      </trkpt>
      <trkpt lat="44.22371" lon="7.8528">
        <ele>1472.4</ele>
        <time>2020-12-13T09:49:36Z</time>
      </trkpt>
      <trkpt lat="44.22367" lon="7.85264">
        <ele>1473.84</ele>
        <time>2020-12-13T09:49:50Z</time>
      </trkpt>
      <trkpt lat="44.22361" lon="7.85249">
        <ele>1475.28</ele>
        <time>2020-12-13T09:50:05Z</time>
      </trkpt>
      <trkpt lat="44.22356" lon="7.85237">
        <ele>1475.28</ele>
        <time>2020-12-13T09:50:19Z</time>
      </trkpt>
      <trkpt lat="44.22351" lon="7.85221">
        <ele>1476.72</ele>
        <time>2020-12-13T09:50:34Z</time>
      </trkpt>
      <trkpt lat="44.22347" lon="7.85206">
        <ele>1479.13</ele>
        <time>2020-12-13T09:50:49Z</time>
      </trkpt>
      <trkpt lat="44.22342" lon="7.85194">
        <ele>1479.61</ele>
        <time>2020-12-13T09:51:03Z</time>
      </trkpt>
      <trkpt lat="44.22341" lon="7.85176">
        <ele>1482.49</ele>
        <time>2020-12-13T09:51:17Z</time>
      </trkpt>
      <trkpt lat="44.22341" lon="7.85159">
        <ele>1484.89</ele>
        <time>2020-12-13T09:51:32Z</time>
      </trkpt>
      <trkpt lat="44.2234" lon="7.85142">
        <ele>1487.78</ele>
        <time>2020-12-13T09:51:46Z</time>
      </trkpt>
      <trkpt lat="44.22338" lon="7.85124">
        <ele>1491.62</ele>
        <time>2020-12-13T09:52:01Z</time>
      </trkpt>
      <trkpt lat="44.22336" lon="7.8511">
        <ele>1493.06</ele>
        <time>2020-12-13T09:52:15Z</time>
      </trkpt>
      <trkpt lat="44.22331" lon="7.85095">
        <ele>1493.06</ele>
        <time>2020-12-13T09:52:29Z</time>
      </trkpt>
      <trkpt lat="44.22322" lon="7.8508">
        <ele>1494.99</ele>
        <time>2020-12-13T09:52:45Z</time>
      </trkpt>
      <trkpt lat="44.22314" lon="7.85069">
        <ele>1494.51</ele>
        <time>2020-12-13T09:52:59Z</time>
      </trkpt>
      <trkpt lat="44.22304" lon="7.85059">
        <ele>1494.03</ele>
        <time>2020-12-13T09:53:14Z</time>
      </trkpt>
      <trkpt lat="44.22298" lon="7.85056">
        <ele>1494.99</ele>
        <time>2020-12-13T09:53:31Z</time>
      </trkpt>
      <trkpt lat="44.22297" lon="7.85053">
        <ele>1496.91</ele>
        <time>2020-12-13T09:53:48Z</time>
      </trkpt>
      <trkpt lat="44.22296" lon="7.85051">
        <ele>1497.87</ele>
        <time>2020-12-13T09:54:05Z</time>
      </trkpt>
      <trkpt lat="44.22296" lon="7.85051">
        <ele>1501.72</ele>
        <time>2020-12-13T09:54:23Z</time>
      </trkpt>
      <trkpt lat="44.22295" lon="7.85053">
        <ele>1505.08</ele>
        <time>2020-12-13T09:54:45Z</time>
      </trkpt>
      <trkpt lat="44.22295" lon="7.85051">
        <ele>1506.04</ele>
        <time>2020-12-13T09:54:59Z</time>
      </trkpt>
      <trkpt lat="44.22298" lon="7.8505">
        <ele>1505.56</ele>
        <time>2020-12-13T09:55:10Z</time>
      </trkpt>
      <trkpt lat="44.22299" lon="7.85049">
        <ele>1505.56</ele>
        <time>2020-12-13T09:55:50Z</time>
      </trkpt>
      <trkpt lat="44.22302" lon="7.85045">
        <ele>1509.41</ele>
        <time>2020-12-13T09:56:26Z</time>
      </trkpt>
      <trkpt lat="44.22298" lon="7.8505">
        <ele>1504.12</ele>
        <time>2020-12-13T09:57:12Z</time>
      </trkpt>
      <trkpt lat="44.223" lon="7.8505">
        <ele>1504.6</ele>
        <time>2020-12-13T09:57:46Z</time>
      </trkpt>
      <trkpt lat="44.22299" lon="7.85053">
        <ele>1507.48</ele>
        <time>2020-12-13T09:58:26Z</time>
      </trkpt>
      <trkpt lat="44.22303" lon="7.85048">
        <ele>1507.48</ele>
        <time>2020-12-13T09:59:01Z</time>
      </trkpt>
      <trkpt lat="44.223" lon="7.85046">
        <ele>1507</ele>
        <time>2020-12-13T09:59:43Z</time>
      </trkpt>
      <trkpt lat="44.22299" lon="7.8505">
        <ele>1511.81</ele>
        <time>2020-12-13T10:00:09Z</time>
      </trkpt>
      <trkpt lat="44.22297" lon="7.85047">
        <ele>1512.29</ele>
        <time>2020-12-13T10:00:38Z</time>
      </trkpt>
      <trkpt lat="44.22295" lon="7.85049">
        <ele>1515.66</ele>
        <time>2020-12-13T10:01:01Z</time>
      </trkpt>
      <trkpt lat="44.22294" lon="7.8505">
        <ele>1519.02</ele>
        <time>2020-12-13T10:01:16Z</time>
      </trkpt>
      <trkpt lat="44.22293" lon="7.85052">
        <ele>1519.5</ele>
        <time>2020-12-13T10:01:32Z</time>
      </trkpt>
      <trkpt lat="44.22292" lon="7.85051">
        <ele>1520.46</ele>
        <time>2020-12-13T10:01:52Z</time>
      </trkpt>
      <trkpt lat="44.22293" lon="7.85056">
        <ele>1520.94</ele>
        <time>2020-12-13T10:02:04Z</time>
      </trkpt>
      <trkpt lat="44.22294" lon="7.85065">
        <ele>1520.94</ele>
        <time>2020-12-13T10:02:16Z</time>
      </trkpt>
      <trkpt lat="44.22294" lon="7.85079">
        <ele>1521.9</ele>
        <time>2020-12-13T10:02:32Z</time>
      </trkpt>
      <trkpt lat="44.22292" lon="7.85091">
        <ele>1523.83</ele>
        <time>2020-12-13T10:02:48Z</time>
      </trkpt>
      <trkpt lat="44.22288" lon="7.85105">
        <ele>1523.35</ele>
        <time>2020-12-13T10:03:01Z</time>
      </trkpt>
      <trkpt lat="44.22286" lon="7.85109">
        <ele>1525.75</ele>
        <time>2020-12-13T10:03:17Z</time>
      </trkpt>
      <trkpt lat="44.22281" lon="7.85118">
        <ele>1526.23</ele>
        <time>2020-12-13T10:03:35Z</time>
      </trkpt>
      <trkpt lat="44.22279" lon="7.85127">
        <ele>1526.23</ele>
        <time>2020-12-13T10:03:49Z</time>
      </trkpt>
      <trkpt lat="44.22276" lon="7.85135">
        <ele>1527.19</ele>
        <time>2020-12-13T10:04:03Z</time>
      </trkpt>
      <trkpt lat="44.22271" lon="7.85148">
        <ele>1528.15</ele>
        <time>2020-12-13T10:04:17Z</time>
      </trkpt>
      <trkpt lat="44.22266" lon="7.85157">
        <ele>1533.44</ele>
        <time>2020-12-13T10:04:34Z</time>
      </trkpt>
      <trkpt lat="44.22263" lon="7.85164">
        <ele>1535.36</ele>
        <time>2020-12-13T10:04:47Z</time>
      </trkpt>
      <trkpt lat="44.2226" lon="7.85175">
        <ele>1537.77</ele>
        <time>2020-12-13T10:05:06Z</time>
      </trkpt>
      <trkpt lat="44.22257" lon="7.85189">
        <ele>1540.65</ele>
        <time>2020-12-13T10:05:24Z</time>
      </trkpt>
      <trkpt lat="44.22254" lon="7.852">
        <ele>1543.53</ele>
        <time>2020-12-13T10:05:41Z</time>
      </trkpt>
      <trkpt lat="44.22251" lon="7.85211">
        <ele>1544.98</ele>
        <time>2020-12-13T10:05:55Z</time>
      </trkpt>
      <trkpt lat="44.22246" lon="7.85226">
        <ele>1546.42</ele>
        <time>2020-12-13T10:06:12Z</time>
      </trkpt>
      <trkpt lat="44.22243" lon="7.85241">
        <ele>1546.9</ele>
        <time>2020-12-13T10:06:28Z</time>
      </trkpt>
      <trkpt lat="44.2224" lon="7.85255">
        <ele>1548.82</ele>
        <time>2020-12-13T10:06:48Z</time>
      </trkpt>
      <trkpt lat="44.22236" lon="7.85266">
        <ele>1549.3</ele>
        <time>2020-12-13T10:07:02Z</time>
      </trkpt>
      <trkpt lat="44.22232" lon="7.8528">
        <ele>1545.94</ele>
        <time>2020-12-13T10:07:17Z</time>
      </trkpt>
      <trkpt lat="44.22229" lon="7.8529">
        <ele>1550.74</ele>
        <time>2020-12-13T10:07:32Z</time>
      </trkpt>
      <trkpt lat="44.22225" lon="7.853">
        <ele>1556.99</ele>
        <time>2020-12-13T10:07:47Z</time>
      </trkpt>
      <trkpt lat="44.22225" lon="7.85309">
        <ele>1559.88</ele>
        <time>2020-12-13T10:08:03Z</time>
      </trkpt>
      <trkpt lat="44.22221" lon="7.85326">
        <ele>1562.28</ele>
        <time>2020-12-13T10:08:22Z</time>
      </trkpt>
      <trkpt lat="44.22214" lon="7.85339">
        <ele>1563.24</ele>
        <time>2020-12-13T10:08:39Z</time>
      </trkpt>
      <trkpt lat="44.22211" lon="7.85356">
        <ele>1554.11</ele>
        <time>2020-12-13T10:08:55Z</time>
      </trkpt>
      <trkpt lat="44.22207" lon="7.85371">
        <ele>1551.22</ele>
        <time>2020-12-13T10:09:12Z</time>
      </trkpt>
      <trkpt lat="44.22205" lon="7.85383">
        <ele>1550.26</ele>
        <time>2020-12-13T10:09:29Z</time>
      </trkpt>
      <trkpt lat="44.22204" lon="7.85386">
        <ele>1551.71</ele>
        <time>2020-12-13T10:09:43Z</time>
      </trkpt>
      <trkpt lat="44.22204" lon="7.85393">
        <ele>1551.71</ele>
        <time>2020-12-13T10:09:55Z</time>
      </trkpt>
      <trkpt lat="44.22204" lon="7.85404">
        <ele>1551.71</ele>
        <time>2020-12-13T10:10:11Z</time>
      </trkpt>
      <trkpt lat="44.22204" lon="7.85414">
        <ele>1551.71</ele>
        <time>2020-12-13T10:10:24Z</time>
      </trkpt>
      <trkpt lat="44.22203" lon="7.85425">
        <ele>1555.07</ele>
        <time>2020-12-13T10:10:38Z</time>
      </trkpt>
      <trkpt lat="44.22203" lon="7.85434">
        <ele>1555.07</ele>
        <time>2020-12-13T10:10:50Z</time>
      </trkpt>
      <trkpt lat="44.22205" lon="7.85448">
        <ele>1555.07</ele>
        <time>2020-12-13T10:11:06Z</time>
      </trkpt>
      <trkpt lat="44.22205" lon="7.8545">
        <ele>1556.03</ele>
        <time>2020-12-13T10:11:08Z</time>
      </trkpt>
      <trkpt lat="44.22205" lon="7.85467">
        <ele>1557.95</ele>
        <time>2020-12-13T10:11:26Z</time>
      </trkpt>
      <trkpt lat="44.22203" lon="7.85482">
        <ele>1559.4</ele>
        <time>2020-12-13T10:11:41Z</time>
      </trkpt>
      <trkpt lat="44.222" lon="7.85496">
        <ele>1561.32</ele>
        <time>2020-12-13T10:11:57Z</time>
      </trkpt>
      <trkpt lat="44.22196" lon="7.85509">
        <ele>1562.76</ele>
        <time>2020-12-13T10:12:11Z</time>
      </trkpt>
      <trkpt lat="44.2219" lon="7.8552">
        <ele>1565.16</ele>
        <time>2020-12-13T10:12:26Z</time>
      </trkpt>
      <trkpt lat="44.22187" lon="7.85528">
        <ele>1568.05</ele>
        <time>2020-12-13T10:12:41Z</time>
      </trkpt>
      <trkpt lat="44.22186" lon="7.85526">
        <ele>1569.01</ele>
        <time>2020-12-13T10:13:04Z</time>
      </trkpt>
      <trkpt lat="44.22187" lon="7.85526">
        <ele>1569.01</ele>
        <time>2020-12-13T10:13:22Z</time>
      </trkpt>
      <trkpt lat="44.22186" lon="7.85526">
        <ele>1568.53</ele>
        <time>2020-12-13T10:13:38Z</time>
      </trkpt>
      <trkpt lat="44.22186" lon="7.85531">
        <ele>1566.12</ele>
        <time>2020-12-13T10:13:56Z</time>
      </trkpt>
      <trkpt lat="44.22184" lon="7.85536">
        <ele>1564.68</ele>
        <time>2020-12-13T10:14:17Z</time>
      </trkpt>
      <trkpt lat="44.22183" lon="7.85546">
        <ele>1565.64</ele>
        <time>2020-12-13T10:14:30Z</time>
      </trkpt>
      <trkpt lat="44.22182" lon="7.85553">
        <ele>1564.68</ele>
        <time>2020-12-13T10:14:46Z</time>
      </trkpt>
      <trkpt lat="44.22176" lon="7.85572">
        <ele>1565.16</ele>
        <time>2020-12-13T10:15:01Z</time>
      </trkpt>
      <trkpt lat="44.2217" lon="7.85587">
        <ele>1565.64</ele>
        <time>2020-12-13T10:15:16Z</time>
      </trkpt>
      <trkpt lat="44.22163" lon="7.85608">
        <ele>1565.16</ele>
        <time>2020-12-13T10:15:33Z</time>
      </trkpt>
      <trkpt lat="44.22158" lon="7.85629">
        <ele>1566.12</ele>
        <time>2020-12-13T10:15:50Z</time>
      </trkpt>
      <trkpt lat="44.22153" lon="7.85647">
        <ele>1566.61</ele>
        <time>2020-12-13T10:16:06Z</time>
      </trkpt>
      <trkpt lat="44.22148" lon="7.85661">
        <ele>1568.05</ele>
        <time>2020-12-13T10:16:22Z</time>
      </trkpt>
      <trkpt lat="44.22143" lon="7.85675">
        <ele>1571.89</ele>
        <time>2020-12-13T10:16:38Z</time>
      </trkpt>
      <trkpt lat="44.22139" lon="7.85687">
        <ele>1574.3</ele>
        <time>2020-12-13T10:16:55Z</time>
      </trkpt>
      <trkpt lat="44.22134" lon="7.85701">
        <ele>1575.74</ele>
        <time>2020-12-13T10:17:11Z</time>
      </trkpt>
      <trkpt lat="44.22129" lon="7.85711">
        <ele>1580.54</ele>
        <time>2020-12-13T10:17:25Z</time>
      </trkpt>
      <trkpt lat="44.22126" lon="7.85718">
        <ele>1580.06</ele>
        <time>2020-12-13T10:17:40Z</time>
      </trkpt>
      <trkpt lat="44.22122" lon="7.8573">
        <ele>1580.54</ele>
        <time>2020-12-13T10:17:57Z</time>
      </trkpt>
      <trkpt lat="44.2212" lon="7.85735">
        <ele>1581.03</ele>
        <time>2020-12-13T10:18:12Z</time>
      </trkpt>
      <trkpt lat="44.22118" lon="7.85747">
        <ele>1581.03</ele>
        <time>2020-12-13T10:18:28Z</time>
      </trkpt>
      <trkpt lat="44.22114" lon="7.85762">
        <ele>1584.39</ele>
        <time>2020-12-13T10:18:46Z</time>
      </trkpt>
      <trkpt lat="44.22111" lon="7.85775">
        <ele>1585.83</ele>
        <time>2020-12-13T10:19:03Z</time>
      </trkpt>
      <trkpt lat="44.22107" lon="7.85787">
        <ele>1587.27</ele>
        <time>2020-12-13T10:19:18Z</time>
      </trkpt>
      <trkpt lat="44.22103" lon="7.85801">
        <ele>1589.68</ele>
        <time>2020-12-13T10:19:35Z</time>
      </trkpt>
      <trkpt lat="44.22098" lon="7.85814">
        <ele>1590.16</ele>
        <time>2020-12-13T10:19:50Z</time>
      </trkpt>
      <trkpt lat="44.22095" lon="7.85825">
        <ele>1592.56</ele>
        <time>2020-12-13T10:20:04Z</time>
      </trkpt>
      <trkpt lat="44.22092" lon="7.85839">
        <ele>1595.45</ele>
        <time>2020-12-13T10:20:20Z</time>
      </trkpt>
      <trkpt lat="44.2209" lon="7.85849">
        <ele>1594.48</ele>
        <time>2020-12-13T10:20:35Z</time>
      </trkpt>
      <trkpt lat="44.22085" lon="7.85861">
        <ele>1596.89</ele>
        <time>2020-12-13T10:20:56Z</time>
      </trkpt>
      <trkpt lat="44.2208" lon="7.85872">
        <ele>1600.73</ele>
        <time>2020-12-13T10:21:12Z</time>
      </trkpt>
      <trkpt lat="44.22075" lon="7.85885">
        <ele>1603.62</ele>
        <time>2020-12-13T10:21:27Z</time>
      </trkpt>
      <trkpt lat="44.22075" lon="7.85897">
        <ele>1607.46</ele>
        <time>2020-12-13T10:21:45Z</time>
      </trkpt>
      <trkpt lat="44.22072" lon="7.8591">
        <ele>1611.31</ele>
        <time>2020-12-13T10:22:05Z</time>
      </trkpt>
      <trkpt lat="44.22067" lon="7.85925">
        <ele>1614.67</ele>
        <time>2020-12-13T10:22:28Z</time>
      </trkpt>
      <trkpt lat="44.22063" lon="7.85936">
        <ele>1615.15</ele>
        <time>2020-12-13T10:22:42Z</time>
      </trkpt>
      <trkpt lat="44.22064" lon="7.85939">
        <ele>1615.63</ele>
        <time>2020-12-13T10:23:00Z</time>
      </trkpt>
      <trkpt lat="44.22059" lon="7.8595">
        <ele>1616.59</ele>
        <time>2020-12-13T10:23:14Z</time>
      </trkpt>
      <trkpt lat="44.22054" lon="7.85962">
        <ele>1619.96</ele>
        <time>2020-12-13T10:23:34Z</time>
      </trkpt>
      <trkpt lat="44.22049" lon="7.85973">
        <ele>1621.4</ele>
        <time>2020-12-13T10:23:50Z</time>
      </trkpt>
      <trkpt lat="44.22048" lon="7.85984">
        <ele>1621.88</ele>
        <time>2020-12-13T10:24:06Z</time>
      </trkpt>
      <trkpt lat="44.22047" lon="7.85995">
        <ele>1623.8</ele>
        <time>2020-12-13T10:24:21Z</time>
      </trkpt>
      <trkpt lat="44.22042" lon="7.86003">
        <ele>1625.25</ele>
        <time>2020-12-13T10:24:38Z</time>
      </trkpt>
      <trkpt lat="44.2204" lon="7.86013">
        <ele>1627.17</ele>
        <time>2020-12-13T10:24:54Z</time>
      </trkpt>
      <trkpt lat="44.22037" lon="7.86023">
        <ele>1629.57</ele>
        <time>2020-12-13T10:25:09Z</time>
      </trkpt>
      <trkpt lat="44.22035" lon="7.86033">
        <ele>1630.05</ele>
        <time>2020-12-13T10:25:27Z</time>
      </trkpt>
      <trkpt lat="44.22035" lon="7.86048">
        <ele>1633.9</ele>
        <time>2020-12-13T10:25:47Z</time>
      </trkpt>
      <trkpt lat="44.22035" lon="7.86061">
        <ele>1634.86</ele>
        <time>2020-12-13T10:26:01Z</time>
      </trkpt>
      <trkpt lat="44.22035" lon="7.86071">
        <ele>1635.34</ele>
        <time>2020-12-13T10:26:21Z</time>
      </trkpt>
      <trkpt lat="44.22036" lon="7.86083">
        <ele>1637.26</ele>
        <time>2020-12-13T10:26:38Z</time>
      </trkpt>
      <trkpt lat="44.22036" lon="7.86095">
        <ele>1637.74</ele>
        <time>2020-12-13T10:26:51Z</time>
      </trkpt>
      <trkpt lat="44.22035" lon="7.86104">
        <ele>1640.15</ele>
        <time>2020-12-13T10:27:06Z</time>
      </trkpt>
      <trkpt lat="44.22031" lon="7.86111">
        <ele>1641.59</ele>
        <time>2020-12-13T10:27:21Z</time>
      </trkpt>
      <trkpt lat="44.22023" lon="7.86113">
        <ele>1644.95</ele>
        <time>2020-12-13T10:27:39Z</time>
      </trkpt>
      <trkpt lat="44.22016" lon="7.86118">
        <ele>1647.84</ele>
        <time>2020-12-13T10:27:53Z</time>
      </trkpt>
      <trkpt lat="44.22006" lon="7.86123">
        <ele>1649.28</ele>
        <time>2020-12-13T10:28:12Z</time>
      </trkpt>
      <trkpt lat="44.22002" lon="7.86135">
        <ele>1647.84</ele>
        <time>2020-12-13T10:28:28Z</time>
      </trkpt>
      <trkpt lat="44.21999" lon="7.86147">
        <ele>1650.24</ele>
        <time>2020-12-13T10:28:45Z</time>
      </trkpt>
      <trkpt lat="44.21996" lon="7.86157">
        <ele>1651.68</ele>
        <time>2020-12-13T10:28:59Z</time>
      </trkpt>
      <trkpt lat="44.21992" lon="7.86167">
        <ele>1650.72</ele>
        <time>2020-12-13T10:29:14Z</time>
      </trkpt>
      <trkpt lat="44.21989" lon="7.86175">
        <ele>1654.09</ele>
        <time>2020-12-13T10:29:32Z</time>
      </trkpt>
      <trkpt lat="44.21988" lon="7.8618">
        <ele>1655.05</ele>
        <time>2020-12-13T10:29:48Z</time>
      </trkpt>
      <trkpt lat="44.21986" lon="7.8619">
        <ele>1656.97</ele>
        <time>2020-12-13T10:30:03Z</time>
      </trkpt>
      <trkpt lat="44.21984" lon="7.862">
        <ele>1658.89</ele>
        <time>2020-12-13T10:30:18Z</time>
      </trkpt>
      <trkpt lat="44.2198" lon="7.86211">
        <ele>1660.33</ele>
        <time>2020-12-13T10:30:35Z</time>
      </trkpt>
      <trkpt lat="44.21977" lon="7.8622">
        <ele>1662.74</ele>
        <time>2020-12-13T10:30:51Z</time>
      </trkpt>
      <trkpt lat="44.21976" lon="7.86228">
        <ele>1663.22</ele>
        <time>2020-12-13T10:31:06Z</time>
      </trkpt>
      <trkpt lat="44.21974" lon="7.86237">
        <ele>1664.18</ele>
        <time>2020-12-13T10:31:22Z</time>
      </trkpt>
      <trkpt lat="44.21971" lon="7.86249">
        <ele>1663.7</ele>
        <time>2020-12-13T10:31:36Z</time>
      </trkpt>
      <trkpt lat="44.21968" lon="7.86262">
        <ele>1668.51</ele>
        <time>2020-12-13T10:31:56Z</time>
      </trkpt>
      <trkpt lat="44.21965" lon="7.86271">
        <ele>1669.47</ele>
        <time>2020-12-13T10:32:12Z</time>
      </trkpt>
      <trkpt lat="44.21963" lon="7.86282">
        <ele>1670.43</ele>
        <time>2020-12-13T10:32:26Z</time>
      </trkpt>
      <trkpt lat="44.21962" lon="7.86289">
        <ele>1670.91</ele>
        <time>2020-12-13T10:32:41Z</time>
      </trkpt>
      <trkpt lat="44.21962" lon="7.86294">
        <ele>1672.83</ele>
        <time>2020-12-13T10:32:55Z</time>
      </trkpt>
      <trkpt lat="44.21961" lon="7.863">
        <ele>1673.31</ele>
        <time>2020-12-13T10:33:09Z</time>
      </trkpt>
      <trkpt lat="44.2196" lon="7.86307">
        <ele>1675.23</ele>
        <time>2020-12-13T10:33:25Z</time>
      </trkpt>
      <trkpt lat="44.21957" lon="7.86319">
        <ele>1678.6</ele>
        <time>2020-12-13T10:33:42Z</time>
      </trkpt>
      <trkpt lat="44.21956" lon="7.86329">
        <ele>1680.04</ele>
        <time>2020-12-13T10:33:58Z</time>
      </trkpt>
      <trkpt lat="44.21954" lon="7.86339">
        <ele>1681.48</ele>
        <time>2020-12-13T10:34:13Z</time>
      </trkpt>
      <trkpt lat="44.21953" lon="7.86346">
        <ele>1683.41</ele>
        <time>2020-12-13T10:34:30Z</time>
      </trkpt>
      <trkpt lat="44.2195" lon="7.86353">
        <ele>1683.41</ele>
        <time>2020-12-13T10:34:47Z</time>
      </trkpt>
      <trkpt lat="44.21948" lon="7.86365">
        <ele>1685.81</ele>
        <time>2020-12-13T10:35:04Z</time>
      </trkpt>
      <trkpt lat="44.21944" lon="7.8638">
        <ele>1688.69</ele>
        <time>2020-12-13T10:35:22Z</time>
      </trkpt>
      <trkpt lat="44.21943" lon="7.86385">
        <ele>1688.69</ele>
        <time>2020-12-13T10:35:38Z</time>
      </trkpt>
      <trkpt lat="44.21942" lon="7.86395">
        <ele>1691.1</ele>
        <time>2020-12-13T10:35:53Z</time>
      </trkpt>
      <trkpt lat="44.2194" lon="7.86409">
        <ele>1692.06</ele>
        <time>2020-12-13T10:36:08Z</time>
      </trkpt>
      <trkpt lat="44.21938" lon="7.86419">
        <ele>1693.5</ele>
        <time>2020-12-13T10:36:22Z</time>
      </trkpt>
      <trkpt lat="44.21936" lon="7.86434">
        <ele>1694.94</ele>
        <time>2020-12-13T10:36:41Z</time>
      </trkpt>
      <trkpt lat="44.21931" lon="7.86446">
        <ele>1695.42</ele>
        <time>2020-12-13T10:36:57Z</time>
      </trkpt>
      <trkpt lat="44.21928" lon="7.86457">
        <ele>1697.83</ele>
        <time>2020-12-13T10:37:11Z</time>
      </trkpt>
      <trkpt lat="44.21927" lon="7.86468">
        <ele>1698.31</ele>
        <time>2020-12-13T10:37:26Z</time>
      </trkpt>
      <trkpt lat="44.21924" lon="7.86477">
        <ele>1700.71</ele>
        <time>2020-12-13T10:37:46Z</time>
      </trkpt>
      <trkpt lat="44.2192" lon="7.86492">
        <ele>1704.55</ele>
        <time>2020-12-13T10:38:08Z</time>
      </trkpt>
      <trkpt lat="44.21916" lon="7.86504">
        <ele>1706.96</ele>
        <time>2020-12-13T10:38:26Z</time>
      </trkpt>
      <trkpt lat="44.21911" lon="7.86517">
        <ele>1706</ele>
        <time>2020-12-13T10:38:44Z</time>
      </trkpt>
      <trkpt lat="44.21909" lon="7.86526">
        <ele>1707.44</ele>
        <time>2020-12-13T10:39:05Z</time>
      </trkpt>
      <trkpt lat="44.21903" lon="7.86539">
        <ele>1709.36</ele>
        <time>2020-12-13T10:39:20Z</time>
      </trkpt>
      <trkpt lat="44.21899" lon="7.86548">
        <ele>1711.76</ele>
        <time>2020-12-13T10:39:38Z</time>
      </trkpt>
      <trkpt lat="44.21894" lon="7.86558">
        <ele>1711.28</ele>
        <time>2020-12-13T10:39:52Z</time>
      </trkpt>
      <trkpt lat="44.2189" lon="7.86567">
        <ele>1710.8</ele>
        <time>2020-12-13T10:40:07Z</time>
      </trkpt>
      <trkpt lat="44.21887" lon="7.86576">
        <ele>1711.28</ele>
        <time>2020-12-13T10:40:21Z</time>
      </trkpt>
      <trkpt lat="44.21885" lon="7.86581">
        <ele>1712.73</ele>
        <time>2020-12-13T10:40:44Z</time>
      </trkpt>
      <trkpt lat="44.21883" lon="7.86589">
        <ele>1715.61</ele>
        <time>2020-12-13T10:41:00Z</time>
      </trkpt>
      <trkpt lat="44.21882" lon="7.86597">
        <ele>1718.01</ele>
        <time>2020-12-13T10:41:16Z</time>
      </trkpt>
      <trkpt lat="44.21881" lon="7.86604">
        <ele>1718.97</ele>
        <time>2020-12-13T10:41:32Z</time>
      </trkpt>
      <trkpt lat="44.21883" lon="7.86608">
        <ele>1719.94</ele>
        <time>2020-12-13T10:41:44Z</time>
      </trkpt>
      <trkpt lat="44.21887" lon="7.86606">
        <ele>1719.94</ele>
        <time>2020-12-13T10:41:57Z</time>
      </trkpt>
      <trkpt lat="44.21886" lon="7.8661">
        <ele>1720.42</ele>
        <time>2020-12-13T10:42:19Z</time>
      </trkpt>
      <trkpt lat="44.21882" lon="7.86612">
        <ele>1719.94</ele>
        <time>2020-12-13T10:42:36Z</time>
      </trkpt>
      <trkpt lat="44.21884" lon="7.86611">
        <ele>1718.97</ele>
        <time>2020-12-13T10:42:49Z</time>
      </trkpt>
      <trkpt lat="44.21886" lon="7.8661">
        <ele>1720.9</ele>
        <time>2020-12-13T10:43:25Z</time>
      </trkpt>
      <trkpt lat="44.21888" lon="7.86607">
        <ele>1722.82</ele>
        <time>2020-12-13T10:43:53Z</time>
      </trkpt>
      <trkpt lat="44.21884" lon="7.86607">
        <ele>1720.9</ele>
        <time>2020-12-13T10:44:13Z</time>
      </trkpt>
      <trkpt lat="44.21879" lon="7.86614">
        <ele>1720.42</ele>
        <time>2020-12-13T10:44:29Z</time>
      </trkpt>
      <trkpt lat="44.21876" lon="7.86617">
        <ele>1721.38</ele>
        <time>2020-12-13T10:44:35Z</time>
      </trkpt>
      <trkpt lat="44.21866" lon="7.86627">
        <ele>1721.86</ele>
        <time>2020-12-13T10:44:50Z</time>
      </trkpt>
      <trkpt lat="44.21862" lon="7.8664">
        <ele>1723.78</ele>
        <time>2020-12-13T10:45:06Z</time>
      </trkpt>
      <trkpt lat="44.2186" lon="7.86648">
        <ele>1726.18</ele>
        <time>2020-12-13T10:45:21Z</time>
      </trkpt>
      <trkpt lat="44.21856" lon="7.86662">
        <ele>1725.22</ele>
        <time>2020-12-13T10:45:38Z</time>
      </trkpt>
      <trkpt lat="44.21852" lon="7.86673">
        <ele>1727.63</ele>
        <time>2020-12-13T10:45:56Z</time>
      </trkpt>
      <trkpt lat="44.2185" lon="7.86682">
        <ele>1729.55</ele>
        <time>2020-12-13T10:46:14Z</time>
      </trkpt>
      <trkpt lat="44.21848" lon="7.86691">
        <ele>1730.51</ele>
        <time>2020-12-13T10:46:32Z</time>
      </trkpt>
      <trkpt lat="44.21844" lon="7.867">
        <ele>1730.03</ele>
        <time>2020-12-13T10:46:47Z</time>
      </trkpt>
      <trkpt lat="44.21843" lon="7.86712">
        <ele>1731.47</ele>
        <time>2020-12-13T10:47:04Z</time>
      </trkpt>
      <trkpt lat="44.2184" lon="7.86725">
        <ele>1733.39</ele>
        <time>2020-12-13T10:47:21Z</time>
      </trkpt>
      <trkpt lat="44.21838" lon="7.86737">
        <ele>1734.36</ele>
        <time>2020-12-13T10:47:38Z</time>
      </trkpt>
      <trkpt lat="44.21837" lon="7.8675">
        <ele>1738.2</ele>
        <time>2020-12-13T10:47:58Z</time>
      </trkpt>
      <trkpt lat="44.21836" lon="7.86767">
        <ele>1740.6</ele>
        <time>2020-12-13T10:48:19Z</time>
      </trkpt>
      <trkpt lat="44.21834" lon="7.86779">
        <ele>1741.57</ele>
        <time>2020-12-13T10:48:37Z</time>
      </trkpt>
      <trkpt lat="44.21833" lon="7.86786">
        <ele>1744.45</ele>
        <time>2020-12-13T10:48:56Z</time>
      </trkpt>
      <trkpt lat="44.21831" lon="7.86796">
        <ele>1743.97</ele>
        <time>2020-12-13T10:49:14Z</time>
      </trkpt>
      <trkpt lat="44.21828" lon="7.86807">
        <ele>1745.41</ele>
        <time>2020-12-13T10:49:31Z</time>
      </trkpt>
      <trkpt lat="44.21827" lon="7.86819">
        <ele>1746.37</ele>
        <time>2020-12-13T10:49:49Z</time>
      </trkpt>
      <trkpt lat="44.21824" lon="7.86823">
        <ele>1747.33</ele>
        <time>2020-12-13T10:50:04Z</time>
      </trkpt>
      <trkpt lat="44.2182" lon="7.86831">
        <ele>1749.26</ele>
        <time>2020-12-13T10:50:21Z</time>
      </trkpt>
      <trkpt lat="44.21819" lon="7.8684">
        <ele>1750.7</ele>
        <time>2020-12-13T10:50:37Z</time>
      </trkpt>
      <trkpt lat="44.21815" lon="7.8685">
        <ele>1753.58</ele>
        <time>2020-12-13T10:50:54Z</time>
      </trkpt>
      <trkpt lat="44.21814" lon="7.86852">
        <ele>1755.02</ele>
        <time>2020-12-13T10:51:10Z</time>
      </trkpt>
      <trkpt lat="44.21808" lon="7.86856">
        <ele>1755.5</ele>
        <time>2020-12-13T10:51:24Z</time>
      </trkpt>
      <trkpt lat="44.21803" lon="7.86863">
        <ele>1757.43</ele>
        <time>2020-12-13T10:51:40Z</time>
      </trkpt>
      <trkpt lat="44.21798" lon="7.86869">
        <ele>1758.39</ele>
        <time>2020-12-13T10:51:56Z</time>
      </trkpt>
      <trkpt lat="44.21796" lon="7.86872">
        <ele>1757.43</ele>
        <time>2020-12-13T10:52:12Z</time>
      </trkpt>
      <trkpt lat="44.21791" lon="7.86877">
        <ele>1759.35</ele>
        <time>2020-12-13T10:52:31Z</time>
      </trkpt>
      <trkpt lat="44.21786" lon="7.86884">
        <ele>1760.79</ele>
        <time>2020-12-13T10:52:47Z</time>
      </trkpt>
      <trkpt lat="44.21783" lon="7.86893">
        <ele>1762.23</ele>
        <time>2020-12-13T10:53:03Z</time>
      </trkpt>
      <trkpt lat="44.21778" lon="7.86903">
        <ele>1763.68</ele>
        <time>2020-12-13T10:53:19Z</time>
      </trkpt>
      <trkpt lat="44.21775" lon="7.86907">
        <ele>1765.12</ele>
        <time>2020-12-13T10:53:41Z</time>
      </trkpt>
      <trkpt lat="44.21771" lon="7.86917">
        <ele>1766.56</ele>
        <time>2020-12-13T10:53:57Z</time>
      </trkpt>
      <trkpt lat="44.2176" lon="7.86923">
        <ele>1768.96</ele>
        <time>2020-12-13T10:54:17Z</time>
      </trkpt>
      <trkpt lat="44.21756" lon="7.86927">
        <ele>1770.89</ele>
        <time>2020-12-13T10:54:36Z</time>
      </trkpt>
      <trkpt lat="44.21744" lon="7.86933">
        <ele>1772.33</ele>
        <time>2020-12-13T10:54:57Z</time>
      </trkpt>
      <trkpt lat="44.21736" lon="7.86939">
        <ele>1773.77</ele>
        <time>2020-12-13T10:55:12Z</time>
      </trkpt>
      <trkpt lat="44.21727" lon="7.86944">
        <ele>1776.17</ele>
        <time>2020-12-13T10:55:30Z</time>
      </trkpt>
      <trkpt lat="44.21719" lon="7.86953">
        <ele>1777.13</ele>
        <time>2020-12-13T10:55:47Z</time>
      </trkpt>
      <trkpt lat="44.21717" lon="7.86955">
        <ele>1779.06</ele>
        <time>2020-12-13T10:56:06Z</time>
      </trkpt>
      <trkpt lat="44.2171" lon="7.8696">
        <ele>1779.54</ele>
        <time>2020-12-13T10:56:23Z</time>
      </trkpt>
      <trkpt lat="44.21704" lon="7.86968">
        <ele>1780.02</ele>
        <time>2020-12-13T10:56:36Z</time>
      </trkpt>
      <trkpt lat="44.21699" lon="7.86973">
        <ele>1782.42</ele>
        <time>2020-12-13T10:56:51Z</time>
      </trkpt>
      <trkpt lat="44.21693" lon="7.8698">
        <ele>1782.9</ele>
        <time>2020-12-13T10:57:06Z</time>
      </trkpt>
      <trkpt lat="44.21684" lon="7.86989">
        <ele>1783.38</ele>
        <time>2020-12-13T10:57:22Z</time>
      </trkpt>
      <trkpt lat="44.21676" lon="7.86996">
        <ele>1785.79</ele>
        <time>2020-12-13T10:57:40Z</time>
      </trkpt>
      <trkpt lat="44.21664" lon="7.87008">
        <ele>1786.27</ele>
        <time>2020-12-13T10:58:02Z</time>
      </trkpt>
      <trkpt lat="44.21657" lon="7.87018">
        <ele>1783.86</ele>
        <time>2020-12-13T10:58:18Z</time>
      </trkpt>
      <trkpt lat="44.21652" lon="7.87023">
        <ele>1783.38</ele>
        <time>2020-12-13T10:58:31Z</time>
      </trkpt>
      <trkpt lat="44.21643" lon="7.87027">
        <ele>1786.75</ele>
        <time>2020-12-13T10:58:48Z</time>
      </trkpt>
      <trkpt lat="44.21636" lon="7.87033">
        <ele>1785.31</ele>
        <time>2020-12-13T10:59:04Z</time>
      </trkpt>
      <trkpt lat="44.21637" lon="7.87033">
        <ele>1782.9</ele>
        <time>2020-12-13T10:59:20Z</time>
      </trkpt>
      <trkpt lat="44.21638" lon="7.87031">
        <ele>1784.82</ele>
        <time>2020-12-13T10:59:51Z</time>
      </trkpt>
      <trkpt lat="44.21638" lon="7.8703">
        <ele>1785.79</ele>
        <time>2020-12-13T11:00:19Z</time>
      </trkpt>
      <trkpt lat="44.21638" lon="7.87031">
        <ele>1785.79</ele>
        <time>2020-12-13T11:00:53Z</time>
      </trkpt>
      <trkpt lat="44.21636" lon="7.87033">
        <ele>1787.23</ele>
        <time>2020-12-13T11:01:17Z</time>
      </trkpt>
      <trkpt lat="44.2163" lon="7.87038">
        <ele>1786.75</ele>
        <time>2020-12-13T11:01:31Z</time>
      </trkpt>
      <trkpt lat="44.21621" lon="7.87046">
        <ele>1787.23</ele>
        <time>2020-12-13T11:01:47Z</time>
      </trkpt>
      <trkpt lat="44.21614" lon="7.87052">
        <ele>1786.75</ele>
        <time>2020-12-13T11:02:02Z</time>
      </trkpt>
      <trkpt lat="44.21604" lon="7.87059">
        <ele>1788.19</ele>
        <time>2020-12-13T11:02:18Z</time>
      </trkpt>
      <trkpt lat="44.21594" lon="7.87065">
        <ele>1789.15</ele>
        <time>2020-12-13T11:02:34Z</time>
      </trkpt>
      <trkpt lat="44.21584" lon="7.8707">
        <ele>1792.52</ele>
        <time>2020-12-13T11:02:54Z</time>
      </trkpt>
      <trkpt lat="44.21576" lon="7.87079">
        <ele>1794.44</ele>
        <time>2020-12-13T11:03:15Z</time>
      </trkpt>
      <trkpt lat="44.21571" lon="7.87082">
        <ele>1793.48</ele>
        <time>2020-12-13T11:03:32Z</time>
      </trkpt>
      <trkpt lat="44.21564" lon="7.87089">
        <ele>1797.32</ele>
        <time>2020-12-13T11:03:48Z</time>
      </trkpt>
      <trkpt lat="44.21554" lon="7.87098">
        <ele>1800.69</ele>
        <time>2020-12-13T11:04:08Z</time>
      </trkpt>
      <trkpt lat="44.21546" lon="7.87106">
        <ele>1799.73</ele>
        <time>2020-12-13T11:04:24Z</time>
      </trkpt>
      <trkpt lat="44.21539" lon="7.87113">
        <ele>1801.17</ele>
        <time>2020-12-13T11:04:40Z</time>
      </trkpt>
      <trkpt lat="44.2153" lon="7.87123">
        <ele>1802.61</ele>
        <time>2020-12-13T11:04:59Z</time>
      </trkpt>
      <trkpt lat="44.21522" lon="7.87134">
        <ele>1804.05</ele>
        <time>2020-12-13T11:05:18Z</time>
      </trkpt>
      <trkpt lat="44.21517" lon="7.87141">
        <ele>1805.01</ele>
        <time>2020-12-13T11:05:32Z</time>
      </trkpt>
      <trkpt lat="44.2151" lon="7.8715">
        <ele>1806.45</ele>
        <time>2020-12-13T11:05:49Z</time>
      </trkpt>
      <trkpt lat="44.21501" lon="7.8716">
        <ele>1808.86</ele>
        <time>2020-12-13T11:06:09Z</time>
      </trkpt>
      <trkpt lat="44.21494" lon="7.87169">
        <ele>1810.3</ele>
        <time>2020-12-13T11:06:26Z</time>
      </trkpt>
      <trkpt lat="44.21489" lon="7.87176">
        <ele>1812.22</ele>
        <time>2020-12-13T11:06:42Z</time>
      </trkpt>
      <trkpt lat="44.21484" lon="7.87183">
        <ele>1812.22</ele>
        <time>2020-12-13T11:06:57Z</time>
      </trkpt>
      <trkpt lat="44.21478" lon="7.87194">
        <ele>1813.66</ele>
        <time>2020-12-13T11:07:13Z</time>
      </trkpt>
      <trkpt lat="44.21474" lon="7.87205">
        <ele>1814.63</ele>
        <time>2020-12-13T11:07:26Z</time>
      </trkpt>
      <trkpt lat="44.21473" lon="7.87213">
        <ele>1815.11</ele>
        <time>2020-12-13T11:07:40Z</time>
      </trkpt>
      <trkpt lat="44.21475" lon="7.87224">
        <ele>1817.03</ele>
        <time>2020-12-13T11:07:54Z</time>
      </trkpt>
      <trkpt lat="44.21477" lon="7.87228">
        <ele>1819.43</ele>
        <time>2020-12-13T11:08:07Z</time>
      </trkpt>
      <trkpt lat="44.21479" lon="7.87226">
        <ele>1821.35</ele>
        <time>2020-12-13T11:08:31Z</time>
      </trkpt>
      <trkpt lat="44.21476" lon="7.87228">
        <ele>1822.8</ele>
        <time>2020-12-13T11:08:58Z</time>
      </trkpt>
      <trkpt lat="44.21476" lon="7.87225">
        <ele>1820.87</ele>
        <time>2020-12-13T11:09:08Z</time>
      </trkpt>
      <trkpt lat="44.21475" lon="7.87225">
        <ele>1817.03</ele>
        <time>2020-12-13T11:09:56Z</time>
      </trkpt>
      <trkpt lat="44.21475" lon="7.87228">
        <ele>1819.43</ele>
        <time>2020-12-13T11:10:11Z</time>
      </trkpt>
      <trkpt lat="44.21474" lon="7.87234">
        <ele>1823.28</ele>
        <time>2020-12-13T11:10:30Z</time>
      </trkpt>
      <trkpt lat="44.21472" lon="7.87236">
        <ele>1823.76</ele>
        <time>2020-12-13T11:10:32Z</time>
      </trkpt>
      <trkpt lat="44.21461" lon="7.87255">
        <ele>1819.43</ele>
        <time>2020-12-13T11:10:48Z</time>
      </trkpt>
      <trkpt lat="44.21454" lon="7.87268">
        <ele>1817.51</ele>
        <time>2020-12-13T11:11:02Z</time>
      </trkpt>
      <trkpt lat="44.21447" lon="7.87275">
        <ele>1817.03</ele>
        <time>2020-12-13T11:11:14Z</time>
      </trkpt>
      <trkpt lat="44.21437" lon="7.87282">
        <ele>1816.07</ele>
        <time>2020-12-13T11:11:27Z</time>
      </trkpt>
      <trkpt lat="44.21429" lon="7.8729">
        <ele>1815.59</ele>
        <time>2020-12-13T11:11:41Z</time>
      </trkpt>
      <trkpt lat="44.2142" lon="7.87299">
        <ele>1815.11</ele>
        <time>2020-12-13T11:11:54Z</time>
      </trkpt>
      <trkpt lat="44.21411" lon="7.87307">
        <ele>1816.07</ele>
        <time>2020-12-13T11:12:08Z</time>
      </trkpt>
      <trkpt lat="44.21403" lon="7.87315">
        <ele>1816.55</ele>
        <time>2020-12-13T11:12:22Z</time>
      </trkpt>
      <trkpt lat="44.21395" lon="7.87322">
        <ele>1818.47</ele>
        <time>2020-12-13T11:12:37Z</time>
      </trkpt>
      <trkpt lat="44.21388" lon="7.87325">
        <ele>1821.35</ele>
        <time>2020-12-13T11:12:55Z</time>
      </trkpt>
      <trkpt lat="44.21385" lon="7.87332">
        <ele>1819.91</ele>
        <time>2020-12-13T11:13:12Z</time>
      </trkpt>
      <trkpt lat="44.21382" lon="7.87342">
        <ele>1822.32</ele>
        <time>2020-12-13T11:13:26Z</time>
      </trkpt>
      <trkpt lat="44.21375" lon="7.87354">
        <ele>1823.76</ele>
        <time>2020-12-13T11:13:43Z</time>
      </trkpt>
      <trkpt lat="44.21367" lon="7.87368">
        <ele>1823.28</ele>
        <time>2020-12-13T11:13:58Z</time>
      </trkpt>
      <trkpt lat="44.2136" lon="7.87383">
        <ele>1823.28</ele>
        <time>2020-12-13T11:14:14Z</time>
      </trkpt>
      <trkpt lat="44.21355" lon="7.87387">
        <ele>1824.24</ele>
        <time>2020-12-13T11:14:29Z</time>
      </trkpt>
      <trkpt lat="44.21349" lon="7.87397">
        <ele>1824.72</ele>
        <time>2020-12-13T11:14:50Z</time>
      </trkpt>
      <trkpt lat="44.2134" lon="7.87412">
        <ele>1825.68</ele>
        <time>2020-12-13T11:15:04Z</time>
      </trkpt>
      <trkpt lat="44.21334" lon="7.8742">
        <ele>1824.24</ele>
        <time>2020-12-13T11:15:18Z</time>
      </trkpt>
      <trkpt lat="44.21328" lon="7.87427">
        <ele>1824.24</ele>
        <time>2020-12-13T11:15:33Z</time>
      </trkpt>
      <trkpt lat="44.21325" lon="7.8743">
        <ele>1823.76</ele>
        <time>2020-12-13T11:15:48Z</time>
      </trkpt>
      <trkpt lat="44.21322" lon="7.87433">
        <ele>1823.76</ele>
        <time>2020-12-13T11:16:06Z</time>
      </trkpt>
      <trkpt lat="44.21314" lon="7.87443">
        <ele>1825.2</ele>
        <time>2020-12-13T11:16:23Z</time>
      </trkpt>
      <trkpt lat="44.21306" lon="7.87454">
        <ele>1825.68</ele>
        <time>2020-12-13T11:16:39Z</time>
      </trkpt>
      <trkpt lat="44.21299" lon="7.87463">
        <ele>1827.12</ele>
        <time>2020-12-13T11:16:56Z</time>
      </trkpt>
      <trkpt lat="44.21292" lon="7.87473">
        <ele>1829.05</ele>
        <time>2020-12-13T11:17:12Z</time>
      </trkpt>
      <trkpt lat="44.21287" lon="7.87479">
        <ele>1830.01</ele>
        <time>2020-12-13T11:17:32Z</time>
      </trkpt>
      <trkpt lat="44.21283" lon="7.87485">
        <ele>1830.49</ele>
        <time>2020-12-13T11:17:51Z</time>
      </trkpt>
      <trkpt lat="44.21276" lon="7.87493">
        <ele>1832.89</ele>
        <time>2020-12-13T11:18:10Z</time>
      </trkpt>
      <trkpt lat="44.21271" lon="7.87503">
        <ele>1833.85</ele>
        <time>2020-12-13T11:18:25Z</time>
      </trkpt>
      <trkpt lat="44.21262" lon="7.87512">
        <ele>1836.74</ele>
        <time>2020-12-13T11:18:42Z</time>
      </trkpt>
      <trkpt lat="44.21252" lon="7.87518">
        <ele>1837.7</ele>
        <time>2020-12-13T11:19:00Z</time>
      </trkpt>
      <trkpt lat="44.21244" lon="7.87523">
        <ele>1838.66</ele>
        <time>2020-12-13T11:19:17Z</time>
      </trkpt>
      <trkpt lat="44.21235" lon="7.87531">
        <ele>1839.62</ele>
        <time>2020-12-13T11:19:35Z</time>
      </trkpt>
      <trkpt lat="44.21225" lon="7.87537">
        <ele>1841.06</ele>
        <time>2020-12-13T11:19:54Z</time>
      </trkpt>
      <trkpt lat="44.21215" lon="7.87545">
        <ele>1841.54</ele>
        <time>2020-12-13T11:20:11Z</time>
      </trkpt>
      <trkpt lat="44.21209" lon="7.87549">
        <ele>1842.5</ele>
        <time>2020-12-13T11:20:26Z</time>
      </trkpt>
      <trkpt lat="44.21203" lon="7.87553">
        <ele>1843.95</ele>
        <time>2020-12-13T11:20:55Z</time>
      </trkpt>
      <trkpt lat="44.21192" lon="7.8756">
        <ele>1844.91</ele>
        <time>2020-12-13T11:21:16Z</time>
      </trkpt>
      <trkpt lat="44.21184" lon="7.87566">
        <ele>1845.87</ele>
        <time>2020-12-13T11:21:32Z</time>
      </trkpt>
      <trkpt lat="44.21181" lon="7.87569">
        <ele>1847.31</ele>
        <time>2020-12-13T11:21:46Z</time>
      </trkpt>
      <trkpt lat="44.21174" lon="7.87575">
        <ele>1850.19</ele>
        <time>2020-12-13T11:21:59Z</time>
      </trkpt>
      <trkpt lat="44.21165" lon="7.87579">
        <ele>1852.12</ele>
        <time>2020-12-13T11:22:14Z</time>
      </trkpt>
      <trkpt lat="44.21154" lon="7.87587">
        <ele>1855.48</ele>
        <time>2020-12-13T11:22:34Z</time>
      </trkpt>
      <trkpt lat="44.21146" lon="7.87592">
        <ele>1856.44</ele>
        <time>2020-12-13T11:22:52Z</time>
      </trkpt>
      <trkpt lat="44.21139" lon="7.87597">
        <ele>1854.04</ele>
        <time>2020-12-13T11:23:07Z</time>
      </trkpt>
      <trkpt lat="44.21131" lon="7.87602">
        <ele>1855.48</ele>
        <time>2020-12-13T11:23:23Z</time>
      </trkpt>
      <trkpt lat="44.2112" lon="7.87607">
        <ele>1856.44</ele>
        <time>2020-12-13T11:23:40Z</time>
      </trkpt>
      <trkpt lat="44.21112" lon="7.87611">
        <ele>1856.92</ele>
        <time>2020-12-13T11:23:54Z</time>
      </trkpt>
      <trkpt lat="44.21103" lon="7.87617">
        <ele>1858.37</ele>
        <time>2020-12-13T11:24:08Z</time>
      </trkpt>
      <trkpt lat="44.21094" lon="7.87624">
        <ele>1858.85</ele>
        <time>2020-12-13T11:24:25Z</time>
      </trkpt>
      <trkpt lat="44.21086" lon="7.87632">
        <ele>1860.29</ele>
        <time>2020-12-13T11:24:41Z</time>
      </trkpt>
      <trkpt lat="44.21078" lon="7.87634">
        <ele>1861.25</ele>
        <time>2020-12-13T11:24:55Z</time>
      </trkpt>
      <trkpt lat="44.21072" lon="7.87637">
        <ele>1860.77</ele>
        <time>2020-12-13T11:25:09Z</time>
      </trkpt>
      <trkpt lat="44.21073" lon="7.87637">
        <ele>1861.73</ele>
        <time>2020-12-13T11:25:30Z</time>
      </trkpt>
      <trkpt lat="44.21065" lon="7.8764">
        <ele>1864.13</ele>
        <time>2020-12-13T11:25:46Z</time>
      </trkpt>
      <trkpt lat="44.21054" lon="7.87644">
        <ele>1866.06</ele>
        <time>2020-12-13T11:26:07Z</time>
      </trkpt>
      <trkpt lat="44.21046" lon="7.87648">
        <ele>1866.54</ele>
        <time>2020-12-13T11:26:23Z</time>
      </trkpt>
      <trkpt lat="44.21036" lon="7.87653">
        <ele>1868.46</ele>
        <time>2020-12-13T11:26:40Z</time>
      </trkpt>
      <trkpt lat="44.2103" lon="7.87658">
        <ele>1869.9</ele>
        <time>2020-12-13T11:26:54Z</time>
      </trkpt>
      <trkpt lat="44.21021" lon="7.87663">
        <ele>1872.79</ele>
        <time>2020-12-13T11:27:13Z</time>
      </trkpt>
      <trkpt lat="44.21018" lon="7.87665">
        <ele>1873.75</ele>
        <time>2020-12-13T11:27:29Z</time>
      </trkpt>
      <trkpt lat="44.21012" lon="7.87669">
        <ele>1874.23</ele>
        <time>2020-12-13T11:27:45Z</time>
      </trkpt>
      <trkpt lat="44.21004" lon="7.87673">
        <ele>1874.23</ele>
        <time>2020-12-13T11:28:02Z</time>
      </trkpt>
      <trkpt lat="44.20997" lon="7.87677">
        <ele>1875.19</ele>
        <time>2020-12-13T11:28:17Z</time>
      </trkpt>
      <trkpt lat="44.20989" lon="7.87681">
        <ele>1878.55</ele>
        <time>2020-12-13T11:28:31Z</time>
      </trkpt>
      <trkpt lat="44.20988" lon="7.8768">
        <ele>1879.03</ele>
        <time>2020-12-13T11:28:45Z</time>
      </trkpt>
      <trkpt lat="44.20983" lon="7.87683">
        <ele>1880.96</ele>
        <time>2020-12-13T11:29:01Z</time>
      </trkpt>
      <trkpt lat="44.20975" lon="7.87686">
        <ele>1882.4</ele>
        <time>2020-12-13T11:29:16Z</time>
      </trkpt>
      <trkpt lat="44.20966" lon="7.87689">
        <ele>1884.32</ele>
        <time>2020-12-13T11:29:31Z</time>
      </trkpt>
      <trkpt lat="44.20959" lon="7.87691">
        <ele>1886.24</ele>
        <time>2020-12-13T11:29:47Z</time>
      </trkpt>
      <trkpt lat="44.20953" lon="7.87688">
        <ele>1886.72</ele>
        <time>2020-12-13T11:30:01Z</time>
      </trkpt>
      <trkpt lat="44.20948" lon="7.87686">
        <ele>1887.21</ele>
        <time>2020-12-13T11:30:24Z</time>
      </trkpt>
      <trkpt lat="44.20938" lon="7.87683">
        <ele>1888.65</ele>
        <time>2020-12-13T11:30:40Z</time>
      </trkpt>
      <trkpt lat="44.20931" lon="7.87682">
        <ele>1890.09</ele>
        <time>2020-12-13T11:30:54Z</time>
      </trkpt>
      <trkpt lat="44.2092" lon="7.87682">
        <ele>1892.97</ele>
        <time>2020-12-13T11:31:12Z</time>
      </trkpt>
      <trkpt lat="44.20912" lon="7.87684">
        <ele>1892.97</ele>
        <time>2020-12-13T11:31:26Z</time>
      </trkpt>
      <trkpt lat="44.20904" lon="7.87686">
        <ele>1893.45</ele>
        <time>2020-12-13T11:31:45Z</time>
      </trkpt>
      <trkpt lat="44.20905" lon="7.87687">
        <ele>1891.53</ele>
        <time>2020-12-13T11:32:01Z</time>
      </trkpt>
      <trkpt lat="44.20906" lon="7.87686">
        <ele>1892.01</ele>
        <time>2020-12-13T11:32:38Z</time>
      </trkpt>
      <trkpt lat="44.20905" lon="7.87685">
        <ele>1891.53</ele>
        <time>2020-12-13T11:33:08Z</time>
      </trkpt>
      <trkpt lat="44.20905" lon="7.87685">
        <ele>1892.97</ele>
        <time>2020-12-13T11:33:51Z</time>
      </trkpt>
      <trkpt lat="44.20905" lon="7.87685">
        <ele>1893.93</ele>
        <time>2020-12-13T11:34:36Z</time>
      </trkpt>
      <trkpt lat="44.20904" lon="7.87685">
        <ele>1894.42</ele>
        <time>2020-12-13T11:35:16Z</time>
      </trkpt>
      <trkpt lat="44.20904" lon="7.87686">
        <ele>1893.45</ele>
        <time>2020-12-13T11:36:06Z</time>
      </trkpt>
      <trkpt lat="44.20904" lon="7.87687">
        <ele>1892.97</ele>
        <time>2020-12-13T11:36:22Z</time>
      </trkpt>
      <trkpt lat="44.20904" lon="7.87686">
        <ele>1892.49</ele>
        <time>2020-12-13T11:37:00Z</time>
      </trkpt>
      <trkpt lat="44.20904" lon="7.87686">
        <ele>1892.97</ele>
        <time>2020-12-13T11:37:39Z</time>
      </trkpt>
      <trkpt lat="44.20904" lon="7.87685">
        <ele>1893.45</ele>
        <time>2020-12-13T11:38:18Z</time>
      </trkpt>
      <trkpt lat="44.20905" lon="7.87687">
        <ele>1890.57</ele>
        <time>2020-12-13T11:38:47Z</time>
      </trkpt>
      <trkpt lat="44.20906" lon="7.87688">
        <ele>1888.65</ele>
        <time>2020-12-13T11:39:27Z</time>
      </trkpt>
      <trkpt lat="44.20906" lon="7.87687">
        <ele>1890.57</ele>
        <time>2020-12-13T11:40:07Z</time>
      </trkpt>
      <trkpt lat="44.20906" lon="7.87687">
        <ele>1891.53</ele>
        <time>2020-12-13T11:40:53Z</time>
      </trkpt>
      <trkpt lat="44.20906" lon="7.87687">
        <ele>1892.01</ele>
        <time>2020-12-13T11:41:37Z</time>
      </trkpt>
      <trkpt lat="44.20905" lon="7.87687">
        <ele>1893.45</ele>
        <time>2020-12-13T11:42:25Z</time>
      </trkpt>
      <trkpt lat="44.20905" lon="7.87687">
        <ele>1892.97</ele>
        <time>2020-12-13T11:43:12Z</time>
      </trkpt>
      <trkpt lat="44.20903" lon="7.87687">
        <ele>1895.86</ele>
        <time>2020-12-13T11:43:23Z</time>
      </trkpt>
      <trkpt lat="44.20903" lon="7.87688">
        <ele>1897.78</ele>
        <time>2020-12-13T11:43:50Z</time>
      </trkpt>
      <trkpt lat="44.20833" lon="7.87691">
        <ele>1883.38671875</ele>
      </trkpt>
      <trkpt lat="44.20755" lon="7.87691">
        <ele>1900.76171875</ele>
      </trkpt>
      <trkpt lat="44.20598" lon="7.87707">
        <ele>1925.28515625</ele>
      </trkpt>
      <trkpt lat="44.20563" lon="7.87715">
        <ele>1931.03515625</ele>
      </trkpt>
      <trkpt lat="44.20545" lon="7.87715">
        <ele>1934.23828125</ele>
      </trkpt>
      <trkpt lat="44.20531" lon="7.87715">
        <ele>1936.72265625</ele>
      </trkpt>
      <trkpt lat="44.20515" lon="7.87719">
        <ele>1940.56640625</ele>
      </trkpt>
      <trkpt lat="44.20488" lon="7.87719">
        <ele>1945.73046875</ele>
      </trkpt>
      <trkpt lat="44.20474" lon="7.87711">
        <ele>1946.00390625</ele>
      </trkpt>
      <trkpt lat="44.20458" lon="7.87699">
        <ele>1946.37109375</ele>
      </trkpt>
      <trkpt lat="44.20445" lon="7.87734">
        <ele>1960.41796875</ele>
      </trkpt>
      <trkpt lat="44.20429" lon="7.87746">
        <ele>1968.1640625</ele>
      </trkpt>
      <trkpt lat="44.20375" lon="7.87738">
        <ele>1978.578125</ele>
      </trkpt>
      <trkpt lat="44.20353" lon="7.87726">
        <ele>1979.3984375</ele>
      </trkpt>
      <trkpt lat="44.20329" lon="7.87707">
        <ele>1979.1328125</ele>
      </trkpt>
      <trkpt lat="44.2031" lon="7.87699">
        <ele>1981.3515625</ele>
      </trkpt>
      <trkpt lat="44.20297" lon="7.87687">
        <ele>1978.703125</ele>
      </trkpt>
      <trkpt lat="44.20283" lon="7.87703">
        <ele>1982.078125</ele>
      </trkpt>
      <trkpt lat="44.20903" lon="7.87688">
        <ele>1898.26</ele>
        <time>2020-12-13T11:44:14Z</time>
      </trkpt>
      <trkpt lat="44.20903" lon="7.87687">
        <ele>1897.3</ele>
        <time>2020-12-13T11:44:32Z</time>
      </trkpt>
      <trkpt lat="44.20904" lon="7.87691">
        <ele>1896.82</ele>
        <time>2020-12-13T11:44:50Z</time>
      </trkpt>
      <trkpt lat="44.20904" lon="7.87692">
        <ele>1897.3</ele>
        <time>2020-12-13T11:45:10Z</time>
      </trkpt>
      <trkpt lat="44.20905" lon="7.87691">
        <ele>1897.3</ele>
        <time>2020-12-13T11:45:32Z</time>
      </trkpt>
      <trkpt lat="44.20907" lon="7.87692">
        <ele>1896.34</ele>
        <time>2020-12-13T11:45:48Z</time>
      </trkpt>
      <trkpt lat="44.20907" lon="7.87688">
        <ele>1892.01</ele>
        <time>2020-12-13T11:45:58Z</time>
      </trkpt>
      <trkpt lat="44.20907" lon="7.87691">
        <ele>1893.45</ele>
        <time>2020-12-13T11:46:18Z</time>
      </trkpt>
      <trkpt lat="44.20907" lon="7.87691">
        <ele>1893.93</ele>
        <time>2020-12-13T11:46:39Z</time>
      </trkpt>
      <trkpt lat="44.20907" lon="7.8769">
        <ele>1892.97</ele>
        <time>2020-12-13T11:47:06Z</time>
      </trkpt>
      <trkpt lat="44.20909" lon="7.87689">
        <ele>1892.97</ele>
        <time>2020-12-13T11:47:23Z</time>
      </trkpt>
      <trkpt lat="44.20911" lon="7.87687">
        <ele>1893.45</ele>
        <time>2020-12-13T11:47:36Z</time>
      </trkpt>
      <trkpt lat="44.20914" lon="7.87685">
        <ele>1892.97</ele>
        <time>2020-12-13T11:47:39Z</time>
      </trkpt>
      <trkpt lat="44.20947" lon="7.87683">
        <ele>1890.57</ele>
        <time>2020-12-13T11:47:58Z</time>
      </trkpt>
      <trkpt lat="44.2096" lon="7.87695">
        <ele>1888.17</ele>
        <time>2020-12-13T11:48:10Z</time>
      </trkpt>
      <trkpt lat="44.20962" lon="7.87693">
        <ele>1887.21</ele>
        <time>2020-12-13T11:48:16Z</time>
      </trkpt>
      <trkpt lat="44.20964" lon="7.87692">
        <ele>1887.21</ele>
        <time>2020-12-13T11:48:17Z</time>
      </trkpt>
      <trkpt lat="44.20966" lon="7.87689">
        <ele>1886.72</ele>
        <time>2020-12-13T11:48:18Z</time>
      </trkpt>
      <trkpt lat="44.20967" lon="7.87686">
        <ele>1886.24</ele>
        <time>2020-12-13T11:48:19Z</time>
      </trkpt>
      <trkpt lat="44.20968" lon="7.87682">
        <ele>1886.24</ele>
        <time>2020-12-13T11:48:20Z</time>
      </trkpt>
      <trkpt lat="44.20971" lon="7.87679">
        <ele>1885.76</ele>
        <time>2020-12-13T11:48:21Z</time>
      </trkpt>
      <trkpt lat="44.20973" lon="7.87676">
        <ele>1885.28</ele>
        <time>2020-12-13T11:48:22Z</time>
      </trkpt>
      <trkpt lat="44.20976" lon="7.87673">
        <ele>1884.32</ele>
        <time>2020-12-13T11:48:23Z</time>
      </trkpt>
      <trkpt lat="44.20977" lon="7.87669">
        <ele>1883.84</ele>
        <time>2020-12-13T11:48:24Z</time>
      </trkpt>
      <trkpt lat="44.20978" lon="7.87667">
        <ele>1883.36</ele>
        <time>2020-12-13T11:48:25Z</time>
      </trkpt>
      <trkpt lat="44.20979" lon="7.87665">
        <ele>1883.36</ele>
        <time>2020-12-13T11:48:26Z</time>
      </trkpt>
      <trkpt lat="44.2098" lon="7.87662">
        <ele>1883.36</ele>
        <time>2020-12-13T11:48:27Z</time>
      </trkpt>
      <trkpt lat="44.20984" lon="7.87657">
        <ele>1882.4</ele>
        <time>2020-12-13T11:48:29Z</time>
      </trkpt>
      <trkpt lat="44.20986" lon="7.87658">
        <ele>1881.92</ele>
        <time>2020-12-13T11:48:30Z</time>
      </trkpt>
      <trkpt lat="44.20997" lon="7.87664">
        <ele>1880</ele>
        <time>2020-12-13T11:48:33Z</time>
      </trkpt>
      <trkpt lat="44.21001" lon="7.87661">
        <ele>1879.51</ele>
        <time>2020-12-13T11:48:34Z</time>
      </trkpt>
      <trkpt lat="44.21004" lon="7.87656">
        <ele>1879.03</ele>
        <time>2020-12-13T11:48:35Z</time>
      </trkpt>
      <trkpt lat="44.21007" lon="7.87654">
        <ele>1878.07</ele>
        <time>2020-12-13T11:48:36Z</time>
      </trkpt>
      <trkpt lat="44.21009" lon="7.87655">
        <ele>1877.59</ele>
        <time>2020-12-13T11:48:37Z</time>
      </trkpt>
      <trkpt lat="44.21013" lon="7.87658">
        <ele>1875.19</ele>
        <time>2020-12-13T11:48:49Z</time>
      </trkpt>
      <trkpt lat="44.21025" lon="7.87662">
        <ele>1874.23</ele>
        <time>2020-12-13T11:48:53Z</time>
      </trkpt>
      <trkpt lat="44.21029" lon="7.87659">
        <ele>1873.75</ele>
        <time>2020-12-13T11:48:54Z</time>
      </trkpt>
      <trkpt lat="44.21031" lon="7.87654">
        <ele>1872.79</ele>
        <time>2020-12-13T11:48:55Z</time>
      </trkpt>
      <trkpt lat="44.21032" lon="7.87648">
        <ele>1871.82</ele>
        <time>2020-12-13T11:48:56Z</time>
      </trkpt>
      <trkpt lat="44.21034" lon="7.87643">
        <ele>1871.34</ele>
        <time>2020-12-13T11:48:57Z</time>
      </trkpt>
      <trkpt lat="44.21036" lon="7.87638">
        <ele>1870.86</ele>
        <time>2020-12-13T11:48:58Z</time>
      </trkpt>
      <trkpt lat="44.2104" lon="7.87636">
        <ele>1870.38</ele>
        <time>2020-12-13T11:48:59Z</time>
      </trkpt>
      <trkpt lat="44.21044" lon="7.87636">
        <ele>1869.42</ele>
        <time>2020-12-13T11:49:00Z</time>
      </trkpt>
      <trkpt lat="44.21048" lon="7.87636">
        <ele>1868.94</ele>
        <time>2020-12-13T11:49:01Z</time>
      </trkpt>
      <trkpt lat="44.21052" lon="7.87634">
        <ele>1867.98</ele>
        <time>2020-12-13T11:49:02Z</time>
      </trkpt>
      <trkpt lat="44.21054" lon="7.87629">
        <ele>1867.5</ele>
        <time>2020-12-13T11:49:03Z</time>
      </trkpt>
      <trkpt lat="44.21056" lon="7.87625">
        <ele>1867.02</ele>
        <time>2020-12-13T11:49:04Z</time>
      </trkpt>
      <trkpt lat="44.21059" lon="7.87625">
        <ele>1866.06</ele>
        <time>2020-12-13T11:49:05Z</time>
      </trkpt>
      <trkpt lat="44.21063" lon="7.87626">
        <ele>1865.58</ele>
        <time>2020-12-13T11:49:06Z</time>
      </trkpt>
      <trkpt lat="44.21068" lon="7.87626">
        <ele>1864.61</ele>
        <time>2020-12-13T11:49:07Z</time>
      </trkpt>
      <trkpt lat="44.21088" lon="7.87622">
        <ele>1862.21</ele>
        <time>2020-12-13T11:49:11Z</time>
      </trkpt>
      <trkpt lat="44.21093" lon="7.87619">
        <ele>1861.25</ele>
        <time>2020-12-13T11:49:12Z</time>
      </trkpt>
      <trkpt lat="44.21105" lon="7.87607">
        <ele>1859.33</ele>
        <time>2020-12-13T11:49:15Z</time>
      </trkpt>
      <trkpt lat="44.21144" lon="7.87589">
        <ele>1855.48</ele>
        <time>2020-12-13T11:49:27Z</time>
      </trkpt>
      <trkpt lat="44.21152" lon="7.87578">
        <ele>1854.04</ele>
        <time>2020-12-13T11:49:31Z</time>
      </trkpt>
      <trkpt lat="44.21154" lon="7.87579">
        <ele>1854.04</ele>
        <time>2020-12-13T11:49:32Z</time>
      </trkpt>
      <trkpt lat="44.21157" lon="7.87582">
        <ele>1851.16</ele>
        <time>2020-12-13T11:49:43Z</time>
      </trkpt>
      <trkpt lat="44.21159" lon="7.87581">
        <ele>1851.16</ele>
        <time>2020-12-13T11:49:44Z</time>
      </trkpt>
      <trkpt lat="44.2116" lon="7.8758">
        <ele>1850.68</ele>
        <time>2020-12-13T11:49:45Z</time>
      </trkpt>
      <trkpt lat="44.21178" lon="7.87576">
        <ele>1849.23</ele>
        <time>2020-12-13T11:49:51Z</time>
      </trkpt>
      <trkpt lat="44.21181" lon="7.87572">
        <ele>1848.27</ele>
        <time>2020-12-13T11:49:52Z</time>
      </trkpt>
      <trkpt lat="44.21183" lon="7.87567">
        <ele>1847.79</ele>
        <time>2020-12-13T11:49:53Z</time>
      </trkpt>
      <trkpt lat="44.21185" lon="7.87561">
        <ele>1846.83</ele>
        <time>2020-12-13T11:49:54Z</time>
      </trkpt>
      <trkpt lat="44.21188" lon="7.87559">
        <ele>1846.35</ele>
        <time>2020-12-13T11:49:55Z</time>
      </trkpt>
      <trkpt lat="44.21192" lon="7.87558">
        <ele>1845.87</ele>
        <time>2020-12-13T11:49:56Z</time>
      </trkpt>
      <trkpt lat="44.21196" lon="7.87556">
        <ele>1845.39</ele>
        <time>2020-12-13T11:49:57Z</time>
      </trkpt>
      <trkpt lat="44.212" lon="7.87554">
        <ele>1844.91</ele>
        <time>2020-12-13T11:49:58Z</time>
      </trkpt>
      <trkpt lat="44.21254" lon="7.87506">
        <ele>1838.66</ele>
        <time>2020-12-13T11:50:11Z</time>
      </trkpt>
      <trkpt lat="44.21259" lon="7.87504">
        <ele>1838.18</ele>
        <time>2020-12-13T11:50:12Z</time>
      </trkpt>
      <trkpt lat="44.21282" lon="7.87495">
        <ele>1835.77</ele>
        <time>2020-12-13T11:50:17Z</time>
      </trkpt>
      <trkpt lat="44.21285" lon="7.87491">
        <ele>1835.29</ele>
        <time>2020-12-13T11:50:18Z</time>
      </trkpt>
      <trkpt lat="44.21285" lon="7.87485">
        <ele>1834.33</ele>
        <time>2020-12-13T11:50:19Z</time>
      </trkpt>
      <trkpt lat="44.21286" lon="7.87479">
        <ele>1833.85</ele>
        <time>2020-12-13T11:50:20Z</time>
      </trkpt>
      <trkpt lat="44.21288" lon="7.87474">
        <ele>1832.89</ele>
        <time>2020-12-13T11:50:21Z</time>
      </trkpt>
      <trkpt lat="44.21291" lon="7.8747">
        <ele>1831.93</ele>
        <time>2020-12-13T11:50:22Z</time>
      </trkpt>
      <trkpt lat="44.21296" lon="7.87466">
        <ele>1830.97</ele>
        <time>2020-12-13T11:50:23Z</time>
      </trkpt>
      <trkpt lat="44.21354" lon="7.87397">
        <ele>1824.24</ele>
        <time>2020-12-13T11:50:36Z</time>
      </trkpt>
      <trkpt lat="44.21365" lon="7.87378">
        <ele>1824.24</ele>
        <time>2020-12-13T11:50:43Z</time>
      </trkpt>
      <trkpt lat="44.2138" lon="7.87349">
        <ele>1823.76</ele>
        <time>2020-12-13T11:50:54Z</time>
      </trkpt>
      <trkpt lat="44.21391" lon="7.87323">
        <ele>1823.76</ele>
        <time>2020-12-13T11:51:07Z</time>
      </trkpt>
      <trkpt lat="44.21419" lon="7.87298">
        <ele>1820.39</ele>
        <time>2020-12-13T11:51:16Z</time>
      </trkpt>
      <trkpt lat="44.21432" lon="7.87285">
        <ele>1818.95</ele>
        <time>2020-12-13T11:51:19Z</time>
      </trkpt>
      <trkpt lat="44.21459" lon="7.87262">
        <ele>1818.95</ele>
        <time>2020-12-13T11:51:30Z</time>
      </trkpt>
      <trkpt lat="44.21464" lon="7.87246">
        <ele>1820.39</ele>
        <time>2020-12-13T11:51:44Z</time>
      </trkpt>
      <trkpt lat="44.21467" lon="7.87237">
        <ele>1820.87</ele>
        <time>2020-12-13T11:51:55Z</time>
      </trkpt>
      <trkpt lat="44.21469" lon="7.87225">
        <ele>1820.39</ele>
        <time>2020-12-13T11:52:06Z</time>
      </trkpt>
      <trkpt lat="44.21473" lon="7.87208">
        <ele>1820.87</ele>
        <time>2020-12-13T11:52:21Z</time>
      </trkpt>
      <trkpt lat="44.2149" lon="7.87171">
        <ele>1817.51</ele>
        <time>2020-12-13T11:52:38Z</time>
      </trkpt>
      <trkpt lat="44.21501" lon="7.87167">
        <ele>1816.07</ele>
        <time>2020-12-13T11:52:47Z</time>
      </trkpt>
      <trkpt lat="44.21502" lon="7.87168">
        <ele>1815.11</ele>
        <time>2020-12-13T11:52:59Z</time>
      </trkpt>
      <trkpt lat="44.215" lon="7.87167">
        <ele>1813.66</ele>
        <time>2020-12-13T11:53:15Z</time>
      </trkpt>
      <trkpt lat="44.21501" lon="7.87167">
        <ele>1814.63</ele>
        <time>2020-12-13T11:53:52Z</time>
      </trkpt>
      <trkpt lat="44.21498" lon="7.87167">
        <ele>1817.51</ele>
        <time>2020-12-13T11:54:21Z</time>
      </trkpt>
      <trkpt lat="44.21498" lon="7.87166">
        <ele>1817.99</ele>
        <time>2020-12-13T11:55:06Z</time>
      </trkpt>
      <trkpt lat="44.21499" lon="7.87171">
        <ele>1817.51</ele>
        <time>2020-12-13T11:55:20Z</time>
      </trkpt>
      <trkpt lat="44.21514" lon="7.87167">
        <ele>1817.51</ele>
        <time>2020-12-13T11:55:33Z</time>
      </trkpt>
      <trkpt lat="44.21518" lon="7.87163">
        <ele>1816.07</ele>
        <time>2020-12-13T11:55:47Z</time>
      </trkpt>
      <trkpt lat="44.21519" lon="7.87162">
        <ele>1815.59</ele>
        <time>2020-12-13T11:55:52Z</time>
      </trkpt>
      <trkpt lat="44.2152" lon="7.87161">
        <ele>1815.11</ele>
        <time>2020-12-13T11:55:53Z</time>
      </trkpt>
      <trkpt lat="44.21522" lon="7.8716">
        <ele>1815.11</ele>
        <time>2020-12-13T11:55:54Z</time>
      </trkpt>
      <trkpt lat="44.2155" lon="7.87143">
        <ele>1812.7</ele>
        <time>2020-12-13T11:56:11Z</time>
      </trkpt>
      <trkpt lat="44.21605" lon="7.87138">
        <ele>1807.42</ele>
        <time>2020-12-13T11:56:29Z</time>
      </trkpt>
      <trkpt lat="44.2162" lon="7.87137">
        <ele>1806.45</ele>
        <time>2020-12-13T11:56:32Z</time>
      </trkpt>
      <trkpt lat="44.21625" lon="7.87136">
        <ele>1805.97</ele>
        <time>2020-12-13T11:56:33Z</time>
      </trkpt>
      <trkpt lat="44.21653" lon="7.87125">
        <ele>1804.05</ele>
        <time>2020-12-13T11:56:39Z</time>
      </trkpt>
      <trkpt lat="44.21671" lon="7.8711">
        <ele>1802.61</ele>
        <time>2020-12-13T11:56:44Z</time>
      </trkpt>
      <trkpt lat="44.21678" lon="7.87101">
        <ele>1801.65</ele>
        <time>2020-12-13T11:56:46Z</time>
      </trkpt>
      <trkpt lat="44.21692" lon="7.87081">
        <ele>1798.76</ele>
        <time>2020-12-13T11:56:50Z</time>
      </trkpt>
      <trkpt lat="44.21696" lon="7.87076">
        <ele>1798.28</ele>
        <time>2020-12-13T11:56:51Z</time>
      </trkpt>
      <trkpt lat="44.21699" lon="7.87072">
        <ele>1797.8</ele>
        <time>2020-12-13T11:56:52Z</time>
      </trkpt>
      <trkpt lat="44.21704" lon="7.87065">
        <ele>1796.84</ele>
        <time>2020-12-13T11:56:54Z</time>
      </trkpt>
      <trkpt lat="44.21706" lon="7.87066">
        <ele>1795.88</ele>
        <time>2020-12-13T11:56:55Z</time>
      </trkpt>
      <trkpt lat="44.21707" lon="7.87069">
        <ele>1791.07</ele>
        <time>2020-12-13T11:57:05Z</time>
      </trkpt>
      <trkpt lat="44.21707" lon="7.87069">
        <ele>1790.59</ele>
        <time>2020-12-13T11:57:17Z</time>
      </trkpt>
      <trkpt lat="44.21706" lon="7.8707">
        <ele>1791.55</ele>
        <time>2020-12-13T11:57:56Z</time>
      </trkpt>
      <trkpt lat="44.21705" lon="7.8707">
        <ele>1790.59</ele>
        <time>2020-12-13T11:58:20Z</time>
      </trkpt>
      <trkpt lat="44.21705" lon="7.87069">
        <ele>1789.63</ele>
        <time>2020-12-13T11:58:45Z</time>
      </trkpt>
      <trkpt lat="44.21705" lon="7.87068">
        <ele>1789.15</ele>
        <time>2020-12-13T11:59:07Z</time>
      </trkpt>
      <trkpt lat="44.21705" lon="7.87069">
        <ele>1789.15</ele>
        <time>2020-12-13T11:59:21Z</time>
      </trkpt>
      <trkpt lat="44.21706" lon="7.87072">
        <ele>1790.11</ele>
        <time>2020-12-13T11:59:32Z</time>
      </trkpt>
      <trkpt lat="44.21706" lon="7.8707">
        <ele>1789.63</ele>
        <time>2020-12-13T11:59:45Z</time>
      </trkpt>
      <trkpt lat="44.21706" lon="7.87071">
        <ele>1789.15</ele>
        <time>2020-12-13T12:00:05Z</time>
      </trkpt>
      <trkpt lat="44.21706" lon="7.87071">
        <ele>1788.67</ele>
        <time>2020-12-13T12:00:26Z</time>
      </trkpt>
      <trkpt lat="44.21706" lon="7.87071">
        <ele>1790.59</ele>
        <time>2020-12-13T12:01:08Z</time>
      </trkpt>
      <trkpt lat="44.21705" lon="7.8707">
        <ele>1792.03</ele>
        <time>2020-12-13T12:01:56Z</time>
      </trkpt>
      <trkpt lat="44.21706" lon="7.87069">
        <ele>1791.07</ele>
        <time>2020-12-13T12:02:50Z</time>
      </trkpt>
      <trkpt lat="44.21706" lon="7.8707">
        <ele>1789.63</ele>
        <time>2020-12-13T12:03:40Z</time>
      </trkpt>
      <trkpt lat="44.21705" lon="7.8707">
        <ele>1790.11</ele>
        <time>2020-12-13T12:04:18Z</time>
      </trkpt>
      <trkpt lat="44.21706" lon="7.8707">
        <ele>1791.07</ele>
        <time>2020-12-13T12:05:10Z</time>
      </trkpt>
      <trkpt lat="44.21706" lon="7.8707">
        <ele>1791.07</ele>
        <time>2020-12-13T12:06:06Z</time>
      </trkpt>
      <trkpt lat="44.21706" lon="7.8707">
        <ele>1791.07</ele>
        <time>2020-12-13T12:06:56Z</time>
      </trkpt>
      <trkpt lat="44.21706" lon="7.87071">
        <ele>1791.07</ele>
        <time>2020-12-13T12:07:48Z</time>
      </trkpt>
      <trkpt lat="44.21706" lon="7.8707">
        <ele>1791.07</ele>
        <time>2020-12-13T12:08:40Z</time>
      </trkpt>
      <trkpt lat="44.21706" lon="7.8707">
        <ele>1791.07</ele>
        <time>2020-12-13T12:09:26Z</time>
      </trkpt>
      <trkpt lat="44.21706" lon="7.8707">
        <ele>1790.59</ele>
        <time>2020-12-13T12:10:01Z</time>
      </trkpt>
      <trkpt lat="44.21706" lon="7.8707">
        <ele>1789.63</ele>
        <time>2020-12-13T12:10:39Z</time>
      </trkpt>
      <trkpt lat="44.21705" lon="7.87071">
        <ele>1789.15</ele>
        <time>2020-12-13T12:11:13Z</time>
      </trkpt>
      <trkpt lat="44.21707" lon="7.87072">
        <ele>1788.19</ele>
        <time>2020-12-13T12:11:57Z</time>
      </trkpt>
      <trkpt lat="44.21708" lon="7.87072">
        <ele>1787.23</ele>
        <time>2020-12-13T12:12:44Z</time>
      </trkpt>
      <trkpt lat="44.21708" lon="7.87072">
        <ele>1786.75</ele>
        <time>2020-12-13T12:13:22Z</time>
      </trkpt>
      <trkpt lat="44.21709" lon="7.87071">
        <ele>1785.79</ele>
        <time>2020-12-13T12:14:08Z</time>
      </trkpt>
      <trkpt lat="44.21708" lon="7.8707">
        <ele>1786.27</ele>
        <time>2020-12-13T12:14:22Z</time>
      </trkpt>
      <trkpt lat="44.21708" lon="7.8707">
        <ele>1786.75</ele>
        <time>2020-12-13T12:14:41Z</time>
      </trkpt>
      <trkpt lat="44.21707" lon="7.87069">
        <ele>1786.75</ele>
        <time>2020-12-13T12:14:59Z</time>
      </trkpt>
      <trkpt lat="44.21707" lon="7.87068">
        <ele>1786.75</ele>
        <time>2020-12-13T12:15:17Z</time>
      </trkpt>
      <trkpt lat="44.21707" lon="7.87069">
        <ele>1786.75</ele>
        <time>2020-12-13T12:15:37Z</time>
      </trkpt>
      <trkpt lat="44.21707" lon="7.87068">
        <ele>1787.71</ele>
        <time>2020-12-13T12:16:03Z</time>
      </trkpt>
      <trkpt lat="44.21707" lon="7.87068">
        <ele>1787.23</ele>
        <time>2020-12-13T12:16:24Z</time>
      </trkpt>
      <trkpt lat="44.21706" lon="7.87067">
        <ele>1788.19</ele>
        <time>2020-12-13T12:16:48Z</time>
      </trkpt>
      <trkpt lat="44.21706" lon="7.87067">
        <ele>1788.19</ele>
        <time>2020-12-13T12:17:08Z</time>
      </trkpt>
      <trkpt lat="44.21706" lon="7.87067">
        <ele>1787.71</ele>
        <time>2020-12-13T12:17:28Z</time>
      </trkpt>
      <trkpt lat="44.21706" lon="7.87066">
        <ele>1787.71</ele>
        <time>2020-12-13T12:17:46Z</time>
      </trkpt>
      <trkpt lat="44.21705" lon="7.87067">
        <ele>1787.71</ele>
        <time>2020-12-13T12:18:04Z</time>
      </trkpt>
      <trkpt lat="44.21706" lon="7.87067">
        <ele>1788.19</ele>
        <time>2020-12-13T12:18:26Z</time>
      </trkpt>
      <trkpt lat="44.21705" lon="7.87067">
        <ele>1789.15</ele>
        <time>2020-12-13T12:18:51Z</time>
      </trkpt>
      <trkpt lat="44.21706" lon="7.87067">
        <ele>1787.71</ele>
        <time>2020-12-13T12:19:11Z</time>
      </trkpt>
      <trkpt lat="44.21707" lon="7.87067">
        <ele>1787.23</ele>
        <time>2020-12-13T12:19:35Z</time>
      </trkpt>
      <trkpt lat="44.21708" lon="7.87066">
        <ele>1787.71</ele>
        <time>2020-12-13T12:19:53Z</time>
      </trkpt>
      <trkpt lat="44.21707" lon="7.87066">
        <ele>1787.23</ele>
        <time>2020-12-13T12:20:04Z</time>
      </trkpt>
      <trkpt lat="44.21706" lon="7.87066">
        <ele>1787.71</ele>
        <time>2020-12-13T12:20:24Z</time>
      </trkpt>
      <trkpt lat="44.21706" lon="7.87067">
        <ele>1787.23</ele>
        <time>2020-12-13T12:20:48Z</time>
      </trkpt>
      <trkpt lat="44.21706" lon="7.87067">
        <ele>1787.71</ele>
        <time>2020-12-13T12:21:11Z</time>
      </trkpt>
      <trkpt lat="44.21706" lon="7.87066">
        <ele>1788.19</ele>
        <time>2020-12-13T12:21:43Z</time>
      </trkpt>
      <trkpt lat="44.21708" lon="7.87066">
        <ele>1788.19</ele>
        <time>2020-12-13T12:21:56Z</time>
      </trkpt>
      <trkpt lat="44.2171" lon="7.87065">
        <ele>1787.23</ele>
        <time>2020-12-13T12:22:04Z</time>
      </trkpt>
      <trkpt lat="44.21711" lon="7.87063">
        <ele>1787.23</ele>
        <time>2020-12-13T12:22:05Z</time>
      </trkpt>
      <trkpt lat="44.21712" lon="7.87062">
        <ele>1787.23</ele>
        <time>2020-12-13T12:22:06Z</time>
      </trkpt>
      <trkpt lat="44.21716" lon="7.87057">
        <ele>1786.27</ele>
        <time>2020-12-13T12:22:08Z</time>
      </trkpt>
      <trkpt lat="44.21718" lon="7.87055">
        <ele>1785.79</ele>
        <time>2020-12-13T12:22:09Z</time>
      </trkpt>
      <trkpt lat="44.21764" lon="7.87017">
        <ele>1777.61</ele>
        <time>2020-12-13T12:22:19Z</time>
      </trkpt>
      <trkpt lat="44.21769" lon="7.87012">
        <ele>1776.17</ele>
        <time>2020-12-13T12:22:20Z</time>
      </trkpt>
      <trkpt lat="44.21774" lon="7.87008">
        <ele>1774.73</ele>
        <time>2020-12-13T12:22:21Z</time>
      </trkpt>
      <trkpt lat="44.21779" lon="7.87003">
        <ele>1773.77</ele>
        <time>2020-12-13T12:22:22Z</time>
      </trkpt>
      <trkpt lat="44.21786" lon="7.86992">
        <ele>1771.37</ele>
        <time>2020-12-13T12:22:24Z</time>
      </trkpt>
      <trkpt lat="44.21805" lon="7.8697">
        <ele>1766.56</ele>
        <time>2020-12-13T12:22:29Z</time>
      </trkpt>
      <trkpt lat="44.21816" lon="7.86962">
        <ele>1764.64</ele>
        <time>2020-12-13T12:22:31Z</time>
      </trkpt>
      <trkpt lat="44.21827" lon="7.86923">
        <ele>1761.27</ele>
        <time>2020-12-13T12:22:37Z</time>
      </trkpt>
      <trkpt lat="44.21846" lon="7.86882">
        <ele>1754.54</ele>
        <time>2020-12-13T12:22:44Z</time>
      </trkpt>
      <trkpt lat="44.21849" lon="7.86853">
        <ele>1750.22</ele>
        <time>2020-12-13T12:22:48Z</time>
      </trkpt>
      <trkpt lat="44.21842" lon="7.86821">
        <ele>1745.41</ele>
        <time>2020-12-13T12:22:52Z</time>
      </trkpt>
      <trkpt lat="44.21847" lon="7.86807">
        <ele>1743.01</ele>
        <time>2020-12-13T12:22:54Z</time>
      </trkpt>
      <trkpt lat="44.21848" lon="7.86799">
        <ele>1742.05</ele>
        <time>2020-12-13T12:22:55Z</time>
      </trkpt>
      <trkpt lat="44.21847" lon="7.86792">
        <ele>1741.08</ele>
        <time>2020-12-13T12:22:56Z</time>
      </trkpt>
      <trkpt lat="44.21846" lon="7.86784">
        <ele>1740.12</ele>
        <time>2020-12-13T12:22:57Z</time>
      </trkpt>
      <trkpt lat="44.21848" lon="7.86776">
        <ele>1739.16</ele>
        <time>2020-12-13T12:22:58Z</time>
      </trkpt>
      <trkpt lat="44.21853" lon="7.86771">
        <ele>1737.72</ele>
        <time>2020-12-13T12:22:59Z</time>
      </trkpt>
      <trkpt lat="44.21864" lon="7.8674">
        <ele>1731.95</ele>
        <time>2020-12-13T12:23:04Z</time>
      </trkpt>
      <trkpt lat="44.21863" lon="7.86732">
        <ele>1730.99</ele>
        <time>2020-12-13T12:23:05Z</time>
      </trkpt>
      <trkpt lat="44.21863" lon="7.86725">
        <ele>1730.51</ele>
        <time>2020-12-13T12:23:06Z</time>
      </trkpt>
      <trkpt lat="44.21863" lon="7.86718">
        <ele>1729.55</ele>
        <time>2020-12-13T12:23:07Z</time>
      </trkpt>
      <trkpt lat="44.21866" lon="7.86717">
        <ele>1726.67</ele>
        <time>2020-12-13T12:23:12Z</time>
      </trkpt>
      <trkpt lat="44.21865" lon="7.86719">
        <ele>1727.15</ele>
        <time>2020-12-13T12:23:36Z</time>
      </trkpt>
      <trkpt lat="44.21864" lon="7.86718">
        <ele>1727.15</ele>
        <time>2020-12-13T12:24:05Z</time>
      </trkpt>
      <trkpt lat="44.21867" lon="7.86716">
        <ele>1727.15</ele>
        <time>2020-12-13T12:24:32Z</time>
      </trkpt>
      <trkpt lat="44.2188" lon="7.86709">
        <ele>1724.74</ele>
        <time>2020-12-13T12:24:36Z</time>
      </trkpt>
      <trkpt lat="44.21902" lon="7.86685">
        <ele>1718.49</ele>
        <time>2020-12-13T12:24:42Z</time>
      </trkpt>
      <trkpt lat="44.21909" lon="7.86668">
        <ele>1714.65</ele>
        <time>2020-12-13T12:24:45Z</time>
      </trkpt>
      <trkpt lat="44.21909" lon="7.86647">
        <ele>1712.25</ele>
        <time>2020-12-13T12:24:48Z</time>
      </trkpt>
      <trkpt lat="44.21912" lon="7.86634">
        <ele>1709.36</ele>
        <time>2020-12-13T12:24:55Z</time>
      </trkpt>
      <trkpt lat="44.21911" lon="7.86635">
        <ele>1708.88</ele>
        <time>2020-12-13T12:25:18Z</time>
      </trkpt>
      <trkpt lat="44.21911" lon="7.86636">
        <ele>1707.92</ele>
        <time>2020-12-13T12:25:43Z</time>
      </trkpt>
      <trkpt lat="44.21911" lon="7.86632">
        <ele>1707.92</ele>
        <time>2020-12-13T12:25:56Z</time>
      </trkpt>
      <trkpt lat="44.21911" lon="7.86625">
        <ele>1707.92</ele>
        <time>2020-12-13T12:26:10Z</time>
      </trkpt>
      <trkpt lat="44.2191" lon="7.86622">
        <ele>1708.4</ele>
        <time>2020-12-13T12:26:29Z</time>
      </trkpt>
      <trkpt lat="44.2191" lon="7.86615">
        <ele>1707.92</ele>
        <time>2020-12-13T12:26:41Z</time>
      </trkpt>
      <trkpt lat="44.21912" lon="7.86611">
        <ele>1707.92</ele>
        <time>2020-12-13T12:27:00Z</time>
      </trkpt>
      <trkpt lat="44.21909" lon="7.86602">
        <ele>1708.4</ele>
        <time>2020-12-13T12:27:14Z</time>
      </trkpt>
      <trkpt lat="44.21909" lon="7.86599">
        <ele>1708.88</ele>
        <time>2020-12-13T12:27:29Z</time>
      </trkpt>
      <trkpt lat="44.21909" lon="7.86591">
        <ele>1708.4</ele>
        <time>2020-12-13T12:27:44Z</time>
      </trkpt>
      <trkpt lat="44.21909" lon="7.86589">
        <ele>1708.4</ele>
        <time>2020-12-13T12:27:45Z</time>
      </trkpt>
      <trkpt lat="44.2191" lon="7.86583">
        <ele>1707.92</ele>
        <time>2020-12-13T12:27:57Z</time>
      </trkpt>
      <trkpt lat="44.2191" lon="7.86582">
        <ele>1707.92</ele>
        <time>2020-12-13T12:27:58Z</time>
      </trkpt>
      <trkpt lat="44.21911" lon="7.86574">
        <ele>1707.92</ele>
        <time>2020-12-13T12:28:11Z</time>
      </trkpt>
      <trkpt lat="44.21911" lon="7.8657">
        <ele>1706.48</ele>
        <time>2020-12-13T12:28:29Z</time>
      </trkpt>
      <trkpt lat="44.21916" lon="7.86542">
        <ele>1704.07</ele>
        <time>2020-12-13T12:28:42Z</time>
      </trkpt>
      <trkpt lat="44.21927" lon="7.86482">
        <ele>1697.34</ele>
        <time>2020-12-13T12:28:51Z</time>
      </trkpt>
      <trkpt lat="44.2193" lon="7.86468">
        <ele>1696.38</ele>
        <time>2020-12-13T12:28:53Z</time>
      </trkpt>
      <trkpt lat="44.21931" lon="7.86462">
        <ele>1695.42</ele>
        <time>2020-12-13T12:28:54Z</time>
      </trkpt>
      <trkpt lat="44.21932" lon="7.86456">
        <ele>1694.94</ele>
        <time>2020-12-13T12:28:55Z</time>
      </trkpt>
      <trkpt lat="44.21932" lon="7.8645">
        <ele>1693.98</ele>
        <time>2020-12-13T12:28:56Z</time>
      </trkpt>
      <trkpt lat="44.21933" lon="7.86444">
        <ele>1693.5</ele>
        <time>2020-12-13T12:28:57Z</time>
      </trkpt>
      <trkpt lat="44.21935" lon="7.86438">
        <ele>1692.54</ele>
        <time>2020-12-13T12:28:58Z</time>
      </trkpt>
      <trkpt lat="44.21937" lon="7.86432">
        <ele>1692.06</ele>
        <time>2020-12-13T12:28:59Z</time>
      </trkpt>
      <trkpt lat="44.21947" lon="7.86388">
        <ele>1688.69</ele>
        <time>2020-12-13T12:29:06Z</time>
      </trkpt>
      <trkpt lat="44.21961" lon="7.86357">
        <ele>1684.85</ele>
        <time>2020-12-13T12:29:11Z</time>
      </trkpt>
      <trkpt lat="44.22" lon="7.86299">
        <ele>1676.68</ele>
        <time>2020-12-13T12:29:20Z</time>
      </trkpt>
      <trkpt lat="44.22015" lon="7.86271">
        <ele>1672.35</ele>
        <time>2020-12-13T12:29:24Z</time>
      </trkpt>
      <trkpt lat="44.22027" lon="7.86224">
        <ele>1663.22</ele>
        <time>2020-12-13T12:29:31Z</time>
      </trkpt>
      <trkpt lat="44.22031" lon="7.86197">
        <ele>1657.45</ele>
        <time>2020-12-13T12:29:35Z</time>
      </trkpt>
      <trkpt lat="44.22038" lon="7.86149">
        <ele>1648.32</ele>
        <time>2020-12-13T12:29:43Z</time>
      </trkpt>
      <trkpt lat="44.22041" lon="7.86136">
        <ele>1645.91</ele>
        <time>2020-12-13T12:29:45Z</time>
      </trkpt>
      <trkpt lat="44.22056" lon="7.86096">
        <ele>1637.74</ele>
        <time>2020-12-13T12:29:52Z</time>
      </trkpt>
      <trkpt lat="44.22059" lon="7.86068">
        <ele>1633.42</ele>
        <time>2020-12-13T12:29:56Z</time>
      </trkpt>
      <trkpt lat="44.22063" lon="7.86057">
        <ele>1628.61</ele>
        <time>2020-12-13T12:30:00Z</time>
      </trkpt>
      <trkpt lat="44.22058" lon="7.86061">
        <ele>1623.32</ele>
        <time>2020-12-13T12:30:18Z</time>
      </trkpt>
      <trkpt lat="44.22058" lon="7.86061">
        <ele>1622.84</ele>
        <time>2020-12-13T12:30:50Z</time>
      </trkpt>
      <trkpt lat="44.22058" lon="7.86059">
        <ele>1622.36</ele>
        <time>2020-12-13T12:31:15Z</time>
      </trkpt>
      <trkpt lat="44.22059" lon="7.86059">
        <ele>1622.36</ele>
        <time>2020-12-13T12:31:20Z</time>
      </trkpt>
      <trkpt lat="44.22063" lon="7.86047">
        <ele>1621.4</ele>
        <time>2020-12-13T12:31:24Z</time>
      </trkpt>
      <trkpt lat="44.22062" lon="7.86029">
        <ele>1620.44</ele>
        <time>2020-12-13T12:31:29Z</time>
      </trkpt>
      <trkpt lat="44.22074" lon="7.85989">
        <ele>1613.71</ele>
        <time>2020-12-13T12:31:35Z</time>
      </trkpt>
      <trkpt lat="44.2208" lon="7.85967">
        <ele>1610.35</ele>
        <time>2020-12-13T12:31:38Z</time>
      </trkpt>
      <trkpt lat="44.22087" lon="7.8593">
        <ele>1605.06</ele>
        <time>2020-12-13T12:31:43Z</time>
      </trkpt>
      <trkpt lat="44.22096" lon="7.85878">
        <ele>1597.85</ele>
        <time>2020-12-13T12:31:50Z</time>
      </trkpt>
      <trkpt lat="44.221" lon="7.85865">
        <ele>1595.93</ele>
        <time>2020-12-13T12:31:52Z</time>
      </trkpt>
      <trkpt lat="44.22105" lon="7.8586">
        <ele>1594.96</ele>
        <time>2020-12-13T12:31:53Z</time>
      </trkpt>
      <trkpt lat="44.22109" lon="7.85854">
        <ele>1594</ele>
        <time>2020-12-13T12:31:54Z</time>
      </trkpt>
      <trkpt lat="44.22111" lon="7.85846">
        <ele>1593.04</ele>
        <time>2020-12-13T12:31:55Z</time>
      </trkpt>
      <trkpt lat="44.22114" lon="7.8584">
        <ele>1592.08</ele>
        <time>2020-12-13T12:31:56Z</time>
      </trkpt>
      <trkpt lat="44.22117" lon="7.85833">
        <ele>1591.12</ele>
        <time>2020-12-13T12:31:57Z</time>
      </trkpt>
      <trkpt lat="44.22121" lon="7.85827">
        <ele>1589.68</ele>
        <time>2020-12-13T12:31:58Z</time>
      </trkpt>
      <trkpt lat="44.22123" lon="7.8582">
        <ele>1588.72</ele>
        <time>2020-12-13T12:31:59Z</time>
      </trkpt>
      <trkpt lat="44.22126" lon="7.85812">
        <ele>1587.75</ele>
        <time>2020-12-13T12:32:00Z</time>
      </trkpt>
      <trkpt lat="44.22128" lon="7.85804">
        <ele>1586.31</ele>
        <time>2020-12-13T12:32:01Z</time>
      </trkpt>
      <trkpt lat="44.22129" lon="7.85796">
        <ele>1585.35</ele>
        <time>2020-12-13T12:32:02Z</time>
      </trkpt>
      <trkpt lat="44.22134" lon="7.85769">
        <ele>1581.51</ele>
        <time>2020-12-13T12:32:06Z</time>
      </trkpt>
      <trkpt lat="44.22134" lon="7.85764">
        <ele>1581.03</ele>
        <time>2020-12-13T12:32:07Z</time>
      </trkpt>
      <trkpt lat="44.22135" lon="7.85759">
        <ele>1580.54</ele>
        <time>2020-12-13T12:32:08Z</time>
      </trkpt>
      <trkpt lat="44.22146" lon="7.85693">
        <ele>1574.3</ele>
        <time>2020-12-13T12:32:21Z</time>
      </trkpt>
      <trkpt lat="44.22147" lon="7.85687">
        <ele>1573.33</ele>
        <time>2020-12-13T12:32:22Z</time>
      </trkpt>
      <trkpt lat="44.22164" lon="7.85628">
        <ele>1565.64</ele>
        <time>2020-12-13T12:32:30Z</time>
      </trkpt>
      <trkpt lat="44.22176" lon="7.85583">
        <ele>1563.72</ele>
        <time>2020-12-13T12:32:41Z</time>
      </trkpt>
      <trkpt lat="44.22187" lon="7.85543">
        <ele>1563.72</ele>
        <time>2020-12-13T12:32:54Z</time>
      </trkpt>
      <trkpt lat="44.22194" lon="7.85516">
        <ele>1563.24</ele>
        <time>2020-12-13T12:33:09Z</time>
      </trkpt>
      <trkpt lat="44.22208" lon="7.85486">
        <ele>1560.36</ele>
        <time>2020-12-13T12:33:16Z</time>
      </trkpt>
      <trkpt lat="44.22209" lon="7.85479">
        <ele>1559.4</ele>
        <time>2020-12-13T12:33:17Z</time>
      </trkpt>
      <trkpt lat="44.22213" lon="7.85445">
        <ele>1556.03</ele>
        <time>2020-12-13T12:33:22Z</time>
      </trkpt>
      <trkpt lat="44.22211" lon="7.85417">
        <ele>1552.67</ele>
        <time>2020-12-13T12:33:26Z</time>
      </trkpt>
      <trkpt lat="44.22214" lon="7.85384">
        <ele>1549.78</ele>
        <time>2020-12-13T12:33:31Z</time>
      </trkpt>
      <trkpt lat="44.22217" lon="7.85378">
        <ele>1548.82</ele>
        <time>2020-12-13T12:33:32Z</time>
      </trkpt>
      <trkpt lat="44.2222" lon="7.85366">
        <ele>1547.38</ele>
        <time>2020-12-13T12:33:34Z</time>
      </trkpt>
      <trkpt lat="44.22219" lon="7.8536">
        <ele>1546.42</ele>
        <time>2020-12-13T12:33:35Z</time>
      </trkpt>
      <trkpt lat="44.22217" lon="7.85353">
        <ele>1545.46</ele>
        <time>2020-12-13T12:33:36Z</time>
      </trkpt>
      <trkpt lat="44.22216" lon="7.85346">
        <ele>1544.01</ele>
        <time>2020-12-13T12:33:37Z</time>
      </trkpt>
      <trkpt lat="44.22216" lon="7.85339">
        <ele>1543.05</ele>
        <time>2020-12-13T12:33:38Z</time>
      </trkpt>
      <trkpt lat="44.22218" lon="7.85332">
        <ele>1541.61</ele>
        <time>2020-12-13T12:33:39Z</time>
      </trkpt>
      <trkpt lat="44.2222" lon="7.85325">
        <ele>1540.65</ele>
        <time>2020-12-13T12:33:40Z</time>
      </trkpt>
      <trkpt lat="44.22222" lon="7.85319">
        <ele>1539.69</ele>
        <time>2020-12-13T12:33:41Z</time>
      </trkpt>
      <trkpt lat="44.22221" lon="7.85313">
        <ele>1538.73</ele>
        <time>2020-12-13T12:33:42Z</time>
      </trkpt>
      <trkpt lat="44.2222" lon="7.85308">
        <ele>1538.25</ele>
        <time>2020-12-13T12:33:43Z</time>
      </trkpt>
      <trkpt lat="44.22222" lon="7.853">
        <ele>1536.32</ele>
        <time>2020-12-13T12:33:45Z</time>
      </trkpt>
      <trkpt lat="44.22224" lon="7.85296">
        <ele>1535.36</ele>
        <time>2020-12-13T12:33:46Z</time>
      </trkpt>
      <trkpt lat="44.22226" lon="7.85292">
        <ele>1533.92</ele>
        <time>2020-12-13T12:33:47Z</time>
      </trkpt>
      <trkpt lat="44.22229" lon="7.85289">
        <ele>1532.96</ele>
        <time>2020-12-13T12:33:48Z</time>
      </trkpt>
      <trkpt lat="44.22232" lon="7.85285">
        <ele>1532</ele>
        <time>2020-12-13T12:33:49Z</time>
      </trkpt>
      <trkpt lat="44.22237" lon="7.85277">
        <ele>1530.08</ele>
        <time>2020-12-13T12:33:51Z</time>
      </trkpt>
      <trkpt lat="44.22238" lon="7.85273">
        <ele>1529.11</ele>
        <time>2020-12-13T12:33:52Z</time>
      </trkpt>
      <trkpt lat="44.22237" lon="7.85269">
        <ele>1528.15</ele>
        <time>2020-12-13T12:33:53Z</time>
      </trkpt>
      <trkpt lat="44.22236" lon="7.85253">
        <ele>1525.75</ele>
        <time>2020-12-13T12:33:56Z</time>
      </trkpt>
      <trkpt lat="44.22238" lon="7.85248">
        <ele>1525.27</ele>
        <time>2020-12-13T12:33:57Z</time>
      </trkpt>
      <trkpt lat="44.22242" lon="7.85245">
        <ele>1524.31</ele>
        <time>2020-12-13T12:33:58Z</time>
      </trkpt>
      <trkpt lat="44.22249" lon="7.85238">
        <ele>1522.87</ele>
        <time>2020-12-13T12:34:00Z</time>
      </trkpt>
      <trkpt lat="44.2225" lon="7.85234">
        <ele>1522.39</ele>
        <time>2020-12-13T12:34:01Z</time>
      </trkpt>
      <trkpt lat="44.22251" lon="7.8523">
        <ele>1521.42</ele>
        <time>2020-12-13T12:34:02Z</time>
      </trkpt>
      <trkpt lat="44.2225" lon="7.85226">
        <ele>1520.46</ele>
        <time>2020-12-13T12:34:03Z</time>
      </trkpt>
      <trkpt lat="44.2225" lon="7.85221">
        <ele>1519.5</ele>
        <time>2020-12-13T12:34:04Z</time>
      </trkpt>
      <trkpt lat="44.22255" lon="7.85201">
        <ele>1514.21</ele>
        <time>2020-12-13T12:34:11Z</time>
      </trkpt>
      <trkpt lat="44.22253" lon="7.85204">
        <ele>1511.33</ele>
        <time>2020-12-13T12:34:16Z</time>
      </trkpt>
      <trkpt lat="44.22257" lon="7.85203">
        <ele>1510.85</ele>
        <time>2020-12-13T12:34:18Z</time>
      </trkpt>
      <trkpt lat="44.22259" lon="7.85201">
        <ele>1510.85</ele>
        <time>2020-12-13T12:34:19Z</time>
      </trkpt>
      <trkpt lat="44.22259" lon="7.85198">
        <ele>1510.85</ele>
        <time>2020-12-13T12:34:20Z</time>
      </trkpt>
      <trkpt lat="44.2226" lon="7.85194">
        <ele>1510.85</ele>
        <time>2020-12-13T12:34:21Z</time>
      </trkpt>
      <trkpt lat="44.22261" lon="7.8519">
        <ele>1510.37</ele>
        <time>2020-12-13T12:34:22Z</time>
      </trkpt>
      <trkpt lat="44.22261" lon="7.85187">
        <ele>1509.41</ele>
        <time>2020-12-13T12:34:23Z</time>
      </trkpt>
      <trkpt lat="44.22261" lon="7.85183">
        <ele>1508.45</ele>
        <time>2020-12-13T12:34:24Z</time>
      </trkpt>
      <trkpt lat="44.2226" lon="7.85179">
        <ele>1507.97</ele>
        <time>2020-12-13T12:34:25Z</time>
      </trkpt>
      <trkpt lat="44.2226" lon="7.8517">
        <ele>1506.52</ele>
        <time>2020-12-13T12:34:27Z</time>
      </trkpt>
      <trkpt lat="44.22261" lon="7.85166">
        <ele>1505.56</ele>
        <time>2020-12-13T12:34:28Z</time>
      </trkpt>
      <trkpt lat="44.22265" lon="7.85143">
        <ele>1503.16</ele>
        <time>2020-12-13T12:34:33Z</time>
      </trkpt>
      <trkpt lat="44.22267" lon="7.85137">
        <ele>1502.2</ele>
        <time>2020-12-13T12:34:34Z</time>
      </trkpt>
      <trkpt lat="44.2227" lon="7.85132">
        <ele>1501.24</ele>
        <time>2020-12-13T12:34:35Z</time>
      </trkpt>
      <trkpt lat="44.22273" lon="7.85127">
        <ele>1500.27</ele>
        <time>2020-12-13T12:34:36Z</time>
      </trkpt>
      <trkpt lat="44.22275" lon="7.85123">
        <ele>1499.31</ele>
        <time>2020-12-13T12:34:37Z</time>
      </trkpt>
      <trkpt lat="44.22275" lon="7.85118">
        <ele>1498.83</ele>
        <time>2020-12-13T12:34:38Z</time>
      </trkpt>
      <trkpt lat="44.22277" lon="7.85098">
        <ele>1495.95</ele>
        <time>2020-12-13T12:34:42Z</time>
      </trkpt>
      <trkpt lat="44.22282" lon="7.85091">
        <ele>1494.51</ele>
        <time>2020-12-13T12:34:44Z</time>
      </trkpt>
      <trkpt lat="44.22283" lon="7.85087">
        <ele>1494.51</ele>
        <time>2020-12-13T12:34:45Z</time>
      </trkpt>
      <trkpt lat="44.22285" lon="7.85067">
        <ele>1493.06</ele>
        <time>2020-12-13T12:34:49Z</time>
      </trkpt>
      <trkpt lat="44.22286" lon="7.8506">
        <ele>1492.58</ele>
        <time>2020-12-13T12:34:50Z</time>
      </trkpt>
      <trkpt lat="44.22289" lon="7.85055">
        <ele>1492.1</ele>
        <time>2020-12-13T12:34:51Z</time>
      </trkpt>
      <trkpt lat="44.22292" lon="7.85053">
        <ele>1491.62</ele>
        <time>2020-12-13T12:34:52Z</time>
      </trkpt>
      <trkpt lat="44.22296" lon="7.85052">
        <ele>1491.14</ele>
        <time>2020-12-13T12:34:53Z</time>
      </trkpt>
      <trkpt lat="44.22301" lon="7.85051">
        <ele>1490.18</ele>
        <time>2020-12-13T12:34:54Z</time>
      </trkpt>
      <trkpt lat="44.22309" lon="7.85055">
        <ele>1486.82</ele>
        <time>2020-12-13T12:35:01Z</time>
      </trkpt>
      <trkpt lat="44.22309" lon="7.85061">
        <ele>1487.3</ele>
        <time>2020-12-13T12:35:27Z</time>
      </trkpt>
      <trkpt lat="44.22313" lon="7.85068">
        <ele>1489.7</ele>
        <time>2020-12-13T12:35:51Z</time>
      </trkpt>
      <trkpt lat="44.22328" lon="7.85092">
        <ele>1484.89</ele>
        <time>2020-12-13T12:36:04Z</time>
      </trkpt>
      <trkpt lat="44.22337" lon="7.8514">
        <ele>1476.72</ele>
        <time>2020-12-13T12:36:15Z</time>
      </trkpt>
      <trkpt lat="44.22338" lon="7.85152">
        <ele>1475.28</ele>
        <time>2020-12-13T12:36:17Z</time>
      </trkpt>
      <trkpt lat="44.22349" lon="7.8521">
        <ele>1469.99</ele>
        <time>2020-12-13T12:36:28Z</time>
      </trkpt>
      <trkpt lat="44.22357" lon="7.8524">
        <ele>1469.03</ele>
        <time>2020-12-13T12:36:33Z</time>
      </trkpt>
      <trkpt lat="44.2236" lon="7.85246">
        <ele>1468.55</ele>
        <time>2020-12-13T12:36:34Z</time>
      </trkpt>
      <trkpt lat="44.22362" lon="7.85252">
        <ele>1468.55</ele>
        <time>2020-12-13T12:36:35Z</time>
      </trkpt>
      <trkpt lat="44.22365" lon="7.85259">
        <ele>1468.07</ele>
        <time>2020-12-13T12:36:36Z</time>
      </trkpt>
      <trkpt lat="44.22368" lon="7.85266">
        <ele>1467.59</ele>
        <time>2020-12-13T12:36:37Z</time>
      </trkpt>
      <trkpt lat="44.2237" lon="7.85273">
        <ele>1467.11</ele>
        <time>2020-12-13T12:36:38Z</time>
      </trkpt>
      <trkpt lat="44.22373" lon="7.8528">
        <ele>1466.63</ele>
        <time>2020-12-13T12:36:39Z</time>
      </trkpt>
      <trkpt lat="44.22375" lon="7.85287">
        <ele>1466.63</ele>
        <time>2020-12-13T12:36:40Z</time>
      </trkpt>
      <trkpt lat="44.22377" lon="7.85293">
        <ele>1466.15</ele>
        <time>2020-12-13T12:36:41Z</time>
      </trkpt>
      <trkpt lat="44.22382" lon="7.85304">
        <ele>1465.67</ele>
        <time>2020-12-13T12:36:43Z</time>
      </trkpt>
      <trkpt lat="44.22384" lon="7.85309">
        <ele>1465.19</ele>
        <time>2020-12-13T12:36:44Z</time>
      </trkpt>
      <trkpt lat="44.22391" lon="7.85327">
        <ele>1464.23</ele>
        <time>2020-12-13T12:36:47Z</time>
      </trkpt>
      <trkpt lat="44.22393" lon="7.85334">
        <ele>1463.74</ele>
        <time>2020-12-13T12:36:48Z</time>
      </trkpt>
      <trkpt lat="44.22397" lon="7.85376">
        <ele>1461.82</ele>
        <time>2020-12-13T12:36:54Z</time>
      </trkpt>
      <trkpt lat="44.22398" lon="7.85383">
        <ele>1461.34</ele>
        <time>2020-12-13T12:36:55Z</time>
      </trkpt>
      <trkpt lat="44.22394" lon="7.85471">
        <ele>1457.98</ele>
        <time>2020-12-13T12:37:07Z</time>
      </trkpt>
      <trkpt lat="44.22396" lon="7.85554">
        <ele>1454.61</ele>
        <time>2020-12-13T12:37:18Z</time>
      </trkpt>
      <trkpt lat="44.22395" lon="7.85561">
        <ele>1454.13</ele>
        <time>2020-12-13T12:37:19Z</time>
      </trkpt>
      <trkpt lat="44.22393" lon="7.85574">
        <ele>1453.17</ele>
        <time>2020-12-13T12:37:21Z</time>
      </trkpt>
      <trkpt lat="44.22386" lon="7.85594">
        <ele>1452.21</ele>
        <time>2020-12-13T12:37:24Z</time>
      </trkpt>
      <trkpt lat="44.22364" lon="7.85646">
        <ele>1448.84</ele>
        <time>2020-12-13T12:37:32Z</time>
      </trkpt>
      <trkpt lat="44.22362" lon="7.85653">
        <ele>1448.36</ele>
        <time>2020-12-13T12:37:33Z</time>
      </trkpt>
      <trkpt lat="44.22356" lon="7.85696">
        <ele>1446.44</ele>
        <time>2020-12-13T12:37:39Z</time>
      </trkpt>
      <trkpt lat="44.22357" lon="7.85703">
        <ele>1446.44</ele>
        <time>2020-12-13T12:37:40Z</time>
      </trkpt>
      <trkpt lat="44.22359" lon="7.85729">
        <ele>1445</ele>
        <time>2020-12-13T12:37:44Z</time>
      </trkpt>
      <trkpt lat="44.22367" lon="7.8581">
        <ele>1441.15</ele>
        <time>2020-12-13T12:37:57Z</time>
      </trkpt>
      <trkpt lat="44.22366" lon="7.85817">
        <ele>1441.63</ele>
        <time>2020-12-13T12:37:59Z</time>
      </trkpt>
      <trkpt lat="44.22385" lon="7.85846">
        <ele>1438.27</ele>
        <time>2020-12-13T12:38:11Z</time>
      </trkpt>
      <trkpt lat="44.22387" lon="7.85847">
        <ele>1437.79</ele>
        <time>2020-12-13T12:38:12Z</time>
      </trkpt>
      <trkpt lat="44.22389" lon="7.85847">
        <ele>1436.83</ele>
        <time>2020-12-13T12:38:13Z</time>
      </trkpt>
      <trkpt lat="44.22391" lon="7.85848">
        <ele>1436.35</ele>
        <time>2020-12-13T12:38:14Z</time>
      </trkpt>
      <trkpt lat="44.22394" lon="7.85849">
        <ele>1435.39</ele>
        <time>2020-12-13T12:38:15Z</time>
      </trkpt>
      <trkpt lat="44.22426" lon="7.85887">
        <ele>1429.14</ele>
        <time>2020-12-13T12:38:25Z</time>
      </trkpt>
      <trkpt lat="44.22446" lon="7.85914">
        <ele>1424.33</ele>
        <time>2020-12-13T12:38:35Z</time>
      </trkpt>
      <trkpt lat="44.22473" lon="7.85953">
        <ele>1416.64</ele>
        <time>2020-12-13T12:38:44Z</time>
      </trkpt>
      <trkpt lat="44.22476" lon="7.85959">
        <ele>1416.16</ele>
        <time>2020-12-13T12:38:45Z</time>
      </trkpt>
      <trkpt lat="44.22478" lon="7.85965">
        <ele>1415.2</ele>
        <time>2020-12-13T12:38:46Z</time>
      </trkpt>
      <trkpt lat="44.2248" lon="7.85971">
        <ele>1414.72</ele>
        <time>2020-12-13T12:38:47Z</time>
      </trkpt>
      <trkpt lat="44.2248" lon="7.85977">
        <ele>1413.76</ele>
        <time>2020-12-13T12:38:48Z</time>
      </trkpt>
      <trkpt lat="44.22481" lon="7.85982">
        <ele>1413.28</ele>
        <time>2020-12-13T12:38:49Z</time>
      </trkpt>
      <trkpt lat="44.22478" lon="7.86029">
        <ele>1410.39</ele>
        <time>2020-12-13T12:38:58Z</time>
      </trkpt>
      <trkpt lat="44.22459" lon="7.86094">
        <ele>1414.24</ele>
        <time>2020-12-13T12:39:10Z</time>
      </trkpt>
      <trkpt lat="44.22459" lon="7.86098">
        <ele>1414.24</ele>
        <time>2020-12-13T12:39:11Z</time>
      </trkpt>
      <trkpt lat="44.22459" lon="7.86104">
        <ele>1414.72</ele>
        <time>2020-12-13T12:39:12Z</time>
      </trkpt>
      <trkpt lat="44.22466" lon="7.86163">
        <ele>1414.72</ele>
        <time>2020-12-13T12:39:24Z</time>
      </trkpt>
      <trkpt lat="44.22467" lon="7.86169">
        <ele>1414.24</ele>
        <time>2020-12-13T12:39:25Z</time>
      </trkpt>
      <trkpt lat="44.22468" lon="7.86174">
        <ele>1414.24</ele>
        <time>2020-12-13T12:39:26Z</time>
      </trkpt>
      <trkpt lat="44.2247" lon="7.8618">
        <ele>1414.24</ele>
        <time>2020-12-13T12:39:27Z</time>
      </trkpt>
      <trkpt lat="44.22472" lon="7.86185">
        <ele>1414.24</ele>
        <time>2020-12-13T12:39:28Z</time>
      </trkpt>
      <trkpt lat="44.22474" lon="7.86191">
        <ele>1413.76</ele>
        <time>2020-12-13T12:39:29Z</time>
      </trkpt>
      <trkpt lat="44.22476" lon="7.86197">
        <ele>1413.76</ele>
        <time>2020-12-13T12:39:30Z</time>
      </trkpt>
      <trkpt lat="44.22478" lon="7.86203">
        <ele>1412.79</ele>
        <time>2020-12-13T12:39:31Z</time>
      </trkpt>
      <trkpt lat="44.22512" lon="7.86269">
        <ele>1407.51</ele>
        <time>2020-12-13T12:39:44Z</time>
      </trkpt>
      <trkpt lat="44.22514" lon="7.86275">
        <ele>1407.03</ele>
        <time>2020-12-13T12:39:45Z</time>
      </trkpt>
      <trkpt lat="44.22517" lon="7.86333">
        <ele>1399.82</ele>
        <time>2020-12-13T12:39:56Z</time>
      </trkpt>
      <trkpt lat="44.22505" lon="7.86381">
        <ele>1395.97</ele>
        <time>2020-12-13T12:40:07Z</time>
      </trkpt>
      <trkpt lat="44.22496" lon="7.86423">
        <ele>1395.97</ele>
        <time>2020-12-13T12:40:22Z</time>
      </trkpt>
      <trkpt lat="44.22491" lon="7.86446">
        <ele>1397.89</ele>
        <time>2020-12-13T12:40:34Z</time>
      </trkpt>
      <trkpt lat="44.22488" lon="7.86454">
        <ele>1398.37</ele>
        <time>2020-12-13T12:40:56Z</time>
      </trkpt>
      <trkpt lat="44.2249" lon="7.8646">
        <ele>1401.74</ele>
        <time>2020-12-13T12:41:15Z</time>
      </trkpt>
      <trkpt lat="44.22492" lon="7.8646">
        <ele>1403.66</ele>
        <time>2020-12-13T12:41:32Z</time>
      </trkpt>
      <trkpt lat="44.22499" lon="7.86459">
        <ele>1405.58</ele>
        <time>2020-12-13T12:41:55Z</time>
      </trkpt>
      <trkpt lat="44.22504" lon="7.86466">
        <ele>1405.1</ele>
        <time>2020-12-13T12:42:05Z</time>
      </trkpt>
      <trkpt lat="44.22532" lon="7.86476">
        <ele>1399.34</ele>
        <time>2020-12-13T12:42:16Z</time>
      </trkpt>
      <trkpt lat="44.22573" lon="7.86515">
        <ele>1389.24</ele>
        <time>2020-12-13T12:42:28Z</time>
      </trkpt>
      <trkpt lat="44.226" lon="7.86548">
        <ele>1383.96</ele>
        <time>2020-12-13T12:42:39Z</time>
      </trkpt>
      <trkpt lat="44.22614" lon="7.86557">
        <ele>1383.96</ele>
        <time>2020-12-13T12:42:52Z</time>
      </trkpt>
      <trkpt lat="44.2262" lon="7.86562">
        <ele>1385.88</ele>
        <time>2020-12-13T12:43:06Z</time>
      </trkpt>
      <trkpt lat="44.22622" lon="7.86562">
        <ele>1387.32</ele>
        <time>2020-12-13T12:43:19Z</time>
      </trkpt>
      <trkpt lat="44.2263" lon="7.8658">
        <ele>1388.28</ele>
        <time>2020-12-13T12:43:35Z</time>
      </trkpt>
      <trkpt lat="44.22634" lon="7.86587">
        <ele>1386.84</ele>
        <time>2020-12-13T12:43:48Z</time>
      </trkpt>
      <trkpt lat="44.22635" lon="7.86589">
        <ele>1387.32</ele>
        <time>2020-12-13T12:44:03Z</time>
      </trkpt>
      <trkpt lat="44.22636" lon="7.86588">
        <ele>1387.32</ele>
        <time>2020-12-13T12:44:07Z</time>
      </trkpt>
      <trkpt lat="44.22645" lon="7.86571">
        <ele>1382.51</ele>
        <time>2020-12-13T12:44:15Z</time>
      </trkpt>
      <trkpt lat="44.22646" lon="7.86567">
        <ele>1380.59</ele>
        <time>2020-12-13T12:44:20Z</time>
      </trkpt>
      <trkpt lat="44.22653" lon="7.86562">
        <ele>1374.34</ele>
        <time>2020-12-13T12:44:29Z</time>
      </trkpt>
      <trkpt lat="44.22654" lon="7.86561">
        <ele>1372.9</ele>
        <time>2020-12-13T12:44:32Z</time>
      </trkpt>
      <trkpt lat="44.2266" lon="7.86569">
        <ele>1370.5</ele>
        <time>2020-12-13T12:44:40Z</time>
      </trkpt>
      <trkpt lat="44.2266" lon="7.86566">
        <ele>1366.17</ele>
        <time>2020-12-13T12:44:46Z</time>
      </trkpt>
      <trkpt lat="44.22661" lon="7.86555">
        <ele>1364.73</ele>
        <time>2020-12-13T12:44:53Z</time>
      </trkpt>
      <trkpt lat="44.22662" lon="7.86555">
        <ele>1364.73</ele>
        <time>2020-12-13T12:44:55Z</time>
      </trkpt>
      <trkpt lat="44.22666" lon="7.86536">
        <ele>1362.33</ele>
        <time>2020-12-13T12:45:02Z</time>
      </trkpt>
      <trkpt lat="44.22693" lon="7.86536">
        <ele>1356.08</ele>
        <time>2020-12-13T12:45:10Z</time>
      </trkpt>
      <trkpt lat="44.22693" lon="7.86531">
        <ele>1355.6</ele>
        <time>2020-12-13T12:45:11Z</time>
      </trkpt>
      <trkpt lat="44.2271" lon="7.86518">
        <ele>1348.39</ele>
        <time>2020-12-13T12:45:17Z</time>
      </trkpt>
      <trkpt lat="44.22717" lon="7.86522">
        <ele>1346.46</ele>
        <time>2020-12-13T12:45:19Z</time>
      </trkpt>
      <trkpt lat="44.22722" lon="7.86507">
        <ele>1342.14</ele>
        <time>2020-12-13T12:45:25Z</time>
      </trkpt>
      <trkpt lat="44.22722" lon="7.86507">
        <ele>1339.73</ele>
        <time>2020-12-13T12:45:33Z</time>
      </trkpt>
      <trkpt lat="44.22721" lon="7.86505">
        <ele>1338.77</ele>
        <time>2020-12-13T12:46:00Z</time>
      </trkpt>
      <trkpt lat="44.22723" lon="7.86505">
        <ele>1340.22</ele>
        <time>2020-12-13T12:46:14Z</time>
      </trkpt>
      <trkpt lat="44.22725" lon="7.86504">
        <ele>1342.14</ele>
        <time>2020-12-13T12:46:33Z</time>
      </trkpt>
      <trkpt lat="44.22736" lon="7.86498">
        <ele>1340.22</ele>
        <time>2020-12-13T12:46:37Z</time>
      </trkpt>
      <trkpt lat="44.22736" lon="7.86481">
        <ele>1335.41</ele>
        <time>2020-12-13T12:46:42Z</time>
      </trkpt>
      <trkpt lat="44.22731" lon="7.86476">
        <ele>1333.49</ele>
        <time>2020-12-13T12:46:44Z</time>
      </trkpt>
      <trkpt lat="44.22741" lon="7.86468">
        <ele>1327.24</ele>
        <time>2020-12-13T12:46:49Z</time>
      </trkpt>
      <trkpt lat="44.22753" lon="7.86449">
        <ele>1319.07</ele>
        <time>2020-12-13T12:46:56Z</time>
      </trkpt>
      <trkpt lat="44.22761" lon="7.86447">
        <ele>1316.18</ele>
        <time>2020-12-13T12:46:59Z</time>
      </trkpt>
      <trkpt lat="44.22763" lon="7.86432">
        <ele>1311.86</ele>
        <time>2020-12-13T12:47:03Z</time>
      </trkpt>
      <trkpt lat="44.22757" lon="7.86425">
        <ele>1304.65</ele>
        <time>2020-12-13T12:47:11Z</time>
      </trkpt>
      <trkpt lat="44.22751" lon="7.86425">
        <ele>1302.72</ele>
        <time>2020-12-13T12:47:37Z</time>
      </trkpt>
      <trkpt lat="44.22751" lon="7.86425">
        <ele>1302.24</ele>
        <time>2020-12-13T12:47:41Z</time>
      </trkpt>
      <trkpt lat="44.22761" lon="7.86419">
        <ele>1299.84</ele>
        <time>2020-12-13T12:47:47Z</time>
      </trkpt>
      <trkpt lat="44.2276" lon="7.86417">
        <ele>1298.88</ele>
        <time>2020-12-13T12:48:00Z</time>
      </trkpt>
      <trkpt lat="44.22775" lon="7.86404">
        <ele>1296.48</ele>
        <time>2020-12-13T12:48:05Z</time>
      </trkpt>
      <trkpt lat="44.22804" lon="7.86388">
        <ele>1289.75</ele>
        <time>2020-12-13T12:48:11Z</time>
      </trkpt>
      <trkpt lat="44.22834" lon="7.86364">
        <ele>1282.54</ele>
        <time>2020-12-13T12:48:21Z</time>
      </trkpt>
      <trkpt lat="44.22836" lon="7.86362">
        <ele>1275.81</ele>
        <time>2020-12-13T12:48:31Z</time>
      </trkpt>
      <trkpt lat="44.22837" lon="7.86364">
        <ele>1272.92</ele>
        <time>2020-12-13T12:48:36Z</time>
      </trkpt>
      <trkpt lat="44.22842" lon="7.86375">
        <ele>1266.67</ele>
        <time>2020-12-13T12:48:47Z</time>
      </trkpt>
      <trkpt lat="44.22841" lon="7.86383">
        <ele>1260.91</ele>
        <time>2020-12-13T12:49:04Z</time>
      </trkpt>
      <trkpt lat="44.22844" lon="7.86376">
        <ele>1263.79</ele>
        <time>2020-12-13T12:49:22Z</time>
      </trkpt>
      <trkpt lat="44.22846" lon="7.86368">
        <ele>1263.31</ele>
        <time>2020-12-13T12:49:39Z</time>
      </trkpt>
      <trkpt lat="44.22849" lon="7.86366">
        <ele>1265.71</ele>
        <time>2020-12-13T12:49:57Z</time>
      </trkpt>
      <trkpt lat="44.2285" lon="7.86369">
        <ele>1265.71</ele>
        <time>2020-12-13T12:50:03Z</time>
      </trkpt>
      <trkpt lat="44.22859" lon="7.86383">
        <ele>1261.87</ele>
        <time>2020-12-13T12:50:10Z</time>
      </trkpt>
      <trkpt lat="44.22867" lon="7.86384">
        <ele>1257.54</ele>
        <time>2020-12-13T12:50:14Z</time>
      </trkpt>
      <trkpt lat="44.22882" lon="7.86373">
        <ele>1247.45</ele>
        <time>2020-12-13T12:50:21Z</time>
      </trkpt>
      <trkpt lat="44.22881" lon="7.86376">
        <ele>1238.8</ele>
        <time>2020-12-13T12:50:27Z</time>
      </trkpt>
      <trkpt lat="44.2288" lon="7.86374">
        <ele>1235.91</ele>
        <time>2020-12-13T12:50:33Z</time>
      </trkpt>
      <trkpt lat="44.22893" lon="7.86375">
        <ele>1235.43</ele>
        <time>2020-12-13T12:50:39Z</time>
      </trkpt>
      <trkpt lat="44.22907" lon="7.86376">
        <ele>1230.14</ele>
        <time>2020-12-13T12:50:45Z</time>
      </trkpt>
      <trkpt lat="44.22912" lon="7.86375">
        <ele>1227.74</ele>
        <time>2020-12-13T12:50:47Z</time>
      </trkpt>
      <trkpt lat="44.22909" lon="7.86392">
        <ele>1225.34</ele>
        <time>2020-12-13T12:50:54Z</time>
      </trkpt>
      <trkpt lat="44.22906" lon="7.86396">
        <ele>1222.45</ele>
        <time>2020-12-13T12:51:01Z</time>
      </trkpt>
      <trkpt lat="44.22923" lon="7.86387">
        <ele>1219.09</ele>
        <time>2020-12-13T12:51:07Z</time>
      </trkpt>
      <trkpt lat="44.22935" lon="7.86391">
        <ele>1214.28</ele>
        <time>2020-12-13T12:51:11Z</time>
      </trkpt>
      <trkpt lat="44.22949" lon="7.86391">
        <ele>1209</ele>
        <time>2020-12-13T12:51:16Z</time>
      </trkpt>
      <trkpt lat="44.22955" lon="7.864">
        <ele>1205.63</ele>
        <time>2020-12-13T12:51:23Z</time>
      </trkpt>
      <trkpt lat="44.22955" lon="7.86402">
        <ele>1205.15</ele>
        <time>2020-12-13T12:51:43Z</time>
      </trkpt>
      <trkpt lat="44.22956" lon="7.86403">
        <ele>1205.15</ele>
        <time>2020-12-13T12:51:45Z</time>
      </trkpt>
      <trkpt lat="44.22962" lon="7.86405">
        <ele>1201.3</ele>
        <time>2020-12-13T12:51:52Z</time>
      </trkpt>
      <trkpt lat="44.22964" lon="7.86404">
        <ele>1204.67</ele>
        <time>2020-12-13T12:52:13Z</time>
      </trkpt>
      <trkpt lat="44.22964" lon="7.86401">
        <ele>1205.15</ele>
        <time>2020-12-13T12:52:31Z</time>
      </trkpt>
      <trkpt lat="44.22966" lon="7.86404">
        <ele>1202.27</ele>
        <time>2020-12-13T12:52:44Z</time>
      </trkpt>
      <trkpt lat="44.22977" lon="7.86403">
        <ele>1198.9</ele>
        <time>2020-12-13T12:52:51Z</time>
      </trkpt>
      <trkpt lat="44.22981" lon="7.8638">
        <ele>1195.54</ele>
        <time>2020-12-13T12:52:57Z</time>
      </trkpt>
      <trkpt lat="44.22982" lon="7.8637">
        <ele>1193.61</ele>
        <time>2020-12-13T12:52:59Z</time>
      </trkpt>
      <trkpt lat="44.22986" lon="7.86358">
        <ele>1191.21</ele>
        <time>2020-12-13T12:53:01Z</time>
      </trkpt>
      <trkpt lat="44.22994" lon="7.86323">
        <ele>1184.96</ele>
        <time>2020-12-13T12:53:06Z</time>
      </trkpt>
      <trkpt lat="44.23003" lon="7.86298">
        <ele>1180.16</ele>
        <time>2020-12-13T12:53:10Z</time>
      </trkpt>
      <trkpt lat="44.23003" lon="7.86286">
        <ele>1177.75</ele>
        <time>2020-12-13T12:53:13Z</time>
      </trkpt>
      <trkpt lat="44.2301" lon="7.86283">
        <ele>1173.91</ele>
        <time>2020-12-13T12:53:16Z</time>
      </trkpt>
      <trkpt lat="44.23013" lon="7.86292">
        <ele>1165.74</ele>
        <time>2020-12-13T12:53:25Z</time>
      </trkpt>
      <trkpt lat="44.23015" lon="7.86294">
        <ele>1163.81</ele>
        <time>2020-12-13T12:53:28Z</time>
      </trkpt>
      <trkpt lat="44.2302" lon="7.86285">
        <ele>1160.93</ele>
        <time>2020-12-13T12:53:31Z</time>
      </trkpt>
      <trkpt lat="44.23019" lon="7.86282">
        <ele>1159.97</ele>
        <time>2020-12-13T12:53:32Z</time>
      </trkpt>
      <trkpt lat="44.23013" lon="7.86253">
        <ele>1150.84</ele>
        <time>2020-12-13T12:53:41Z</time>
      </trkpt>
      <trkpt lat="44.23017" lon="7.86254">
        <ele>1150.35</ele>
        <time>2020-12-13T12:53:46Z</time>
      </trkpt>
      <trkpt lat="44.2302" lon="7.86256">
        <ele>1150.35</ele>
        <time>2020-12-13T12:53:47Z</time>
      </trkpt>
      <trkpt lat="44.23023" lon="7.86259">
        <ele>1150.35</ele>
        <time>2020-12-13T12:53:48Z</time>
      </trkpt>
      <trkpt lat="44.23025" lon="7.86262">
        <ele>1150.35</ele>
        <time>2020-12-13T12:53:49Z</time>
      </trkpt>
      <trkpt lat="44.23029" lon="7.86262">
        <ele>1151.32</ele>
        <time>2020-12-13T12:54:00Z</time>
      </trkpt>
      <trkpt lat="44.23032" lon="7.86261">
        <ele>1155.16</ele>
        <time>2020-12-13T12:54:21Z</time>
      </trkpt>
      <trkpt lat="44.23035" lon="7.86259">
        <ele>1155.16</ele>
        <time>2020-12-13T12:54:23Z</time>
      </trkpt>
      <trkpt lat="44.23037" lon="7.86255">
        <ele>1155.16</ele>
        <time>2020-12-13T12:54:24Z</time>
      </trkpt>
      <trkpt lat="44.23038" lon="7.8625">
        <ele>1154.68</ele>
        <time>2020-12-13T12:54:25Z</time>
      </trkpt>
      <trkpt lat="44.23037" lon="7.86247">
        <ele>1154.2</ele>
        <time>2020-12-13T12:54:26Z</time>
      </trkpt>
      <trkpt lat="44.23035" lon="7.86244">
        <ele>1154.2</ele>
        <time>2020-12-13T12:54:27Z</time>
      </trkpt>
      <trkpt lat="44.23034" lon="7.8624">
        <ele>1154.2</ele>
        <time>2020-12-13T12:54:28Z</time>
      </trkpt>
      <trkpt lat="44.23033" lon="7.86237">
        <ele>1153.72</ele>
        <time>2020-12-13T12:54:29Z</time>
      </trkpt>
      <trkpt lat="44.23032" lon="7.86235">
        <ele>1153.72</ele>
        <time>2020-12-13T12:54:30Z</time>
      </trkpt>
      <trkpt lat="44.23035" lon="7.86231">
        <ele>1153.72</ele>
        <time>2020-12-13T12:54:35Z</time>
      </trkpt>
      <trkpt lat="44.23042" lon="7.86233">
        <ele>1151.32</ele>
        <time>2020-12-13T12:54:37Z</time>
      </trkpt>
      <trkpt lat="44.23046" lon="7.86234">
        <ele>1150.35</ele>
        <time>2020-12-13T12:54:38Z</time>
      </trkpt>
      <trkpt lat="44.23049" lon="7.86234">
        <ele>1149.39</ele>
        <time>2020-12-13T12:54:39Z</time>
      </trkpt>
      <trkpt lat="44.23052" lon="7.86233">
        <ele>1148.91</ele>
        <time>2020-12-13T12:54:40Z</time>
      </trkpt>
      <trkpt lat="44.23054" lon="7.86231">
        <ele>1148.43</ele>
        <time>2020-12-13T12:54:41Z</time>
      </trkpt>
      <trkpt lat="44.23056" lon="7.86228">
        <ele>1147.95</ele>
        <time>2020-12-13T12:54:42Z</time>
      </trkpt>
      <trkpt lat="44.23059" lon="7.86225">
        <ele>1147.47</ele>
        <time>2020-12-13T12:54:43Z</time>
      </trkpt>
      <trkpt lat="44.23062" lon="7.86224">
        <ele>1146.99</ele>
        <time>2020-12-13T12:54:44Z</time>
      </trkpt>
      <trkpt lat="44.23065" lon="7.86224">
        <ele>1146.51</ele>
        <time>2020-12-13T12:54:45Z</time>
      </trkpt>
      <trkpt lat="44.23068" lon="7.86225">
        <ele>1146.51</ele>
        <time>2020-12-13T12:54:46Z</time>
      </trkpt>
      <trkpt lat="44.23074" lon="7.86223">
        <ele>1146.03</ele>
        <time>2020-12-13T12:54:48Z</time>
      </trkpt>
      <trkpt lat="44.23076" lon="7.8622">
        <ele>1146.03</ele>
        <time>2020-12-13T12:54:49Z</time>
      </trkpt>
      <trkpt lat="44.23077" lon="7.86217">
        <ele>1146.03</ele>
        <time>2020-12-13T12:54:50Z</time>
      </trkpt>
      <trkpt lat="44.23077" lon="7.86214">
        <ele>1146.03</ele>
        <time>2020-12-13T12:54:51Z</time>
      </trkpt>
      <trkpt lat="44.23077" lon="7.86209">
        <ele>1146.03</ele>
        <time>2020-12-13T12:54:52Z</time>
      </trkpt>
      <trkpt lat="44.23077" lon="7.86197">
        <ele>1146.51</ele>
        <time>2020-12-13T12:55:01Z</time>
      </trkpt>
      <trkpt lat="44.23075" lon="7.86194">
        <ele>1147.95</ele>
        <time>2020-12-13T12:55:09Z</time>
      </trkpt>
      <trkpt lat="44.23072" lon="7.86186">
        <ele>1147.95</ele>
        <time>2020-12-13T12:55:11Z</time>
      </trkpt>
      <trkpt lat="44.23075" lon="7.86131">
        <ele>1141.22</ele>
        <time>2020-12-13T12:55:22Z</time>
      </trkpt>
      <trkpt lat="44.23095" lon="7.86109">
        <ele>1135.94</ele>
        <time>2020-12-13T12:55:33Z</time>
      </trkpt>
      <trkpt lat="44.2312" lon="7.86069">
        <ele>1130.17</ele>
        <time>2020-12-13T12:55:46Z</time>
      </trkpt>
      <trkpt lat="44.23135" lon="7.86038">
        <ele>1125.36</ele>
        <time>2020-12-13T12:55:54Z</time>
      </trkpt>
      <trkpt lat="44.23147" lon="7.86002">
        <ele>1120.55</ele>
        <time>2020-12-13T12:56:02Z</time>
      </trkpt>
      <trkpt lat="44.23169" lon="7.85966">
        <ele>1115.75</ele>
        <time>2020-12-13T12:56:11Z</time>
      </trkpt>
      <trkpt lat="44.23182" lon="7.85941">
        <ele>1109.02</ele>
        <time>2020-12-13T12:56:19Z</time>
      </trkpt>
      <trkpt lat="44.23183" lon="7.85943">
        <ele>1109.98</ele>
        <time>2020-12-13T12:56:28Z</time>
      </trkpt>
      <trkpt lat="44.23181" lon="7.85943">
        <ele>1109.5</ele>
        <time>2020-12-13T12:56:29Z</time>
      </trkpt>
      <trkpt lat="44.23177" lon="7.85939">
        <ele>1109.02</ele>
        <time>2020-12-13T12:56:39Z</time>
      </trkpt>
      <trkpt lat="44.23178" lon="7.85938">
        <ele>1109.02</ele>
        <time>2020-12-13T12:56:40Z</time>
      </trkpt>
      <trkpt lat="44.23186" lon="7.85929">
        <ele>1107.1</ele>
        <time>2020-12-13T12:56:45Z</time>
      </trkpt>
      <trkpt lat="44.2319" lon="7.85926">
        <ele>1107.1</ele>
        <time>2020-12-13T12:56:47Z</time>
      </trkpt>
      <trkpt lat="44.23188" lon="7.85922">
        <ele>1106.13</ele>
        <time>2020-12-13T12:56:55Z</time>
      </trkpt>
      <trkpt lat="44.23181" lon="7.85924">
        <ele>1105.65</ele>
        <time>2020-12-13T12:57:04Z</time>
      </trkpt>
      <trkpt lat="44.2318" lon="7.85924">
        <ele>1105.65</ele>
        <time>2020-12-13T12:57:05Z</time>
      </trkpt>
      <trkpt lat="44.23178" lon="7.85924">
        <ele>1105.65</ele>
        <time>2020-12-13T12:57:06Z</time>
      </trkpt>
      <trkpt lat="44.23173" lon="7.85928">
        <ele>1105.17</ele>
        <time>2020-12-13T12:57:10Z</time>
      </trkpt>
      <trkpt lat="44.23172" lon="7.85929">
        <ele>1105.17</ele>
        <time>2020-12-13T12:57:11Z</time>
      </trkpt>
      <trkpt lat="44.23158" lon="7.85942">
        <ele>1105.17</ele>
        <time>2020-12-13T12:57:19Z</time>
      </trkpt>
      <trkpt lat="44.23157" lon="7.85941">
        <ele>1104.69</ele>
        <time>2020-12-13T12:57:20Z</time>
      </trkpt>
      <trkpt lat="44.23156" lon="7.85939">
        <ele>1104.21</ele>
        <time>2020-12-13T12:57:21Z</time>
      </trkpt>
      <trkpt lat="44.23156" lon="7.85936">
        <ele>1103.73</ele>
        <time>2020-12-13T12:57:22Z</time>
      </trkpt>
      <trkpt lat="44.23158" lon="7.85933">
        <ele>1102.77</ele>
        <time>2020-12-13T12:57:23Z</time>
      </trkpt>
      <trkpt lat="44.2316" lon="7.8593">
        <ele>1101.81</ele>
        <time>2020-12-13T12:57:24Z</time>
      </trkpt>
      <trkpt lat="44.23162" lon="7.85927">
        <ele>1100.85</ele>
        <time>2020-12-13T12:57:25Z</time>
      </trkpt>
      <trkpt lat="44.23165" lon="7.8592">
        <ele>1099.4</ele>
        <time>2020-12-13T12:57:27Z</time>
      </trkpt>
      <trkpt lat="44.23184" lon="7.8588">
        <ele>1093.64</ele>
        <time>2020-12-13T12:57:38Z</time>
      </trkpt>
      <trkpt lat="44.23197" lon="7.85856">
        <ele>1091.23</ele>
        <time>2020-12-13T12:57:47Z</time>
      </trkpt>
      <trkpt lat="44.23199" lon="7.85855">
        <ele>1090.75</ele>
        <time>2020-12-13T12:57:48Z</time>
      </trkpt>
      <trkpt lat="44.232" lon="7.85855">
        <ele>1090.27</ele>
        <time>2020-12-13T12:57:49Z</time>
      </trkpt>
      <trkpt lat="44.23203" lon="7.85854">
        <ele>1090.75</ele>
        <time>2020-12-13T12:57:54Z</time>
      </trkpt>
      <trkpt lat="44.23205" lon="7.85844">
        <ele>1089.79</ele>
        <time>2020-12-13T12:57:56Z</time>
      </trkpt>
      <trkpt lat="44.23207" lon="7.85838">
        <ele>1089.31</ele>
        <time>2020-12-13T12:57:57Z</time>
      </trkpt>
      <trkpt lat="44.2321" lon="7.85833">
        <ele>1088.83</ele>
        <time>2020-12-13T12:57:58Z</time>
      </trkpt>
      <trkpt lat="44.23231" lon="7.85802">
        <ele>1084.02</ele>
        <time>2020-12-13T12:58:05Z</time>
      </trkpt>
      <trkpt lat="44.23231" lon="7.858">
        <ele>1083.54</ele>
        <time>2020-12-13T12:58:07Z</time>
      </trkpt>
      <trkpt lat="44.23233" lon="7.85793">
        <ele>1083.06</ele>
        <time>2020-12-13T12:58:09Z</time>
      </trkpt>
      <trkpt lat="44.23234" lon="7.85786">
        <ele>1083.54</ele>
        <time>2020-12-13T12:58:17Z</time>
      </trkpt>
      <trkpt lat="44.23242" lon="7.85759">
        <ele>1079.22</ele>
        <time>2020-12-13T12:58:24Z</time>
      </trkpt>
      <trkpt lat="44.23242" lon="7.85757">
        <ele>1078.74</ele>
        <time>2020-12-13T12:58:25Z</time>
      </trkpt>
      <trkpt lat="44.23243" lon="7.85754">
        <ele>1078.26</ele>
        <time>2020-12-13T12:58:26Z</time>
      </trkpt>
      <trkpt lat="44.23243" lon="7.85746">
        <ele>1076.81</ele>
        <time>2020-12-13T12:58:37Z</time>
      </trkpt>
      <trkpt lat="44.23243" lon="7.85746">
        <ele>1076.81</ele>
        <time>2020-12-13T12:58:38Z</time>
      </trkpt>
      <trkpt lat="44.23231" lon="7.85747">
        <ele>1072.01</ele>
        <time>2020-12-13T12:58:50Z</time>
      </trkpt>
      <trkpt lat="44.2323" lon="7.85744">
        <ele>1069.12</ele>
        <time>2020-12-13T12:58:57Z</time>
      </trkpt>
      <trkpt lat="44.23231" lon="7.85743">
        <ele>1068.16</ele>
        <time>2020-12-13T12:58:58Z</time>
      </trkpt>
      <trkpt lat="44.23233" lon="7.85741">
        <ele>1067.68</ele>
        <time>2020-12-13T12:58:59Z</time>
      </trkpt>
      <trkpt lat="44.23234" lon="7.85739">
        <ele>1066.72</ele>
        <time>2020-12-13T12:59:00Z</time>
      </trkpt>
      <trkpt lat="44.23235" lon="7.85737">
        <ele>1066.24</ele>
        <time>2020-12-13T12:59:01Z</time>
      </trkpt>
      <trkpt lat="44.23235" lon="7.85735">
        <ele>1065.76</ele>
        <time>2020-12-13T12:59:02Z</time>
      </trkpt>
      <trkpt lat="44.23236" lon="7.85733">
        <ele>1064.8</ele>
        <time>2020-12-13T12:59:03Z</time>
      </trkpt>
      <trkpt lat="44.23237" lon="7.8573">
        <ele>1064.32</ele>
        <time>2020-12-13T12:59:04Z</time>
      </trkpt>
      <trkpt lat="44.23241" lon="7.85726">
        <ele>1062.39</ele>
        <time>2020-12-13T12:59:06Z</time>
      </trkpt>
      <trkpt lat="44.23241" lon="7.85722">
        <ele>1058.55</ele>
        <time>2020-12-13T12:59:15Z</time>
      </trkpt>
      <trkpt lat="44.23242" lon="7.8572">
        <ele>1058.07</ele>
        <time>2020-12-13T12:59:18Z</time>
      </trkpt>
      <trkpt lat="44.23243" lon="7.85719">
        <ele>1058.07</ele>
        <time>2020-12-13T12:59:19Z</time>
      </trkpt>
      <trkpt lat="44.23245" lon="7.85717">
        <ele>1057.59</ele>
        <time>2020-12-13T12:59:20Z</time>
      </trkpt>
      <trkpt lat="44.23247" lon="7.85715">
        <ele>1057.11</ele>
        <time>2020-12-13T12:59:21Z</time>
      </trkpt>
      <trkpt lat="44.23249" lon="7.85714">
        <ele>1056.63</ele>
        <time>2020-12-13T12:59:22Z</time>
      </trkpt>
      <trkpt lat="44.23251" lon="7.85712">
        <ele>1055.67</ele>
        <time>2020-12-13T12:59:23Z</time>
      </trkpt>
      <trkpt lat="44.23254" lon="7.85708">
        <ele>1055.18</ele>
        <time>2020-12-13T12:59:28Z</time>
      </trkpt>
      <trkpt lat="44.23255" lon="7.85706">
        <ele>1054.7</ele>
        <time>2020-12-13T12:59:29Z</time>
      </trkpt>
      <trkpt lat="44.23268" lon="7.85693">
        <ele>1048.94</ele>
        <time>2020-12-13T12:59:38Z</time>
      </trkpt>
      <trkpt lat="44.23269" lon="7.8569">
        <ele>1049.42</ele>
        <time>2020-12-13T12:59:45Z</time>
      </trkpt>
      <trkpt lat="44.23276" lon="7.85686">
        <ele>1047.97</ele>
        <time>2020-12-13T12:59:48Z</time>
      </trkpt>
      <trkpt lat="44.23288" lon="7.85685">
        <ele>1046.53</ele>
        <time>2020-12-13T12:59:55Z</time>
      </trkpt>
      <trkpt lat="44.23291" lon="7.85685">
        <ele>1046.05</ele>
        <time>2020-12-13T12:59:58Z</time>
      </trkpt>
      <trkpt lat="44.23297" lon="7.85679">
        <ele>1043.17</ele>
        <time>2020-12-13T13:00:09Z</time>
      </trkpt>
      <trkpt lat="44.23298" lon="7.85676">
        <ele>1043.17</ele>
        <time>2020-12-13T13:00:11Z</time>
      </trkpt>
      <trkpt lat="44.23299" lon="7.85673">
        <ele>1042.21</ele>
        <time>2020-12-13T13:00:12Z</time>
      </trkpt>
      <trkpt lat="44.23301" lon="7.85671">
        <ele>1041.25</ele>
        <time>2020-12-13T13:00:13Z</time>
      </trkpt>
      <trkpt lat="44.233" lon="7.85672">
        <ele>1039.32</ele>
        <time>2020-12-13T13:00:21Z</time>
      </trkpt>
      <trkpt lat="44.23302" lon="7.8567">
        <ele>1038.84</ele>
        <time>2020-12-13T13:00:23Z</time>
      </trkpt>
      <trkpt lat="44.23305" lon="7.85668">
        <ele>1038.36</ele>
        <time>2020-12-13T13:00:24Z</time>
      </trkpt>
      <trkpt lat="44.23324" lon="7.8564">
        <ele>1032.59</ele>
        <time>2020-12-13T13:00:33Z</time>
      </trkpt>
      <trkpt lat="44.23324" lon="7.85637">
        <ele>1032.11</ele>
        <time>2020-12-13T13:00:34Z</time>
      </trkpt>
      <trkpt lat="44.23323" lon="7.85628">
        <ele>1033.07</ele>
        <time>2020-12-13T13:00:43Z</time>
      </trkpt>
      <trkpt lat="44.23327" lon="7.85627">
        <ele>1032.59</ele>
        <time>2020-12-13T13:00:47Z</time>
      </trkpt>
      <trkpt lat="44.23329" lon="7.85627">
        <ele>1032.59</ele>
        <time>2020-12-13T13:00:48Z</time>
      </trkpt>
      <trkpt lat="44.2333" lon="7.85627">
        <ele>1032.59</ele>
        <time>2020-12-13T13:00:49Z</time>
      </trkpt>
      <trkpt lat="44.23333" lon="7.8563">
        <ele>1032.59</ele>
        <time>2020-12-13T13:01:02Z</time>
      </trkpt>
      <trkpt lat="44.23334" lon="7.85627">
        <ele>1034.52</ele>
        <time>2020-12-13T13:01:23Z</time>
      </trkpt>
      <trkpt lat="44.23339" lon="7.85622">
        <ele>1035.48</ele>
        <time>2020-12-13T13:01:31Z</time>
      </trkpt>
      <trkpt lat="44.2334" lon="7.85621">
        <ele>1035.48</ele>
        <time>2020-12-13T13:01:32Z</time>
      </trkpt>
      <trkpt lat="44.23341" lon="7.8562">
        <ele>1035</ele>
        <time>2020-12-13T13:01:33Z</time>
      </trkpt>
      <trkpt lat="44.23343" lon="7.85619">
        <ele>1034.52</ele>
        <time>2020-12-13T13:01:34Z</time>
      </trkpt>
      <trkpt lat="44.23346" lon="7.85617">
        <ele>1034.04</ele>
        <time>2020-12-13T13:01:35Z</time>
      </trkpt>
      <trkpt lat="44.23347" lon="7.85616">
        <ele>1033.55</ele>
        <time>2020-12-13T13:01:36Z</time>
      </trkpt>
      <trkpt lat="44.23347" lon="7.85614">
        <ele>1033.07</ele>
        <time>2020-12-13T13:01:37Z</time>
      </trkpt>
      <trkpt lat="44.23347" lon="7.85611">
        <ele>1032.59</ele>
        <time>2020-12-13T13:01:38Z</time>
      </trkpt>
      <trkpt lat="44.23349" lon="7.85608">
        <ele>1032.11</ele>
        <time>2020-12-13T13:01:39Z</time>
      </trkpt>
      <trkpt lat="44.2335" lon="7.85604">
        <ele>1031.15</ele>
        <time>2020-12-13T13:01:40Z</time>
      </trkpt>
      <trkpt lat="44.23352" lon="7.85602">
        <ele>1030.67</ele>
        <time>2020-12-13T13:01:41Z</time>
      </trkpt>
      <trkpt lat="44.23353" lon="7.85599">
        <ele>1030.19</ele>
        <time>2020-12-13T13:01:42Z</time>
      </trkpt>
      <trkpt lat="44.23355" lon="7.85597">
        <ele>1030.19</ele>
        <time>2020-12-13T13:01:43Z</time>
      </trkpt>
      <trkpt lat="44.2337" lon="7.85573">
        <ele>1028.27</ele>
        <time>2020-12-13T13:01:49Z</time>
      </trkpt>
      <trkpt lat="44.23373" lon="7.85567">
        <ele>1027.79</ele>
        <time>2020-12-13T13:01:50Z</time>
      </trkpt>
      <trkpt lat="44.23375" lon="7.85562">
        <ele>1027.31</ele>
        <time>2020-12-13T13:01:51Z</time>
      </trkpt>
      <trkpt lat="44.23376" lon="7.85557">
        <ele>1026.83</ele>
        <time>2020-12-13T13:01:52Z</time>
      </trkpt>
      <trkpt lat="44.23378" lon="7.85552">
        <ele>1026.83</ele>
        <time>2020-12-13T13:01:53Z</time>
      </trkpt>
      <trkpt lat="44.23382" lon="7.85542">
        <ele>1025.86</ele>
        <time>2020-12-13T13:01:56Z</time>
      </trkpt>
      <trkpt lat="44.23383" lon="7.85539">
        <ele>1025.38</ele>
        <time>2020-12-13T13:01:57Z</time>
      </trkpt>
      <trkpt lat="44.23385" lon="7.85528">
        <ele>1022.98</ele>
        <time>2020-12-13T13:02:08Z</time>
      </trkpt>
      <trkpt lat="44.23388" lon="7.85518">
        <ele>1025.38</ele>
        <time>2020-12-13T13:02:18Z</time>
      </trkpt>
      <trkpt lat="44.23394" lon="7.85505">
        <ele>1025.86</ele>
        <time>2020-12-13T13:02:31Z</time>
      </trkpt>
      <trkpt lat="44.234" lon="7.85494">
        <ele>1024.9</ele>
        <time>2020-12-13T13:02:37Z</time>
      </trkpt>
      <trkpt lat="44.23409" lon="7.85485">
        <ele>1023.46</ele>
        <time>2020-12-13T13:02:50Z</time>
      </trkpt>
      <trkpt lat="44.23415" lon="7.85479">
        <ele>1023.46</ele>
        <time>2020-12-13T13:03:04Z</time>
      </trkpt>
      <trkpt lat="44.23419" lon="7.85476">
        <ele>1023.46</ele>
        <time>2020-12-13T13:03:08Z</time>
      </trkpt>
      <trkpt lat="44.23422" lon="7.85472">
        <ele>1023.94</ele>
        <time>2020-12-13T13:03:11Z</time>
      </trkpt>
      <trkpt lat="44.23423" lon="7.85471">
        <ele>1024.42</ele>
        <time>2020-12-13T13:03:12Z</time>
      </trkpt>
      <trkpt lat="44.23424" lon="7.85469">
        <ele>1024.42</ele>
        <time>2020-12-13T13:03:13Z</time>
      </trkpt>
      <trkpt lat="44.23447" lon="7.85432">
        <ele>1024.9</ele>
        <time>2020-12-13T13:03:23Z</time>
      </trkpt>
      <trkpt lat="44.23471" lon="7.85408">
        <ele>1024.9</ele>
        <time>2020-12-13T13:03:33Z</time>
      </trkpt>
      <trkpt lat="44.2348" lon="7.854">
        <ele>1026.83</ele>
        <time>2020-12-13T13:03:48Z</time>
      </trkpt>
      <trkpt lat="44.23489" lon="7.85386">
        <ele>1025.86</ele>
        <time>2020-12-13T13:04:02Z</time>
      </trkpt>
      <trkpt lat="44.2351" lon="7.85356">
        <ele>1024.9</ele>
        <time>2020-12-13T13:04:10Z</time>
      </trkpt>
      <trkpt lat="44.23525" lon="7.85339">
        <ele>1024.42</ele>
        <time>2020-12-13T13:04:20Z</time>
      </trkpt>
      <trkpt lat="44.23532" lon="7.8533">
        <ele>1024.42</ele>
        <time>2020-12-13T13:04:34Z</time>
      </trkpt>
      <trkpt lat="44.23539" lon="7.85318">
        <ele>1024.42</ele>
        <time>2020-12-13T13:04:50Z</time>
      </trkpt>
      <trkpt lat="44.23543" lon="7.85308">
        <ele>1022.98</ele>
        <time>2020-12-13T13:05:02Z</time>
      </trkpt>
      <trkpt lat="44.23547" lon="7.85301">
        <ele>1022.98</ele>
        <time>2020-12-13T13:05:16Z</time>
      </trkpt>
      <trkpt lat="44.23552" lon="7.85295">
        <ele>1023.46</ele>
        <time>2020-12-13T13:05:29Z</time>
      </trkpt>
      <trkpt lat="44.23555" lon="7.85286">
        <ele>1024.42</ele>
        <time>2020-12-13T13:05:38Z</time>
      </trkpt>
      <trkpt lat="44.23555" lon="7.85284">
        <ele>1024.42</ele>
        <time>2020-12-13T13:05:39Z</time>
      </trkpt>
      <trkpt lat="44.23556" lon="7.85282">
        <ele>1024.42</ele>
        <time>2020-12-13T13:05:40Z</time>
      </trkpt>
      <trkpt lat="44.23556" lon="7.8528">
        <ele>1024.42</ele>
        <time>2020-12-13T13:05:41Z</time>
      </trkpt>
      <trkpt lat="44.23557" lon="7.85278">
        <ele>1024.42</ele>
        <time>2020-12-13T13:05:42Z</time>
      </trkpt>
      <trkpt lat="44.23561" lon="7.85254">
        <ele>1024.9</ele>
        <time>2020-12-13T13:05:54Z</time>
      </trkpt>
      <trkpt lat="44.23559" lon="7.85232">
        <ele>1026.34</ele>
        <time>2020-12-13T13:06:07Z</time>
      </trkpt>
      <trkpt lat="44.23558" lon="7.85213">
        <ele>1026.34</ele>
        <time>2020-12-13T13:06:19Z</time>
      </trkpt>
      <trkpt lat="44.23562" lon="7.85197">
        <ele>1027.31</ele>
        <time>2020-12-13T13:06:34Z</time>
      </trkpt>
      <trkpt lat="44.23564" lon="7.8519">
        <ele>1027.31</ele>
        <time>2020-12-13T13:06:42Z</time>
      </trkpt>
      <trkpt lat="44.23569" lon="7.85184">
        <ele>1027.31</ele>
        <time>2020-12-13T13:06:53Z</time>
      </trkpt>
      <trkpt lat="44.23574" lon="7.85177">
        <ele>1026.83</ele>
        <time>2020-12-13T13:07:07Z</time>
      </trkpt>
      <trkpt lat="44.23583" lon="7.85167">
        <ele>1027.31</ele>
        <time>2020-12-13T13:07:21Z</time>
      </trkpt>
      <trkpt lat="44.23585" lon="7.85162">
        <ele>1026.83</ele>
        <time>2020-12-13T13:07:25Z</time>
      </trkpt>
      <trkpt lat="44.23586" lon="7.85161">
        <ele>1026.83</ele>
        <time>2020-12-13T13:07:26Z</time>
      </trkpt>
      <trkpt lat="44.23597" lon="7.85129">
        <ele>1026.34</ele>
        <time>2020-12-13T13:07:42Z</time>
      </trkpt>
      <trkpt lat="44.23608" lon="7.85079">
        <ele>1022.98</ele>
        <time>2020-12-13T13:07:53Z</time>
      </trkpt>
      <trkpt lat="44.23622" lon="7.85026">
        <ele>1018.17</ele>
        <time>2020-12-13T13:08:06Z</time>
      </trkpt>
      <trkpt lat="44.23632" lon="7.84965">
        <ele>1012.41</ele>
        <time>2020-12-13T13:08:20Z</time>
      </trkpt>
      <trkpt lat="44.23646" lon="7.84938">
        <ele>1007.6</ele>
        <time>2020-12-13T13:08:30Z</time>
      </trkpt>
      <trkpt lat="44.23649" lon="7.84938">
        <ele>1007.12</ele>
        <time>2020-12-13T13:08:31Z</time>
      </trkpt>
      <trkpt lat="44.23674" lon="7.8494">
        <ele>1004.72</ele>
        <time>2020-12-13T13:08:45Z</time>
      </trkpt>
      <trkpt lat="44.23676" lon="7.84939">
        <ele>1004.72</ele>
        <time>2020-12-13T13:09:09Z</time>
      </trkpt>
      <trkpt lat="44.23676" lon="7.84939">
        <ele>1005.2</ele>
        <time>2020-12-13T13:09:34Z</time>
      </trkpt>
      <trkpt lat="44.23676" lon="7.84938">
        <ele>1007.12</ele>
        <time>2020-12-13T13:09:49Z</time>
      </trkpt>
      <trkpt lat="44.23673" lon="7.84939">
        <ele>1008.08</ele>
        <time>2020-12-13T13:10:15Z</time>
      </trkpt>
      <trkpt lat="44.2367" lon="7.84939">
        <ele>1008.08</ele>
        <time>2020-12-13T13:10:44Z</time>
      </trkpt>
      <trkpt lat="44.23671" lon="7.84935">
        <ele>1008.56</ele>
        <time>2020-12-13T13:10:57Z</time>
      </trkpt>
      <trkpt lat="44.23672" lon="7.84933">
        <ele>1012.89</ele>
        <time>2020-12-13T13:11:09Z</time>
      </trkpt>
      <trkpt lat="44.23671" lon="7.84922">
        <ele>1019.13</ele>
        <time>2020-12-13T13:11:37Z</time>
      </trkpt>
      <trkpt lat="44.23671" lon="7.84923">
        <ele>1024.42</ele>
        <time>2020-12-13T13:12:04Z</time>
      </trkpt>
      <trkpt lat="44.23664" lon="7.8492">
        <ele>1030.19</ele>
        <time>2020-12-13T13:12:34Z</time>
      </trkpt>
      <trkpt lat="44.23668" lon="7.84921">
        <ele>1035.48</ele>
        <time>2020-12-13T13:13:07Z</time>
      </trkpt>
      <trkpt lat="44.23669" lon="7.84929">
        <ele>1030.67</ele>
        <time>2020-12-13T13:13:29Z</time>
      </trkpt>
      <trkpt lat="44.23674" lon="7.84932">
        <ele>1022.5</ele>
        <time>2020-12-13T13:13:58Z</time>
      </trkpt>
      <trkpt lat="44.2367" lon="7.84928">
        <ele>1023.94</ele>
        <time>2020-12-13T13:14:26Z</time>
      </trkpt>
      <trkpt lat="44.23676" lon="7.84928">
        <ele>1023.46</ele>
        <time>2020-12-13T13:14:43Z</time>
      </trkpt>
      <trkpt lat="44.23683" lon="7.84926">
        <ele>1022.98</ele>
        <time>2020-12-13T13:15:02Z</time>
      </trkpt>
      <trkpt lat="44.23685" lon="7.84927">
        <ele>1023.46</ele>
        <time>2020-12-13T13:15:19Z</time>
      </trkpt>
      <trkpt lat="44.2369" lon="7.84928">
        <ele>1017.69</ele>
        <time>2020-12-13T13:15:34Z</time>
      </trkpt>
      <trkpt lat="44.23701" lon="7.84926">
        <ele>1010</ele>
        <time>2020-12-13T13:15:51Z</time>
      </trkpt>
      <trkpt lat="44.23715" lon="7.84921">
        <ele>1004.23</ele>
        <time>2020-12-13T13:16:07Z</time>
      </trkpt>
      <trkpt lat="44.23729" lon="7.84914">
        <ele>997.02</ele>
        <time>2020-12-13T13:16:22Z</time>
      </trkpt>
      <trkpt lat="44.23741" lon="7.84909">
        <ele>996.06</ele>
        <time>2020-12-13T13:16:38Z</time>
      </trkpt>
      <trkpt lat="44.23742" lon="7.84909">
        <ele>996.06</ele>
        <time>2020-12-13T13:16:39Z</time>
      </trkpt>
      <trkpt lat="44.23756" lon="7.84898">
        <ele>993.66</ele>
        <time>2020-12-13T13:16:54Z</time>
      </trkpt>
      <trkpt lat="44.2377" lon="7.8489">
        <ele>988.37</ele>
        <time>2020-12-13T13:17:11Z</time>
      </trkpt>
      <trkpt lat="44.2379" lon="7.84877">
        <ele>985.49</ele>
        <time>2020-12-13T13:17:30Z</time>
      </trkpt>
      <trkpt lat="44.23802" lon="7.84865">
        <ele>981.16</ele>
        <time>2020-12-13T13:17:45Z</time>
      </trkpt>
      <trkpt lat="44.23808" lon="7.84853">
        <ele>981.16</ele>
        <time>2020-12-13T13:17:56Z</time>
      </trkpt>
      <trkpt lat="44.2381" lon="7.84849">
        <ele>982.12</ele>
        <time>2020-12-13T13:17:59Z</time>
      </trkpt>
      <trkpt lat="44.23817" lon="7.84838">
        <ele>982.6</ele>
        <time>2020-12-13T13:18:11Z</time>
      </trkpt>
      <trkpt lat="44.23829" lon="7.84832">
        <ele>980.2</ele>
        <time>2020-12-13T13:18:24Z</time>
      </trkpt>
      <trkpt lat="44.23843" lon="7.84827">
        <ele>980.68</ele>
        <time>2020-12-13T13:18:36Z</time>
      </trkpt>
      <trkpt lat="44.2386" lon="7.84817">
        <ele>978.28</ele>
        <time>2020-12-13T13:18:50Z</time>
      </trkpt>
      <trkpt lat="44.23871" lon="7.84807">
        <ele>975.39</ele>
        <time>2020-12-13T13:19:05Z</time>
      </trkpt>
      <trkpt lat="44.23876" lon="7.84796">
        <ele>974.43</ele>
        <time>2020-12-13T13:19:14Z</time>
      </trkpt>
      <trkpt lat="44.23869" lon="7.8479">
        <ele>971.55</ele>
        <time>2020-12-13T13:19:21Z</time>
      </trkpt>
      <trkpt lat="44.23856" lon="7.84793">
        <ele>971.55</ele>
        <time>2020-12-13T13:19:33Z</time>
      </trkpt>
      <trkpt lat="44.23854" lon="7.84794">
        <ele>971.55</ele>
        <time>2020-12-13T13:19:36Z</time>
      </trkpt>
      <trkpt lat="44.23852" lon="7.84794">
        <ele>971.55</ele>
        <time>2020-12-13T13:19:37Z</time>
      </trkpt>
      <trkpt lat="44.23851" lon="7.84793">
        <ele>972.03</ele>
        <time>2020-12-13T13:19:38Z</time>
      </trkpt>
      <trkpt lat="44.23856" lon="7.84779">
        <ele>967.22</ele>
        <time>2020-12-13T13:19:52Z</time>
      </trkpt>
      <trkpt lat="44.2386" lon="7.84777">
        <ele>965.78</ele>
        <time>2020-12-13T13:19:56Z</time>
      </trkpt>
      <trkpt lat="44.23879" lon="7.84767">
        <ele>964.82</ele>
        <time>2020-12-13T13:20:12Z</time>
      </trkpt>
      <trkpt lat="44.23891" lon="7.84773">
        <ele>964.34</ele>
        <time>2020-12-13T13:20:23Z</time>
      </trkpt>
      <trkpt lat="44.23903" lon="7.84774">
        <ele>965.3</ele>
        <time>2020-12-13T13:20:35Z</time>
      </trkpt>
      <trkpt lat="44.23916" lon="7.84776">
        <ele>963.38</ele>
        <time>2020-12-13T13:20:48Z</time>
      </trkpt>
      <trkpt lat="44.23933" lon="7.84764">
        <ele>959.05</ele>
        <time>2020-12-13T13:21:03Z</time>
      </trkpt>
      <trkpt lat="44.23934" lon="7.84751">
        <ele>958.09</ele>
        <time>2020-12-13T13:21:16Z</time>
      </trkpt>
      <trkpt lat="44.23922" lon="7.84738">
        <ele>954.73</ele>
        <time>2020-12-13T13:21:30Z</time>
      </trkpt>
      <trkpt lat="44.23919" lon="7.84737">
        <ele>953.77</ele>
        <time>2020-12-13T13:21:32Z</time>
      </trkpt>
      <trkpt lat="44.23903" lon="7.84729">
        <ele>947.04</ele>
        <time>2020-12-13T13:21:49Z</time>
      </trkpt>
      <trkpt lat="44.23898" lon="7.84726">
        <ele>945.59</ele>
        <time>2020-12-13T13:21:55Z</time>
      </trkpt>
      <trkpt lat="44.23883" lon="7.8472">
        <ele>943.67</ele>
        <time>2020-12-13T13:22:12Z</time>
      </trkpt>
      <trkpt lat="44.23878" lon="7.84719">
        <ele>942.71</ele>
        <time>2020-12-13T13:22:19Z</time>
      </trkpt>
      <trkpt lat="44.23876" lon="7.84719">
        <ele>942.71</ele>
        <time>2020-12-13T13:22:20Z</time>
      </trkpt>
      <trkpt lat="44.23861" lon="7.84715">
        <ele>939.83</ele>
        <time>2020-12-13T13:22:36Z</time>
      </trkpt>
      <trkpt lat="44.2387" lon="7.84704">
        <ele>938.38</ele>
        <time>2020-12-13T13:22:50Z</time>
      </trkpt>
      <trkpt lat="44.23879" lon="7.847">
        <ele>939.35</ele>
        <time>2020-12-13T13:23:05Z</time>
      </trkpt>
      <trkpt lat="44.23887" lon="7.84696">
        <ele>940.31</ele>
        <time>2020-12-13T13:23:14Z</time>
      </trkpt>
      <trkpt lat="44.23889" lon="7.84696">
        <ele>940.79</ele>
        <time>2020-12-13T13:23:16Z</time>
      </trkpt>
      <trkpt lat="44.239" lon="7.8469">
        <ele>941.27</ele>
        <time>2020-12-13T13:23:27Z</time>
      </trkpt>
      <trkpt lat="44.23912" lon="7.8468">
        <ele>939.83</ele>
        <time>2020-12-13T13:23:40Z</time>
      </trkpt>
      <trkpt lat="44.23931" lon="7.84666">
        <ele>936.46</ele>
        <time>2020-12-13T13:23:57Z</time>
      </trkpt>
      <trkpt lat="44.23934" lon="7.84651">
        <ele>935.5</ele>
        <time>2020-12-13T13:24:09Z</time>
      </trkpt>
      <trkpt lat="44.23936" lon="7.84633">
        <ele>931.65</ele>
        <time>2020-12-13T13:24:21Z</time>
      </trkpt>
      <trkpt lat="44.23936" lon="7.84632">
        <ele>930.69</ele>
        <time>2020-12-13T13:24:22Z</time>
      </trkpt>
      <trkpt lat="44.23936" lon="7.8463">
        <ele>930.21</ele>
        <time>2020-12-13T13:24:23Z</time>
      </trkpt>
      <trkpt lat="44.23942" lon="7.84607">
        <ele>924.93</ele>
        <time>2020-12-13T13:24:38Z</time>
      </trkpt>
      <trkpt lat="44.23936" lon="7.84599">
        <ele>924.45</ele>
        <time>2020-12-13T13:24:51Z</time>
      </trkpt>
      <trkpt lat="44.23927" lon="7.84617">
        <ele>925.89</ele>
        <time>2020-12-13T13:25:05Z</time>
      </trkpt>
      <trkpt lat="44.23916" lon="7.84637">
        <ele>926.85</ele>
        <time>2020-12-13T13:25:20Z</time>
      </trkpt>
      <trkpt lat="44.23904" lon="7.8463">
        <ele>925.89</ele>
        <time>2020-12-13T13:25:36Z</time>
      </trkpt>
      <trkpt lat="44.23913" lon="7.84622">
        <ele>922.04</ele>
        <time>2020-12-13T13:25:53Z</time>
      </trkpt>
      <trkpt lat="44.23922" lon="7.84607">
        <ele>918.68</ele>
        <time>2020-12-13T13:26:07Z</time>
      </trkpt>
      <trkpt lat="44.23918" lon="7.84585">
        <ele>912.91</ele>
        <time>2020-12-13T13:26:22Z</time>
      </trkpt>
      <trkpt lat="44.23918" lon="7.84563">
        <ele>906.66</ele>
        <time>2020-12-13T13:26:36Z</time>
      </trkpt>
      <trkpt lat="44.23915" lon="7.8455">
        <ele>907.14</ele>
        <time>2020-12-13T13:26:52Z</time>
      </trkpt>
      <trkpt lat="44.23913" lon="7.84548">
        <ele>908.1</ele>
        <time>2020-12-13T13:27:07Z</time>
      </trkpt>
      <trkpt lat="44.23915" lon="7.84543">
        <ele>910.99</ele>
        <time>2020-12-13T13:27:30Z</time>
      </trkpt>
      <trkpt lat="44.23913" lon="7.84543">
        <ele>911.47</ele>
        <time>2020-12-13T13:27:49Z</time>
      </trkpt>
      <trkpt lat="44.23913" lon="7.84544">
        <ele>914.35</ele>
        <time>2020-12-13T13:28:07Z</time>
      </trkpt>
      <trkpt lat="44.23908" lon="7.84552">
        <ele>912.91</ele>
        <time>2020-12-13T13:28:22Z</time>
      </trkpt>
      <trkpt lat="44.23907" lon="7.84556">
        <ele>911.47</ele>
        <time>2020-12-13T13:28:25Z</time>
      </trkpt>
      <trkpt lat="44.23906" lon="7.84558">
        <ele>911.47</ele>
        <time>2020-12-13T13:28:26Z</time>
      </trkpt>
      <trkpt lat="44.23905" lon="7.84563">
        <ele>911.47</ele>
        <time>2020-12-13T13:28:29Z</time>
      </trkpt>
      <trkpt lat="44.23904" lon="7.84565">
        <ele>911.47</ele>
        <time>2020-12-13T13:28:30Z</time>
      </trkpt>
      <trkpt lat="44.23903" lon="7.84567">
        <ele>911.47</ele>
        <time>2020-12-13T13:28:31Z</time>
      </trkpt>
      <trkpt lat="44.23886" lon="7.84587">
        <ele>912.91</ele>
        <time>2020-12-13T13:28:45Z</time>
      </trkpt>
      <trkpt lat="44.2387" lon="7.84597">
        <ele>911.95</ele>
        <time>2020-12-13T13:29:02Z</time>
      </trkpt>
      <trkpt lat="44.23859" lon="7.84607">
        <ele>909.54</ele>
        <time>2020-12-13T13:29:12Z</time>
      </trkpt>
      <trkpt lat="44.23856" lon="7.84609">
        <ele>909.54</ele>
        <time>2020-12-13T13:29:15Z</time>
      </trkpt>
      <trkpt lat="44.2384" lon="7.84625">
        <ele>910.03</ele>
        <time>2020-12-13T13:29:30Z</time>
      </trkpt>
      <trkpt lat="44.23828" lon="7.8463">
        <ele>909.06</ele>
        <time>2020-12-13T13:29:44Z</time>
      </trkpt>
      <trkpt lat="44.23829" lon="7.84627">
        <ele>908.58</ele>
        <time>2020-12-13T13:29:45Z</time>
      </trkpt>
      <trkpt lat="44.23829" lon="7.84625">
        <ele>908.1</ele>
        <time>2020-12-13T13:29:46Z</time>
      </trkpt>
      <trkpt lat="44.2383" lon="7.84622">
        <ele>907.62</ele>
        <time>2020-12-13T13:29:47Z</time>
      </trkpt>
      <trkpt lat="44.2383" lon="7.8462">
        <ele>907.14</ele>
        <time>2020-12-13T13:29:48Z</time>
      </trkpt>
      <trkpt lat="44.23841" lon="7.84603">
        <ele>901.85</ele>
        <time>2020-12-13T13:30:02Z</time>
      </trkpt>
      <trkpt lat="44.23852" lon="7.84587">
        <ele>896.57</ele>
        <time>2020-12-13T13:30:18Z</time>
      </trkpt>
      <trkpt lat="44.23861" lon="7.84566">
        <ele>891.76</ele>
        <time>2020-12-13T13:30:33Z</time>
      </trkpt>
      <trkpt lat="44.23865" lon="7.84541">
        <ele>884.55</ele>
        <time>2020-12-13T13:30:50Z</time>
      </trkpt>
      <trkpt lat="44.23866" lon="7.84537">
        <ele>883.59</ele>
        <time>2020-12-13T13:30:53Z</time>
      </trkpt>
      <trkpt lat="44.23871" lon="7.8452">
        <ele>880.22</ele>
        <time>2020-12-13T13:31:07Z</time>
      </trkpt>
      <trkpt lat="44.23881" lon="7.84504">
        <ele>875.9</ele>
        <time>2020-12-13T13:31:24Z</time>
      </trkpt>
      <trkpt lat="44.23882" lon="7.84502">
        <ele>875.9</ele>
        <time>2020-12-13T13:31:26Z</time>
      </trkpt>
      <trkpt lat="44.23883" lon="7.84501">
        <ele>875.9</ele>
        <time>2020-12-13T13:31:27Z</time>
      </trkpt>
      <trkpt lat="44.23884" lon="7.845">
        <ele>876.38</ele>
        <time>2020-12-13T13:31:28Z</time>
      </trkpt>
      <trkpt lat="44.23902" lon="7.84486">
        <ele>876.38</ele>
        <time>2020-12-13T13:31:44Z</time>
      </trkpt>
      <trkpt lat="44.23908" lon="7.84477">
        <ele>876.86</ele>
        <time>2020-12-13T13:31:52Z</time>
      </trkpt>
      <trkpt lat="44.23914" lon="7.84456">
        <ele>874.94</ele>
        <time>2020-12-13T13:32:06Z</time>
      </trkpt>
      <trkpt lat="44.23924" lon="7.8444">
        <ele>872.53</ele>
        <time>2020-12-13T13:32:21Z</time>
      </trkpt>
      <trkpt lat="44.23942" lon="7.84436">
        <ele>873.5</ele>
        <time>2020-12-13T13:32:38Z</time>
      </trkpt>
      <trkpt lat="44.23961" lon="7.84429">
        <ele>874.94</ele>
        <time>2020-12-13T13:32:56Z</time>
      </trkpt>
      <trkpt lat="44.23973" lon="7.8442">
        <ele>873.98</ele>
        <time>2020-12-13T13:33:11Z</time>
      </trkpt>
      <trkpt lat="44.23985" lon="7.84407">
        <ele>871.09</ele>
        <time>2020-12-13T13:33:27Z</time>
      </trkpt>
      <trkpt lat="44.24006" lon="7.84396">
        <ele>866.29</ele>
        <time>2020-12-13T13:33:43Z</time>
      </trkpt>
      <trkpt lat="44.2402" lon="7.8439">
        <ele>863.88</ele>
        <time>2020-12-13T13:33:57Z</time>
      </trkpt>
      <trkpt lat="44.24032" lon="7.84384">
        <ele>864.36</ele>
        <time>2020-12-13T13:34:11Z</time>
      </trkpt>
      <trkpt lat="44.2404" lon="7.84378">
        <ele>863.4</ele>
        <time>2020-12-13T13:34:23Z</time>
      </trkpt>
      <trkpt lat="44.24056" lon="7.84365">
        <ele>861.48</ele>
        <time>2020-12-13T13:34:39Z</time>
      </trkpt>
      <trkpt lat="44.24072" lon="7.84352">
        <ele>861</ele>
        <time>2020-12-13T13:34:55Z</time>
      </trkpt>
      <trkpt lat="44.24083" lon="7.84339">
        <ele>860.52</ele>
        <time>2020-12-13T13:35:10Z</time>
      </trkpt>
      <trkpt lat="44.24097" lon="7.84331">
        <ele>860.04</ele>
        <time>2020-12-13T13:35:24Z</time>
      </trkpt>
      <trkpt lat="44.24114" lon="7.84321">
        <ele>857.15</ele>
        <time>2020-12-13T13:35:40Z</time>
      </trkpt>
      <trkpt lat="44.24117" lon="7.84317">
        <ele>856.19</ele>
        <time>2020-12-13T13:35:45Z</time>
      </trkpt>
      <trkpt lat="44.24127" lon="7.84303">
        <ele>853.31</ele>
        <time>2020-12-13T13:36:02Z</time>
      </trkpt>
      <trkpt lat="44.24139" lon="7.8429">
        <ele>851.87</ele>
        <time>2020-12-13T13:36:18Z</time>
      </trkpt>
      <trkpt lat="44.2415" lon="7.84279">
        <ele>848.5</ele>
        <time>2020-12-13T13:36:32Z</time>
      </trkpt>
      <trkpt lat="44.24158" lon="7.8427">
        <ele>845.14</ele>
        <time>2020-12-13T13:36:42Z</time>
      </trkpt>
      <trkpt lat="44.24168" lon="7.84252">
        <ele>839.85</ele>
        <time>2020-12-13T13:36:58Z</time>
      </trkpt>
      <trkpt lat="44.24173" lon="7.84225">
        <ele>835.04</ele>
        <time>2020-12-13T13:37:16Z</time>
      </trkpt>
      <trkpt lat="44.24178" lon="7.84202">
        <ele>831.68</ele>
        <time>2020-12-13T13:37:33Z</time>
      </trkpt>
      <trkpt lat="44.24182" lon="7.84181">
        <ele>832.16</ele>
        <time>2020-12-13T13:37:48Z</time>
      </trkpt>
      <trkpt lat="44.24178" lon="7.84163">
        <ele>830.72</ele>
        <time>2020-12-13T13:38:01Z</time>
      </trkpt>
      <trkpt lat="44.2417" lon="7.84142">
        <ele>828.31</ele>
        <time>2020-12-13T13:38:16Z</time>
      </trkpt>
      <trkpt lat="44.24163" lon="7.84118">
        <ele>828.79</ele>
        <time>2020-12-13T13:38:33Z</time>
      </trkpt>
      <trkpt lat="44.24166" lon="7.84101">
        <ele>830.72</ele>
        <time>2020-12-13T13:38:47Z</time>
      </trkpt>
      <trkpt lat="44.24159" lon="7.84083">
        <ele>828.79</ele>
        <time>2020-12-13T13:39:04Z</time>
      </trkpt>
      <trkpt lat="44.24145" lon="7.84065">
        <ele>826.87</ele>
        <time>2020-12-13T13:39:17Z</time>
      </trkpt>
      <trkpt lat="44.24121" lon="7.84041">
        <ele>827.83</ele>
        <time>2020-12-13T13:39:33Z</time>
      </trkpt>
      <trkpt lat="44.24113" lon="7.84026">
        <ele>829.27</ele>
        <time>2020-12-13T13:39:44Z</time>
      </trkpt>
      <trkpt lat="44.24113" lon="7.84024">
        <ele>829.27</ele>
        <time>2020-12-13T13:39:45Z</time>
      </trkpt>
      <trkpt lat="44.24122" lon="7.84016">
        <ele>827.35</ele>
        <time>2020-12-13T13:39:59Z</time>
      </trkpt>
      <trkpt lat="44.24128" lon="7.84017">
        <ele>827.35</ele>
        <time>2020-12-13T13:40:10Z</time>
      </trkpt>
      <trkpt lat="44.24135" lon="7.84027">
        <ele>827.83</ele>
        <time>2020-12-13T13:40:19Z</time>
      </trkpt>
      <trkpt lat="44.24136" lon="7.84028">
        <ele>827.83</ele>
        <time>2020-12-13T13:40:20Z</time>
      </trkpt>
      <trkpt lat="44.24137" lon="7.84029">
        <ele>828.31</ele>
        <time>2020-12-13T13:40:21Z</time>
      </trkpt>
      <trkpt lat="44.24138" lon="7.8403">
        <ele>828.31</ele>
        <time>2020-12-13T13:40:22Z</time>
      </trkpt>
      <trkpt lat="44.24139" lon="7.84032">
        <ele>828.31</ele>
        <time>2020-12-13T13:40:23Z</time>
      </trkpt>
      <trkpt lat="44.24139" lon="7.84033">
        <ele>828.31</ele>
        <time>2020-12-13T13:40:24Z</time>
      </trkpt>
      <trkpt lat="44.24141" lon="7.84035">
        <ele>827.83</ele>
        <time>2020-12-13T13:40:26Z</time>
      </trkpt>
      <trkpt lat="44.24141" lon="7.84037">
        <ele>827.83</ele>
        <time>2020-12-13T13:40:27Z</time>
      </trkpt>
      <trkpt lat="44.24146" lon="7.84043">
        <ele>829.27</ele>
        <time>2020-12-13T13:40:35Z</time>
      </trkpt>
      <trkpt lat="44.24146" lon="7.84045">
        <ele>829.27</ele>
        <time>2020-12-13T13:40:36Z</time>
      </trkpt>
      <trkpt lat="44.24156" lon="7.84058">
        <ele>828.31</ele>
        <time>2020-12-13T13:40:48Z</time>
      </trkpt>
      <trkpt lat="44.24157" lon="7.84059">
        <ele>828.31</ele>
        <time>2020-12-13T13:40:49Z</time>
      </trkpt>
      <trkpt lat="44.2417" lon="7.84071">
        <ele>828.31</ele>
        <time>2020-12-13T13:41:03Z</time>
      </trkpt>
      <trkpt lat="44.24174" lon="7.84067">
        <ele>829.76</ele>
        <time>2020-12-13T13:41:16Z</time>
      </trkpt>
      <trkpt lat="44.2417" lon="7.84065">
        <ele>828.31</ele>
        <time>2020-12-13T13:41:27Z</time>
      </trkpt>
      <trkpt lat="44.24167" lon="7.84069">
        <ele>828.79</ele>
        <time>2020-12-13T13:41:40Z</time>
      </trkpt>
      <trkpt lat="44.24169" lon="7.84068">
        <ele>828.79</ele>
        <time>2020-12-13T13:41:51Z</time>
      </trkpt>
      <trkpt lat="44.24171" lon="7.84073">
        <ele>830.24</ele>
        <time>2020-12-13T13:42:04Z</time>
      </trkpt>
    </trkseg>
  </trk>
</gpx>